[[{"header":{"parameterUnit":"m.s-1","parameterCategory":1,"la1":31.0,"la2":29.5877,"lo1":-88.7671,"lo2":-86.6584,"dy":0.0162,"dx":0.0185,"nx":115,"ny":88,"refTime":"2024-08-19T12:00:00:Z","depth":0,"parameterNumber":2,"parameterNumberName":"U-component_of_WINDS"},"data":[0.0,0.0,0.0,0.0,0.0,0.0,0.0,0.0,0.0,0.0,0.0,0.0,0.0,0.0,0.0,0.0,0.0,0.0,0.0,0.0,0.0,0.0,0.0,0.0,0.0,0.0,0.0,0.0,0.0,0.0,0.0,0.0,0.0,0.0,0.0,0.0,0.0,0.0,0.0,0.0,0.0,0.0,0.0,0.0,0.0,0.0,0.0,0.0,0.0,0.0,0.0,0.0,0.0,0.0,0.0,0.0,0.0,0.0,0.0,0.0,0.0,0.0,0.0,0.0,0.0,0.0,0.0,0.0,0.0,0.0,0.0,0.0,0.0,0.0,0.0,0.0,0.0,0.0,0.0,0.0,0.0,0.0,0.0,0.0,0.0,0.0,0.0,0.0,0.0,0.0,0.0,0.0,0.0,0.0,0.0,0.0,0.0,0.0,0.0,0.0,0.0,0.0,0.0,0.0,0.0,0.0,0.0,0.0,0.0,0.0,0.0,0.0,0.0,0.0,0.0,0.0,0.0,0.0,0.0,0.0,0.0,0.0,0.0,0.0,0.0,0.0,0.0,0.0,0.0,0.0,0.0,0.0,0.0,0.0,0.0,0.0,0.0,0.0,0.0,0.0,0.0,0.0,0.0,0.0,0.0,0.0,0.0,0.0,0.0,0.0,0.0,0.0,0.0,0.0,0.0,0.0,0.0,0.0,0.0,0.0,0.0,0.0,0.0,0.0,0.0,0.0,0.0,0.0,0.0,0.0,0.0,0.0,0.0,0.0,0.0,0.0,0.0,0.0,0.0,0.0,0.0,0.0,0.0,0.0,0.0,0.0,0.0,0.0,0.0,0.0,0.0,0.0,0.0,0.0,0.0,0.0,0.0,0.0,0.0,0.0,0.0,0.0,0.0,0.0,0.0,0.0,0.0,0.0,0.0,0.0,0.0,0.0,0.0,0.0,0.0,0.0,0.0,0.0,0.0,0.0,0.0,0.0,0.0,0.0,0.0,0.0,0.0,0.0,0.0,0.0,0.0,0.0,0.0,0.0,0.0,0.0,0.0,0.0,0.0,0.0,0.0,0.0,0.0,0.0,0.0,0.0,0.0,0.0,0.0,0.0,0.0,0.0,0.0,0.0,0.0,0.0,0.0,0.0,0.0,0.0,0.0,0.0,0.0,0.0,0.0,0.0,0.0,0.0,0.0,0.0,0.0,0.0,0.0,0.0,0.0,0.0,0.0,0.0,0.0,0.0,0.0,0.0,0.0,0.0,0.0,0.0,0.0,0.0,0.0,0.0,0.0,0.0,0.0,0.0,0.0,0.0,0.0,0.0,0.0,0.0,0.0,0.0,0.0,0.0,0.0,0.0,0.0,0.0,0.0,0.0,0.0,0.0,0.0,0.0,0.0,0.0,0.0,0.0,0.0,0.0,0.0,0.0,0.0,0.0,0.0,0.0,0.0,0.0,0.0,0.0,0.0,0.0,0.0,0.0,0.0,0.0,0.0,0.0,0.0,0.0,0.0,0.0,0.0,0.0,0.0,0.0,0.0,0.0,0.0,0.0,0.0,0.0,0.0,0.0,0.0,0.0,0.0,0.0,0.0,0.0,0.0,0.0,0.0,0.0,0.0,0.0,0.0,0.0,0.0,0.0,0.0,0.0,0.0,0.0,0.0,0.0,0.0,0.0,0.0,0.0,0.0,0.0,0.0,0.0,0.0,0.0,0.0,0.0,0.0,0.0,0.0,0.0,0.0,0.0,0.0,0.0,0.0,0.0,0.0,0.0,0.0,0.0,0.0,0.0,0.0,0.0,0.0,0.0,0.0,0.0,0.0,0.0,0.0,0.0,0.0,0.0,0.0,0.0,0.0,0.0,0.0,0.0,0.0,0.0,0.0,0.0,0.0,0.0,0.0,0.0,0.0,0.0,0.0,0.0,0.0,0.0,0.0,0.0,0.0,0.0,0.0,0.0,0.0,0.0,0.0,0.0,0.0,0.0,0.0,0.0,0.0,0.0,0.0,0.0,0.0,0.0,0.0,0.0,0.0,0.0,0.0,0.0,0.0,0.0,0.0,0.0,0.0,0.0,0.0,0.0,0.0,0.0,0.0,0.0,0.0,0.0,0.0,0.0,0.0,0.0,0.0,0.0,0.0,0.0,0.0,0.0,0.0,0.0,0.0,0.0,0.0,0.0,0.0,0.0,0.0,0.0,0.0,0.0,0.0,0.0,0.0,0.0,0.0,0.0,0.0,0.0,0.0,0.0,0.0,0.0,0.0,0.0,0.0,0.0,0.0,0.0,0.0,0.0,0.0,0.0,0.0,0.0,0.0,0.0,0.0,0.0,0.0,0.0,0.0,0.0,0.0,0.0,0.0,0.0,0.0,0.0,0.0,0.0,0.0,0.0,0.0,0.0,0.0,0.0,0.0,0.0,0.0,0.0,0.0,0.0,0.0,0.0,0.0,0.0,0.0,0.0,0.0,0.0,0.0,0.0,0.0,0.0,0.0,0.0,0.0,0.0,0.0,0.0,0.0,0.0,0.0,0.0,0.0,0.0,0.0,0.0,0.0,0.0,0.0,0.0,0.0,0.0,0.0,0.0,0.0,0.0,0.0,0.0,0.0,0.0,0.0,0.0,0.0,0.0,0.0,0.0,0.0,0.0,0.0,0.0,0.0,0.0,0.0,0.0,0.0,0.0,0.0,0.0,0.0,0.0,0.0,0.0,0.0,0.0,0.0,0.0,0.0,0.0,0.0,0.0,0.0,0.0,0.0,0.0,0.0,0.0,0.0,0.0,0.0,0.0,0.0,0.0,0.0,0.0,0.0,0.0,0.0,0.0,0.0,0.0,0.0,0.0,0.0,0.0,0.0,0.0,0.0,0.0,0.0,0.0,0.0,0.0,0.0,0.0,0.0,0.0,0.0,0.0,0.0,0.0,0.0,0.0,0.0,0.0,0.0,0.0,0.0,0.0,0.0,0.0,0.0,0.0,0.0,0.0,0.0,0.0,0.0,0.0,0.0,0.0,0.0,0.0,0.0,0.0,0.0,0.0,0.0,0.0,0.0,0.0,0.0,0.0,0.0,0.0,0.0,0.0,0.0,0.0,0.0,0.0,0.0,0.0,0.0,0.0,0.0,0.0,0.0,0.0,0.0,0.0,0.0,0.0,0.0,0.0,0.0,0.0,0.0,0.0,0.0,0.0,0.0,0.0,0.0,0.0,0.0,0.0,0.0,0.0,0.0,0.0,0.0,0.0,0.0,0.0,0.0,0.0,0.0,0.0,0.0,0.0,0.0,0.0,0.0,0.0,0.0,0.0,0.0,0.0,0.0,0.0,0.0,0.0,0.0,0.0,0.0,0.0,0.0,0.0,0.0,0.0,0.0,0.0,0.0,0.0,0.0,0.0,0.0,0.0,0.0,0.0,0.0,0.0,0.0,0.0,0.0,0.0,0.0,0.0,0.0,0.0,0.0,0.0,0.0,0.0,0.0,0.0,0.0,0.0,0.0,0.0,0.0,0.0,0.0,0.0,0.0,0.0,0.0,0.0,0.0,0.0,0.0,0.0,0.0,0.0,0.0,0.0,0.0,0.0,0.0,0.0,0.0,0.0,0.0,0.0,0.0,0.0,0.0,0.0,0.0,0.0,0.0,0.0,0.0,0.0,0.0,0.0,0.0,0.0,0.0,0.0,0.0,0.0,0.0,0.0,0.0,0.0,0.0,0.0,0.0,0.0,0.0,0.0,0.0,0.0,0.0,0.0,0.0,0.0,0.0,0.0,0.0,0.0,0.0,0.0,0.0,0.0,0.0,0.0,0.0,0.0,0.0,0.0,0.0,0.0,0.0,0.0,0.0,0.0,0.0,0.0,0.0,0.0,0.0,0.0,0.0,0.0,0.0,0.0,0.0,0.0,0.0,0.0,0.0,0.0,0.0,0.0,0.0,0.0,0.0,0.0,0.0,0.0,0.0,0.0,0.0,0.0,0.0,0.0,0.0,0.0,0.0,0.0,0.0,0.0,0.0,0.0,0.0,0.0,0.0,0.0,0.0,0.0,0.0,0.0,0.0,0.0,0.0,0.0,0.0,0.0,0.0,0.0,0.0,0.0,0.0,0.0,0.0,0.0,0.0,0.0,0.0,0.0,0.0,0.0,0.0,0.0,0.0,0.0,0.0,0.0,0.0,0.0,0.0,0.0,0.0,0.0,0.0,0.0,0.0,0.0,0.0,0.0,0.0,0.0,0.0,0.0,0.0,0.0,0.0,0.0,0.0,0.0,0.0,0.0,0.0,0.0,-1.2194,0.0,0.0,0.0,0.0,0.0,0.0,0.0,0.0,0.0,0.0,0.0,0.0,0.0,0.0,0.0,0.0,0.0,0.0,0.0,0.0,0.0,0.0,0.0,0.0,0.0,0.0,0.0,0.0,0.0,0.0,0.0,0.0,0.0,0.0,0.0,0.0,0.0,0.0,0.0,0.0,0.0,0.0,0.0,0.0,0.0,0.0,0.0,0.0,0.0,0.0,0.0,0.0,0.0,0.0,0.0,0.0,0.0,0.0,0.0,0.0,0.0,0.0,0.0,0.0,0.0,0.0,0.0,0.0,0.0,0.0,0.0,0.0,0.0,0.0,0.0,0.0,0.0,0.0,0.0,0.0,0.0,0.0,0.0,0.0,0.0,0.0,0.0,0.0,0.0,0.0,0.0,0.0,0.0,0.0,0.0,0.0,0.0,0.0,0.0,0.0,0.0,0.0,0.0,0.0,0.0,0.0,0.0,0.0,0.0,0.0,-1.3026,-1.2846,-1.3202,-1.3313,-1.3153,0.0,0.0,0.0,0.0,0.0,0.0,0.0,0.0,0.0,0.0,0.0,0.0,0.0,0.0,0.0,0.0,0.0,0.0,0.0,0.0,0.0,0.0,0.0,0.0,0.0,0.0,0.0,0.0,0.0,0.0,0.0,0.0,0.0,0.0,0.0,0.0,0.0,0.0,0.0,0.0,0.0,0.0,0.0,0.0,0.0,0.0,0.0,0.0,0.0,0.0,0.0,0.0,0.0,0.0,0.0,0.0,0.0,0.0,0.0,0.0,0.0,0.0,0.0,0.0,0.0,0.0,0.0,0.0,0.0,0.0,0.0,0.0,0.0,0.0,0.0,0.0,0.0,0.0,0.0,0.0,0.0,0.0,0.0,0.0,0.0,0.0,0.0,0.0,0.0,0.0,0.0,0.0,0.0,0.0,0.0,0.0,0.0,0.0,0.0,0.0,0.0,0.0,0.0,0.0,0.0,0.0,0.0,0.0,0.0,0.0,0.0,0.0,-1.4443,-1.4573,-1.4287,0.0,0.0,0.0,0.0,0.0,0.0,0.0,0.0,0.0,0.0,0.0,0.0,0.0,0.0,0.0,0.0,0.0,0.0,0.0,0.0,0.0,0.0,0.0,0.0,0.0,0.0,0.0,0.0,0.0,0.0,0.0,0.0,0.0,0.0,0.0,0.0,0.0,0.0,0.0,0.0,0.0,0.0,0.0,0.0,0.0,0.0,0.0,0.0,0.0,0.0,0.0,0.0,0.0,0.0,0.0,0.0,0.0,0.0,0.0,0.0,0.0,0.0,0.0,0.0,0.0,0.0,0.0,0.0,0.0,0.0,0.0,0.0,0.0,0.0,0.0,0.0,0.0,0.0,0.0,0.0,0.0,0.0,0.0,0.0,0.0,0.0,0.0,0.0,0.0,0.0,0.0,0.0,0.0,0.0,0.0,0.0,0.0,0.0,0.0,0.0,0.0,0.0,0.0,0.0,0.0,0.0,0.0,0.0,0.0,0.0,-1.5633,-1.635,-1.7096,0.0,-1.5569,0.0,0.0,0.0,0.0,0.0,0.0,0.0,0.0,0.0,0.0,0.0,0.0,0.0,0.0,0.0,0.0,0.0,0.0,0.0,0.0,0.0,0.0,0.0,0.0,0.0,0.0,0.0,0.0,0.0,0.0,0.0,0.0,0.0,0.0,0.0,0.0,0.0,0.0,0.0,0.0,0.0,0.0,0.0,0.0,0.0,0.0,0.0,0.0,0.0,0.0,0.0,0.0,0.0,0.0,0.0,0.0,0.0,0.0,0.0,0.0,0.0,0.0,0.0,0.0,0.0,0.0,0.0,0.0,0.0,0.0,0.0,0.0,0.0,0.0,0.0,0.0,0.0,0.0,0.0,0.0,0.0,0.0,0.0,0.0,0.0,0.0,0.0,0.0,0.0,0.0,0.0,0.0,0.0,0.0,0.0,0.0,0.0,0.0,0.0,0.0,0.0,0.0,0.0,0.0,0.0,0.0,0.0,0.0,0.0,0.0,-1.6495,-1.7098,-1.741,-1.6961,0.0,0.0,0.0,0.0,0.0,0.0,0.0,0.0,0.0,0.0,0.0,0.0,0.0,0.0,0.0,0.0,0.0,0.0,0.0,0.0,0.0,0.0,0.0,0.0,0.0,0.0,0.0,0.0,0.0,0.0,0.0,0.0,0.0,0.0,0.0,0.0,0.0,0.0,0.0,0.0,0.0,0.0,0.0,0.0,0.0,0.0,0.0,0.0,0.0,0.0,0.0,0.0,0.0,0.0,0.0,0.0,0.0,0.0,0.0,0.0,0.0,0.0,0.0,0.0,0.0,0.0,0.0,0.0,0.0,0.0,0.0,0.0,0.0,0.0,0.0,0.0,0.0,0.0,0.0,0.0,0.0,0.0,0.0,0.0,0.0,0.0,0.0,0.0,0.0,0.0,0.0,0.0,0.0,0.0,0.0,0.0,0.0,0.0,0.0,0.0,0.0,0.0,0.0,0.0,0.0,0.0,0.0,0.0,0.0,0.0,-1.6766,-1.7637,-1.8226,-1.8228,-1.7494,-1.5972,0.0,0.0,0.0,0.0,0.0,0.0,0.0,0.0,0.0,0.0,0.0,0.0,0.0,0.0,0.0,0.0,0.0,0.0,0.0,0.0,0.0,0.0,0.0,0.0,0.0,0.0,0.0,0.0,0.0,0.0,0.0,0.0,0.0,0.0,0.0,0.0,0.0,0.0,0.0,0.0,0.0,0.0,0.0,0.0,0.0,0.0,0.0,0.0,0.0,0.0,0.0,0.0,0.0,0.0,0.0,0.0,0.0,0.0,0.0,0.0,0.0,0.0,0.0,0.0,0.0,0.0,0.0,0.0,0.0,0.0,0.0,0.0,0.0,0.0,0.0,0.0,0.0,0.0,0.0,0.0,0.0,0.0,0.0,0.0,0.0,0.0,0.0,0.0,0.0,0.0,0.0,0.0,0.0,0.0,0.0,0.0,0.0,0.0,0.0,0.0,0.0,0.0,0.0,0.0,0.0,0.0,0.0,0.0,-1.886,-1.892,-1.9401,-2.0437,-2.0445,-1.918,0.0,0.0,0.0,0.0,0.0,0.0,0.0,0.0,0.0,0.0,0.0,0.0,0.0,0.0,0.0,0.0,0.0,0.0,0.0,0.0,0.0,0.0,0.0,0.0,0.0,0.0,0.0,0.0,0.0,0.0,0.0,0.0,0.0,0.0,0.0,0.0,0.0,0.0,0.0,0.0,0.0,0.0,0.0,0.0,0.0,0.0,0.0,0.0,0.0,0.0,0.0,0.0,0.0,0.0,0.0,0.0,0.0,0.0,0.0,0.0,0.0,0.0,0.0,0.0,0.0,0.0,0.0,0.0,0.0,0.0,0.0,0.0,0.0,0.0,0.0,0.0,0.0,0.0,0.0,0.0,0.0,0.0,0.0,0.0,0.0,0.0,0.0,0.0,0.0,0.0,0.0,0.0,0.0,0.0,0.0,0.0,0.0,0.0,0.0,0.0,0.0,0.0,0.0,0.0,0.0,0.0,0.0,0.0,0.0,-1.6765,-1.8403,-2.0456,-2.276,-2.0217,-1.8691,0.0,0.0,0.0,0.0,0.0,0.0,0.0,0.0,0.0,0.0,0.0,0.0,0.0,0.0,0.0,0.0,0.0,0.0,0.0,0.0,0.0,0.0,0.0,0.0,0.0,0.0,0.0,0.0,0.0,0.0,0.0,0.0,0.0,0.0,0.0,0.0,0.0,0.0,0.0,0.0,0.0,0.0,0.0,0.0,0.0,0.0,0.0,0.0,0.0,0.0,0.0,0.0,0.0,0.0,0.0,0.0,0.0,0.0,0.0,0.0,0.0,0.0,0.0,0.0,0.0,0.0,0.0,0.0,0.0,0.0,0.0,0.0,0.0,0.0,0.0,0.0,0.0,0.0,0.0,0.0,0.0,0.0,0.0,0.0,0.0,0.0,0.0,0.0,0.0,0.0,0.0,0.0,0.0,0.0,0.0,0.0,0.0,0.0,0.0,0.0,0.0,0.0,0.0,0.0,0.0,0.0,0.0,0.0,0.0,-1.6957,0.0,-2.1453,0.0,-2.0026,-1.8397,0.0,0.0,0.0,0.0,0.0,0.0,0.0,0.0,0.0,0.0,0.0,0.0,0.0,0.0,0.0,0.0,0.0,0.0,0.0,0.0,0.0,0.0,0.0,0.0,0.0,0.0,0.0,0.0,0.0,0.0,0.0,0.0,0.0,0.0,0.0,0.0,0.0,0.0,0.0,0.0,0.0,0.0,0.0,0.0,0.0,0.0,0.0,0.0,0.0,0.0,0.0,0.0,0.0,0.0,0.0,0.0,0.0,0.0,0.0,0.0,0.0,0.0,0.0,0.0,0.0,0.0,0.0,0.0,0.0,0.0,0.0,0.0,0.0,0.0,0.0,0.0,0.0,0.0,0.0,0.0,0.0,0.0,0.0,0.0,0.0,0.0,0.0,0.0,0.0,0.0,0.0,0.0,0.0,0.0,0.0,0.0,0.0,0.0,0.0,0.0,0.0,0.0,0.0,0.0,0.0,0.0,0.0,0.0,-1.6092,-2.0052,-2.1668,-2.2287,-2.1925,-2.0149,-1.8461,0.0,0.0,0.0,0.0,0.0,0.0,0.0,0.0,0.0,0.0,0.0,0.0,0.0,0.0,0.0,0.0,0.0,0.0,0.0,0.0,0.0,0.0,0.0,0.0,0.0,0.0,0.0,0.0,0.0,0.0,0.0,0.0,0.0,0.0,0.0,0.0,0.0,0.0,0.0,0.0,0.0,0.0,0.0,0.0,0.0,0.0,0.0,0.0,0.0,0.0,0.0,0.0,0.0,0.0,0.0,0.0,0.0,0.0,0.0,0.0,0.0,0.0,0.0,0.0,0.0,0.0,0.0,0.0,0.0,0.0,0.0,0.0,0.0,0.0,0.0,0.0,0.0,0.0,0.0,0.0,0.0,0.0,0.0,0.0,0.0,0.0,0.0,0.0,0.0,0.0,0.0,0.0,0.0,0.0,0.0,0.0,0.0,0.0,0.0,0.0,0.0,0.0,0.0,0.0,0.0,0.0,0.0,0.0,0.0,-1.8783,-2.0393,-2.192,-2.3225,-2.0365,-1.9048,0.0,0.0,0.0,0.0,0.0,0.0,0.0,0.0,0.0,0.0,0.0,0.0,0.0,0.0,0.0,0.0,0.0,0.0,0.0,0.0,0.0,0.0,0.0,0.0,0.0,0.0,0.0,0.0,0.0,0.0,0.0,0.0,0.0,0.0,0.0,0.0,0.0,0.0,0.0,0.0,0.0,0.0,0.0,0.0,0.0,0.0,0.0,0.0,0.0,0.0,0.0,0.0,0.0,0.0,0.0,0.0,0.0,0.0,0.0,0.0,0.0,0.0,0.0,0.0,0.0,0.0,0.0,0.0,0.0,0.0,0.0,0.0,0.0,0.0,0.0,0.0,0.0,0.0,0.0,0.0,0.0,0.0,0.0,0.0,0.0,0.0,0.0,0.0,0.0,0.0,0.0,0.0,0.0,0.0,0.0,0.0,0.0,0.0,0.0,0.0,0.0,0.0,0.0,0.0,0.0,0.0,0.0,0.0,0.0,-2.0274,-2.1749,-2.3283,-2.478,-2.1406,-1.9773,-2.0182,0.0,0.0,0.0,0.0,0.0,0.0,0.0,0.0,0.0,0.0,0.0,0.0,0.0,0.0,0.0,0.0,0.0,0.0,0.0,0.0,0.0,0.0,0.0,0.0,0.0,0.0,0.0,0.0,0.0,0.0,0.0,0.0,0.0,0.0,0.0,0.0,0.0,0.0,0.0,0.0,0.0,0.0,0.0,0.0,0.0,0.0,0.0,0.0,0.0,0.0,0.0,0.0,0.0,0.0,0.0,0.0,0.0,0.0,0.0,0.0,0.0,0.0,0.0,0.0,0.0,0.0,0.0,0.0,0.0,0.0,0.0,0.0,0.0,0.0,0.0,0.0,0.0,0.0,0.0,0.0,0.0,0.0,0.0,0.0,0.0,0.0,0.0,0.0,0.0,0.0,0.0,0.0,0.0,0.0,0.0,0.0,0.0,0.0,0.0,0.0,0.0,0.0,0.0,0.0,0.0,0.0,0.0,0.0,-2.3778,-2.5265,-2.5997,-2.6013,-2.3068,-2.0773,0.0,0.0,0.0,0.0,0.0,0.0,0.0,0.0,0.0,0.0,0.0,0.0,0.0,0.0,0.0,0.0,0.0,0.0,0.0,0.0,0.0,0.0,0.0,0.0,0.0,0.0,0.0,0.0,0.0,0.0,0.0,0.0,0.0,0.0,0.0,0.0,0.0,0.0,0.0,0.0,0.0,0.0,0.0,0.0,0.0,0.0,0.0,0.0,0.0,0.0,0.0,0.0,0.0,0.0,0.0,0.0,0.0,0.0,0.0,0.0,0.0,0.0,0.0,0.0,0.0,0.0,0.0,0.0,0.0,0.0,0.0,0.0,0.0,0.0,0.0,0.0,0.0,0.0,0.0,0.0,0.0,0.0,0.0,0.0,0.0,0.0,0.0,0.0,0.0,0.0,0.0,0.0,0.0,0.0,0.0,0.0,0.0,0.0,0.0,0.0,0.0,0.0,0.0,0.0,0.0,0.0,0.0,0.0,0.0,-2.5088,-2.6766,-2.7378,-2.6707,-2.4481,-2.2571,0.0,0.0,0.0,0.0,0.0,0.0,0.0,0.0,0.0,0.0,0.0,0.0,0.0,0.0,0.0,0.0,0.0,0.0,0.0,0.0,0.0,0.0,0.0,0.0,0.0,0.0,0.0,0.0,0.0,0.0,0.0,0.0,0.0,0.0,0.0,0.0,0.0,0.0,0.0,0.0,0.0,0.0,0.0,0.0,0.0,0.0,0.0,0.0,0.0,0.0,0.0,0.0,0.0,0.0,0.0,0.0,0.0,0.0,0.0,0.0,0.0,0.0,0.0,0.0,0.0,0.0,0.0,0.0,0.0,0.0,0.0,0.0,0.0,0.0,0.0,0.0,0.0,0.0,0.0,0.0,0.0,0.0,0.0,0.0,0.0,0.0,0.0,0.0,0.0,0.0,0.0,0.0,0.0,0.0,0.0,0.0,0.0,0.0,0.0,0.0,0.0,0.0,0.0,0.0,0.0,0.0,0.0,0.0,-2.4804,-2.628,-2.8147,-2.8815,-2.8203,-2.6245,-2.4064,0.0,0.0,0.0,0.0,0.0,0.0,0.0,0.0,0.0,0.0,0.0,0.0,0.0,0.0,0.0,0.0,0.0,0.0,0.0,0.0,0.0,0.0,0.0,0.0,0.0,0.0,0.0,0.0,0.0,0.0,0.0,0.0,0.0,0.0,0.0,0.0,0.0,0.0,0.0,0.0,0.0,0.0,0.0,0.0,0.0,0.0,0.0,0.0,0.0,0.0,0.0,0.0,0.0,0.0,0.0,0.0,0.0,0.0,0.0,0.0,0.0,0.0,0.0,0.0,0.0,0.0,0.0,0.0,0.0,0.0,0.0,0.0,0.0,0.0,0.0,0.0,0.0,0.0,0.0,0.0,0.0,0.0,0.0,0.0,0.0,0.0,0.0,0.0,0.0,0.0,0.0,0.0,0.0,0.0,0.0,0.0,0.0,0.0,0.0,0.0,0.0,0.0,0.0,0.0,0.0,0.0,0.0,0.0,-2.6144,-2.7088,-2.9175,-3.0132,-2.9768,-2.7917,-2.5327,0.0,0.0,0.0,0.0,0.0,0.0,0.0,0.0,0.0,0.0,0.0,0.0,0.0,0.0,0.0,0.0,0.0,0.0,0.0,0.0,0.0,0.0,0.0,0.0,0.0,0.0,0.0,0.0,0.0,0.0,0.0,0.0,0.0,0.0,0.0,0.0,0.0,0.0,0.0,0.0,0.0,0.0,0.0,0.0,0.0,0.0,0.0,0.0,0.0,0.0,0.0,0.0,0.0,0.0,0.0,0.0,0.0,0.0,0.0,0.0,0.0,0.0,0.0,0.0,0.0,0.0,0.0,0.0,0.0,0.0,0.0,0.0,0.0,0.0,0.0,0.0,0.0,0.0,0.0,0.0,0.0,0.0,0.0,0.0,0.0,0.0,0.0,0.0,0.0,0.0,0.0,0.0,0.0,0.0,0.0,0.0,0.0,0.0,0.0,0.0,0.0,0.0,0.0,0.0,0.0,0.0,0.0,0.0,-2.6089,-2.5861,-2.86,-2.9983,-2.9797,-2.8261,-2.6113,0.0,0.0,0.0,0.0,0.0,0.0,0.0,0.0,0.0,0.0,0.0,0.0,0.0,0.0,0.0,0.0,0.0,0.0,0.0,0.0,0.0,0.0,0.0,0.0,0.0,0.0,0.0,0.0,0.0,0.0,0.0,0.0,0.0,0.0,0.0,0.0,0.0,0.0,0.0,0.0,0.0,0.0,0.0,0.0,0.0,0.0,0.0,0.0,-0.579,0.0,0.0,0.0,0.0,0.0,0.0,0.0,0.0,0.0,0.0,0.0,0.0,0.0,0.0,0.0,0.0,0.0,0.0,0.0,0.0,0.0,0.0,0.0,0.0,0.0,0.0,0.0,0.0,0.0,0.0,0.0,0.0,0.0,0.0,0.0,0.0,0.0,0.0,0.0,0.0,0.0,0.0,0.0,0.0,0.0,0.0,0.0,0.0,0.0,0.0,0.0,0.0,0.0,0.0,0.0,0.0,0.0,0.0,0.0,-2.6616,-2.6535,-2.8389,-2.9472,-2.9552,-2.8146,-2.6439,0.0,0.0,0.0,0.0,0.0,0.0,0.0,0.0,0.0,0.0,0.0,0.0,0.0,0.0,0.0,0.0,0.0,0.0,0.0,0.0,0.0,0.0,0.0,0.0,0.0,0.0,0.0,0.0,0.0,0.0,0.0,0.0,0.0,0.0,0.0,0.0,0.0,0.0,0.0,0.0,0.0,0.0,0.0,0.0,0.0,0.0,0.0,0.0,0.0,0.0,0.0,0.0,0.0,0.0,0.0,0.0,0.0,0.0,0.0,0.0,0.0,0.0,0.0,0.0,0.0,0.0,0.0,0.0,0.0,0.0,0.0,0.0,0.0,0.0,0.0,0.0,0.0,0.0,0.0,0.0,0.0,0.0,0.0,0.0,0.0,0.0,0.0,0.0,0.0,0.0,0.0,0.0,0.0,0.0,0.0,0.0,0.0,0.0,0.0,0.0,0.0,0.0,0.0,0.0,0.0,0.0,0.0,-2.4725,-2.7013,-2.7547,-2.8269,-2.885,-2.9214,-2.7979,-2.6613,-2.5153,0.0,0.0,0.0,0.0,0.0,0.0,0.0,0.0,0.0,0.0,0.0,0.0,0.0,0.0,0.0,0.0,0.0,0.0,0.0,0.0,0.0,0.0,0.0,0.0,0.0,0.0,0.0,0.0,0.0,0.0,0.0,0.0,0.0,0.0,0.0,0.0,0.0,0.0,-0.7324,-0.7514,0.0,0.0,0.0,0.0,0.0,0.0,0.0,0.0,-0.8845,0.0,0.0,0.0,0.0,0.0,0.0,0.0,0.0,0.0,0.0,0.0,0.0,0.0,0.0,0.0,0.0,0.0,0.0,0.0,0.0,0.0,0.0,0.0,0.0,0.0,0.0,0.0,0.0,0.0,0.0,0.0,0.0,0.0,0.0,0.0,0.0,0.0,0.0,0.0,0.0,0.0,0.0,0.0,0.0,0.0,0.0,0.0,0.0,0.0,0.0,0.0,0.0,0.0,0.0,0.0,0.0,-2.279,-2.4761,-2.6092,-2.6769,-2.7889,-2.848,-2.8539,-2.8323,-2.7132,-2.4924,0.0,0.0,0.0,0.0,0.0,0.0,0.0,0.0,0.0,0.0,0.0,0.0,0.0,0.0,0.0,0.0,0.0,0.0,0.0,0.0,0.0,0.0,0.0,0.0,0.0,0.0,0.0,0.0,0.0,0.0,0.0,0.0,0.0,0.0,0.0,0.0,0.0,0.0,0.0,-0.9087,-0.9314,0.0,0.0,0.0,0.0,0.0,0.0,0.0,0.0,-0.8881,0.0,0.0,0.0,0.0,0.0,0.0,0.0,0.0,0.0,0.0,0.0,0.0,0.0,0.0,0.0,0.0,0.0,0.0,0.0,0.0,0.0,0.0,0.0,0.0,0.0,0.0,0.0,0.0,0.0,0.0,0.0,0.0,0.0,0.0,0.0,0.0,0.0,0.0,0.0,0.0,0.0,0.0,0.0,0.0,0.0,0.0,0.0,0.0,0.0,0.0,0.0,0.0,0.0,0.0,0.0,-2.2173,-2.495,-2.6606,-2.6967,-2.7536,-2.7812,-2.7796,-2.6718,-2.5355,0.0,0.0,0.0,0.0,0.0,0.0,0.0,0.0,0.0,0.0,0.0,0.0,0.0,0.0,0.0,0.0,0.0,0.0,0.0,0.0,0.0,0.0,0.0,0.0,0.0,0.0,0.0,0.0,0.0,0.0,0.0,0.0,0.0,0.0,0.0,0.0,0.0,0.0,0.0,0.0,-1.007,-1.0508,-1.0612,0.0,0.0,0.0,0.0,0.0,0.0,-1.0175,-1.0068,0.0,0.0,0.0,0.0,0.0,0.0,0.0,0.0,0.0,0.0,0.0,0.0,0.0,0.0,0.0,0.0,0.0,0.0,0.0,0.0,0.0,0.0,0.0,0.0,0.0,0.0,0.0,0.0,0.0,0.0,0.0,0.0,0.0,0.0,0.0,0.0,0.0,0.0,0.0,0.0,0.0,0.0,0.0,0.0,0.0,0.0,0.0,0.0,0.0,0.0,0.0,0.0,0.0,0.0,0.0,-2.1294,-2.4829,-2.6844,-2.7066,-2.7083,-2.7083,-2.705,-2.5508,-2.405,0.0,0.0,0.0,0.0,0.0,0.0,0.0,0.0,0.0,0.0,0.0,0.0,0.0,0.0,0.0,0.0,0.0,0.0,0.0,0.0,0.0,0.0,0.0,0.0,0.0,0.0,0.0,0.0,0.0,0.0,0.0,0.0,0.0,0.0,0.0,0.0,0.0,0.0,0.0,0.0,0.0,-1.1772,-1.1846,-1.2165,0.0,0.0,0.0,0.0,-1.1627,-1.1608,0.0,0.0,0.0,0.0,0.0,0.0,0.0,0.0,0.0,0.0,0.0,0.0,0.0,0.0,0.0,0.0,0.0,0.0,0.0,0.0,0.0,0.0,0.0,0.0,0.0,0.0,0.0,0.0,0.0,0.0,0.0,0.0,0.0,0.0,0.0,0.0,0.0,0.0,0.0,0.0,0.0,0.0,0.0,0.0,0.0,0.0,0.0,0.0,0.0,0.0,0.0,0.0,0.0,0.0,0.0,0.0,-2.1898,-2.3813,-2.5303,-2.625,-2.6336,-2.6336,-2.6352,-2.6702,-2.5588,0.0,0.0,0.0,0.0,0.0,0.0,0.0,0.0,0.0,0.0,0.0,0.0,0.0,0.0,0.0,0.0,0.0,0.0,0.0,0.0,0.0,0.0,0.0,0.0,0.0,0.0,0.0,0.0,0.0,0.0,0.0,0.0,0.0,0.0,0.0,0.0,0.0,0.0,0.0,0.0,0.0,-1.3533,-1.3069,-1.307,-1.3012,0.0,0.0,-1.2612,-1.2431,-1.2549,0.0,0.0,0.0,0.0,0.0,0.0,0.0,0.0,0.0,0.0,0.0,0.0,0.0,0.0,0.0,0.0,0.0,0.0,0.0,0.0,0.0,0.0,0.0,0.0,0.0,0.0,0.0,0.0,0.0,0.0,0.0,0.0,0.0,0.0,0.0,0.0,0.0,0.0,0.0,0.0,0.0,0.0,0.0,0.0,0.0,0.0,0.0,0.0,0.0,0.0,0.0,0.0,0.0,0.0,0.0,-2.062,-2.1501,-2.407,-2.5712,-2.6169,-2.6185,-2.6185,-2.6169,-2.5292,-2.3951,0.0,0.0,0.0,0.0,0.0,0.0,0.0,0.0,0.0,0.0,0.0,0.0,0.0,0.0,0.0,0.0,0.0,0.0,0.0,0.0,0.0,0.0,0.0,0.0,0.0,0.0,0.0,0.0,0.0,0.0,0.0,0.0,0.0,0.0,0.0,0.0,0.0,0.0,0.0,0.0,0.0,0.0,-1.3935,-1.3654,0.0,0.0,0.0,-1.2834,-1.2733,0.0,0.0,0.0,0.0,0.0,0.0,0.0,0.0,0.0,0.0,0.0,0.0,0.0,0.0,0.0,0.0,0.0,0.0,0.0,0.0,0.0,0.0,0.0,0.0,0.0,0.0,0.0,0.0,0.0,0.0,0.0,0.0,0.0,0.0,0.0,0.0,0.0,0.0,0.0,0.0,0.0,0.0,0.0,0.0,0.0,0.0,0.0,0.0,0.0,0.0,0.0,0.0,0.0,0.0,0.0,0.0,0.0,-2.107,-2.4198,-2.5989,-2.6185,-2.6185,-2.6185,-2.6152,-2.4414,0.0,0.0,0.0,0.0,0.0,0.0,0.0,0.0,0.0,0.0,0.0,0.0,0.0,0.0,0.0,0.0,0.0,0.0,0.0,0.0,0.0,0.0,0.0,0.0,0.0,0.0,0.0,-1.0121,0.0,0.0,0.0,0.0,0.0,0.0,0.0,0.0,0.0,0.0,0.0,0.0,0.0,0.0,-1.3954,-1.4445,-1.4202,-1.4103,0.0,0.0,-1.3215,-1.3175,-1.2921,-1.2603,0.0,0.0,0.0,0.0,0.0,0.0,0.0,0.0,0.0,0.0,0.0,0.0,0.0,0.0,0.0,0.0,0.0,0.0,0.0,0.0,0.0,0.0,0.0,0.0,0.0,0.0,0.0,0.0,0.0,0.0,0.0,0.0,0.0,0.0,0.0,0.0,0.0,0.0,0.0,0.0,0.0,0.0,0.0,0.0,0.0,0.0,0.0,0.0,0.0,0.0,0.0,0.0,0.0,0.0,0.0,-2.1054,-2.3626,-2.54,-2.6168,-2.6185,-2.6185,-2.6185,-2.5374,-2.3885,0.0,0.0,0.0,0.0,0.0,0.0,0.0,0.0,0.0,0.0,0.0,0.0,0.0,0.0,0.0,0.0,0.0,0.0,0.0,0.0,0.0,0.0,0.0,0.0,0.0,0.0,0.0,0.0,0.0,0.0,0.0,0.0,0.0,0.0,0.0,0.0,0.0,0.0,0.0,0.0,0.0,-1.4452,-1.4504,-1.4706,-1.4842,0.0,0.0,-1.4275,-1.3951,-1.3916,-1.3572,-1.2596,0.0,0.0,0.0,0.0,0.0,0.0,0.0,0.0,0.0,0.0,0.0,0.0,0.0,0.0,0.0,0.0,0.0,0.0,0.0,0.0,0.0,0.0,0.0,0.0,0.0,0.0,0.0,0.0,0.0,0.0,0.0,0.0,0.0,0.0,0.0,0.0,0.0,0.0,0.0,0.0,0.0,0.0,0.0,0.0,0.0,0.0,0.0,0.0,0.0,0.0,0.0,0.0,0.0,-2.0647,-2.1022,-2.411,-2.5862,-2.6185,-2.6185,-2.6185,-2.6185,-2.549,-2.4216,0.0,0.0,0.0,0.0,0.0,0.0,0.0,0.0,0.0,0.0,0.0,0.0,0.0,0.0,0.0,0.0,0.0,0.0,0.0,0.0,0.0,0.0,0.0,0.0,0.0,0.0,0.0,0.0,-1.1808,-1.1785,-1.1558,0.0,0.0,0.0,0.0,0.0,0.0,0.0,0.0,0.0,0.0,-1.4577,-1.4735,-1.4699,0.0,0.0,-1.4633,-1.4201,-1.4306,-1.377,-1.3258,-1.2877,-1.2353,0.0,0.0,0.0,0.0,0.0,0.0,0.0,0.0,0.0,0.0,0.0,0.0,0.0,0.0,0.0,0.0,0.0,0.0,0.0,0.0,0.0,0.0,0.0,0.0,0.0,0.0,0.0,0.0,0.0,0.0,0.0,0.0,0.0,0.0,0.0,0.0,0.0,0.0,0.0,0.0,0.0,0.0,0.0,0.0,0.0,0.0,0.0,0.0,0.0,0.0,0.0,0.0,-2.0789,-2.1094,-2.408,-2.568,-2.5807,-2.5807,-2.5826,-2.5791,-2.5053,-2.402,0.0,0.0,0.0,0.0,0.0,0.0,0.0,0.0,0.0,0.0,0.0,0.0,0.0,0.0,0.0,0.0,0.0,0.0,0.0,0.0,0.0,0.0,0.0,0.0,0.0,0.0,0.0,0.0,-1.2871,-1.2637,-1.2106,0.0,0.0,0.0,0.0,0.0,0.0,0.0,0.0,0.0,0.0,-1.4692,-1.4871,-1.475,-1.4772,-1.5177,-1.4545,-1.4092,-1.446,-1.3844,-1.3228,-1.3038,0.0,0.0,0.0,0.0,0.0,0.0,0.0,0.0,0.0,0.0,0.0,0.0,0.0,0.0,0.0,0.0,0.0,0.0,0.0,0.0,0.0,0.0,0.0,0.0,0.0,0.0,0.0,0.0,0.0,0.0,-1.63,0.0,0.0,0.0,0.0,0.0,0.0,0.0,0.0,0.0,0.0,0.0,0.0,0.0,0.0,0.0,0.0,0.0,0.0,0.0,0.0,0.0,0.0,-2.0279,-2.1296,-2.3358,-2.4574,-2.4938,-2.4922,-2.4942,-2.4926,-2.4092,-2.3286,-2.2502,0.0,0.0,0.0,0.0,0.0,0.0,0.0,0.0,0.0,0.0,0.0,0.0,0.0,0.0,0.0,0.0,0.0,0.0,0.0,0.0,0.0,0.0,0.0,0.0,0.0,0.0,-1.4016,-1.3142,-1.2507,0.0,0.0,0.0,0.0,0.0,0.0,0.0,0.0,0.0,0.0,-1.4721,-1.4893,-1.49,-1.49,-1.4893,-1.4929,-1.4421,-1.4144,-1.4467,-1.4218,-1.3748,0.0,0.0,0.0,0.0,0.0,0.0,0.0,0.0,0.0,0.0,0.0,0.0,0.0,0.0,0.0,0.0,0.0,0.0,0.0,0.0,0.0,0.0,0.0,0.0,0.0,0.0,0.0,-2.2563,-2.0377,0.0,0.0,0.0,0.0,0.0,0.0,0.0,0.0,0.0,0.0,0.0,-2.2586,-2.2953,0.0,0.0,0.0,0.0,0.0,0.0,0.0,0.0,0.0,0.0,0.0,0.0,-2.0509,-2.1358,-2.3538,-2.4764,-2.4902,-2.4808,-2.4768,-2.4752,-2.4433,-2.3576,-2.2079,0.0,0.0,0.0,0.0,0.0,0.0,0.0,0.0,0.0,0.0,0.0,0.0,0.0,0.0,0.0,0.0,0.0,0.0,0.0,0.0,0.0,0.0,0.0,0.0,0.0,-1.4772,0.0,0.0,0.0,0.0,0.0,0.0,0.0,0.0,0.0,0.0,0.0,-1.503,-1.4918,-1.5368,-1.5517,-1.497,-1.49,-1.4973,0.0,0.0,0.0,0.0,0.0,0.0,0.0,0.0,0.0,0.0,0.0,0.0,0.0,0.0,-1.1211,-1.0233,-0.9378,-0.8736,-0.8609,0.0,0.0,0.0,0.0,0.0,0.0,0.0,0.0,0.0,0.0,0.0,0.0,0.0,0.0,-2.4404,0.0,-2.2548,0.0,0.0,0.0,0.0,0.0,0.0,0.0,0.0,-2.3623,-2.4147,-2.4652,-2.4935,-2.4837,0.0,-2.3691,-2.2488,0.0,0.0,0.0,0.0,0.0,0.0,0.0,0.0,-2.1121,-2.1827,-2.3551,-2.4441,-2.44,-2.4338,-2.4261,-2.4204,-2.4131,-2.34,-2.1908,-2.1376,-2.0578,0.0,0.0,0.0,0.0,0.0,0.0,0.0,0.0,0.0,0.0,0.0,0.0,0.0,0.0,0.0,0.0,0.0,0.0,0.0,0.0,0.0,0.0,0.0,-1.562,0.0,0.0,0.0,0.0,0.0,0.0,0.0,0.0,0.0,-1.5117,-1.5683,-1.6077,-1.588,-1.6118,-1.6126,-1.5612,0.0,0.0,0.0,0.0,0.0,0.0,0.0,-1.4355,-1.4489,-1.4311,-1.4275,-1.4582,-1.4633,-1.4531,-1.4247,0.0,0.0,-1.115,-1.009,-0.9446,-0.9608,-0.9101,-0.836,-0.757,-0.6865,-0.596,0.0,0.0,0.0,0.0,0.0,0.0,0.0,0.0,-2.6157,-2.5665,0.0,-2.3763,0.0,0.0,0.0,0.0,0.0,-2.3641,0.0,0.0,-2.6343,-2.6709,-2.6237,-2.5838,-2.5736,-2.5883,-2.6306,-2.5869,-2.45,-2.1455,0.0,0.0,0.0,0.0,0.0,0.0,-2.2024,-2.2658,-2.3302,-2.3588,-2.3531,-2.3509,-2.3444,-2.3319,-2.3179,-2.2768,-2.2084,-2.204,-2.1438,-2.0204,-1.8948,0.0,0.0,0.0,0.0,0.0,0.0,0.0,0.0,0.0,0.0,0.0,0.0,0.0,0.0,0.0,0.0,0.0,0.0,0.0,0.0,-1.6434,0.0,0.0,0.0,0.0,0.0,0.0,0.0,0.0,0.0,0.0,-1.5935,-1.6442,-1.6959,-1.7237,0.0,0.0,0.0,0.0,-1.5639,-1.5654,-1.5016,-1.469,-1.4918,-1.4948,-1.4838,-1.4599,0.0,0.0,-1.4966,-1.4907,-1.4798,-1.4545,-1.3416,-1.246,-1.2426,-1.1196,-1.0446,-1.0805,-1.0085,-0.915,-0.8242,-0.7495,-0.6527,-2.9304,0.0,0.0,0.0,0.0,-2.8242,-2.8442,-2.891,-2.8618,-2.7741,-2.6503,-2.6303,0.0,0.0,0.0,0.0,0.0,0.0,-2.5334,-2.6294,-2.6277,-2.6614,-2.7331,-2.7129,-2.7031,-2.708,-2.6746,-2.6393,-2.5974,-2.4612,-2.2966,-2.1141,0.0,0.0,0.0,0.0,-2.2024,-2.2688,-2.3281,-2.3566,-2.3509,-2.3407,-2.3231,-2.3023,-2.2978,-2.286,-2.2649,-2.2649,-2.2272,-2.1481,-2.0239,0.0,0.0,0.0,0.0,0.0,0.0,0.0,0.0,0.0,0.0,0.0,0.0,0.0,0.0,0.0,0.0,0.0,0.0,0.0,-1.6541,-1.6715,-1.687,0.0,0.0,0.0,0.0,0.0,0.0,0.0,0.0,0.0,-1.7726,-1.7963,-1.791,0.0,0.0,-1.7277,-1.6501,-1.6363,-1.6384,-1.6376,-1.6224,0.0,-1.5804,-1.5534,-1.5348,-1.5171,-1.5272,-1.536,-1.5265,-1.5053,-1.4871,-1.4776,-1.3519,-1.255,-1.2625,-1.1543,-1.0635,-1.0667,-1.0594,-1.0243,-0.9326,-0.8547,-0.7724,-3.1074,-2.9935,-2.9402,-2.9417,-2.9771,-2.9658,-2.9879,-3.0402,-3.0258,-2.9735,-2.8965,-2.8704,-2.7679,-2.6047,-2.4957,0.0,0.0,0.0,-2.6071,-2.7276,-2.6867,-2.6935,-2.7418,-2.7549,-2.7458,-2.724,-2.7056,-2.7001,-2.6976,-2.6318,-2.5211,-2.3655,0.0,0.0,-2.1874,-2.2248,-2.2637,-2.3062,-2.3394,-2.3516,-2.3407,-2.3246,-2.3068,-2.291,-2.2888,-2.2888,-2.2888,-2.2729,-2.2452,-2.2079,-2.0633,-1.9278,0.0,0.0,0.0,0.0,0.0,0.0,0.0,0.0,0.0,0.0,0.0,-1.4216,-1.4081,0.0,0.0,0.0,-1.6531,-1.7304,-1.7768,-1.815,0.0,0.0,0.0,0.0,0.0,0.0,0.0,-1.8334,-1.829,-1.8365,-1.8965,-1.905,-1.8871,-1.844,-1.8255,-1.7971,-1.7442,0.0,-1.6984,-1.6984,-1.6697,-1.6368,-1.6128,-1.5796,-1.5491,-1.5436,-1.5389,-1.5389,-1.5382,-1.5119,-1.4907,-1.4735,-1.358,-1.2544,-1.2728,-1.1572,-1.0672,-1.0839,-1.0989,-1.0794,-0.9817,-0.8999,-0.8159,-3.2398,-3.2275,-3.1074,-3.0555,-3.0602,-3.1213,-3.1136,-3.0602,-3.1213,-3.1428,-3.1336,-3.074,-2.9857,-2.8665,-2.6065,0.0,-2.6889,-2.6327,-2.6707,-2.7815,-2.77,-2.7357,-2.6849,-2.724,-2.7178,-2.6657,-2.7203,-2.7473,-2.7403,-2.6822,-2.648,-2.6331,-2.5207,-2.4291,-2.3714,-2.3625,-2.3595,-2.3595,-2.3538,-2.3444,-2.3297,-2.3,-2.2857,-2.2857,-2.2797,-2.276,-2.2775,-2.237,-2.2123,-2.2063,-2.0412,-1.8984,-1.7926,0.0,0.0,0.0,0.0,0.0,0.0,0.0,0.0,0.0,0.0,0.0,0.0,0.0,0.0,0.0,-1.815,0.0,-1.9757,-2.0205,0.0,0.0,0.0,-1.8849,-1.8174,-1.8467,-1.8751,-1.8681,0.0,0.0,-1.9691,-1.9742,-1.9742,-1.9734,-1.9144,-1.8802,-1.9119,-1.8204,-1.7514,-1.7499,-1.6795,-1.6294,-1.6294,-1.5865,-1.5492,-1.5423,-1.5389,-1.5389,-1.5382,-1.5163,-1.4958,-1.4837,-1.3574,-1.2531,-1.2492,-1.1422,-1.0731,-1.1128,-1.1214,-1.0899,-0.9929,-0.9092,-0.8165,-3.2398,-3.2367,-3.2044,-3.1921,-3.1936,-3.209,-3.2059,-3.1951,-3.209,-3.182,-3.1263,-3.1083,-2.9989,-2.8236,-2.6949,-2.6341,-2.6222,-2.5987,-2.6034,-2.6295,-2.6295,-2.6188,-2.6081,-2.6162,-2.6176,-2.6027,-2.6135,-2.6229,-2.6215,-2.6073,-2.5517,-2.4655,-2.4645,-2.4561,-2.4365,-2.3864,-2.3588,-2.3516,-2.3509,-2.3378,-2.3149,-2.2623,-2.237,-2.2356,-2.1969,-2.1766,-2.1766,-2.1565,-2.1431,-2.1431,-2.0527,-1.9644,-1.8918,-1.7286,0.0,0.0,0.0,0.0,0.0,0.0,0.0,0.0,0.0,-1.6786,-1.5858,0.0,-1.7962,0.0,-1.9378,-2.0262,-2.0787,-2.0948,0.0,0.0,-2.037,-1.992,-1.9887,-1.9412,-1.9169,-1.9418,-1.9503,-1.9744,-2.0121,-2.0163,-2.0163,-2.0155,-1.9761,-1.9358,-1.9213,-1.8692,-1.8286,-1.8269,-1.7844,-1.7432,-1.7066,-1.6417,-1.5797,-1.5472,-1.5431,-1.5389,-1.5389,-1.533,-1.5099,-1.4566,-1.3625,-1.2795,-1.2192,-1.1293,-1.0676,-1.0737,-1.0764,-1.0706,-1.0397,-0.964,-0.8754,-3.2398,-3.2398,-3.2398,-3.2216,-3.1877,-3.2244,-3.2398,-3.2398,-3.2398,-3.2017,-3.1374,-3.0436,-2.9406,-2.8259,-2.7031,-2.632,-2.5984,-2.585,-2.5783,-2.5783,-2.5783,-2.5687,-2.5453,-2.5687,-2.5687,-2.5439,-2.5687,-2.5783,-2.5783,-2.5783,-2.5333,-2.4458,-2.4415,-2.4191,-2.3833,-2.3413,-2.3031,-2.2703,-2.2657,-2.2535,-2.2342,-2.2016,-2.1827,-2.1851,-2.1551,-2.1393,-2.1393,-2.1028,-2.0845,-2.0833,-2.0156,-1.9471,-1.8871,-1.7714,-1.6675,0.0,0.0,0.0,0.0,0.0,0.0,0.0,0.0,0.0,0.0,0.0,-1.9252,-1.9867,-2.1,-2.1962,-2.25,-2.2949,-2.2932,-2.2254,-2.1878,-2.1299,-2.0534,-2.0131,-1.9885,-1.9966,-1.9992,-2.0061,-2.0266,-2.0292,-2.0292,-2.0292,-2.0121,-1.9855,-1.9461,-1.8956,-1.8579,-1.8571,-1.8116,-1.7595,-1.7139,-1.6533,-1.6004,-1.5763,-1.5555,-1.5389,-1.5389,-1.5173,-1.4824,-1.442,-1.34,-1.2423,-1.1939,-1.1123,-1.046,-1.0302,-1.0276,-1.0319,-1.042,-0.9787,-0.8957,-3.2231,-3.2216,-3.2216,-3.1775,-3.1099,-3.1827,-3.2066,-3.198,-3.1995,-3.1697,-3.1093,-2.9212,-2.8336,-2.8137,-2.6605,-2.5836,-2.5755,-2.5646,-2.5577,-2.5577,-2.5605,-2.5328,-2.492,-2.537,-2.5342,-2.492,-2.537,-2.5577,-2.5577,-2.5577,-2.5284,-2.468,-2.4124,-2.342,-2.2588,-2.2466,-2.2207,-2.1687,-2.1605,-2.1513,-2.1393,-2.1345,-2.1296,-2.131,-2.1224,-2.1161,-2.1175,-2.0585,-2.0245,-2.022,-1.9551,-1.8939,-1.8505,-1.7871,-1.7279,0.0,-1.6705,0.0,0.0,0.0,0.0,0.0,0.0,0.0,0.0,-1.9467,-2.0228,-2.1165,-2.2467,-2.3462,-2.3997,-2.4835,-2.473,-2.3205,-2.3134,-2.2513,-2.0763,-2.0624,-2.0609,-2.0337,-2.0292,-2.0292,-2.0292,-2.0292,-2.0292,-2.0283,-2.0206,-2.0035,-1.97,-1.9136,-1.8691,-1.8656,-1.7977,-1.7392,-1.6935,-1.6533,-1.6252,-1.6087,-1.5673,-1.534,-1.5215,-1.4699,-1.423,-1.4028,-1.2945,-1.1893,-1.1623,-1.0824,-1.018,-0.9992,-0.9922,-1.0019,-1.0152,-0.9761,-0.9106,-3.1248,-3.1248,-3.1263,-3.0893,-3.0318,-3.0476,-3.0232,-2.9711,-2.9755,-2.9334,-2.8641,-2.7612,-2.6905,-2.6434,-2.5588,-2.4921,-2.4463,-2.4447,-2.4419,-2.4405,-2.4434,-2.4361,-2.4287,-2.4361,-2.4361,-2.4287,-2.4361,-2.4419,-2.4405,-2.4419,-2.3891,-2.291,-2.303,-2.2309,-2.0807,0.0,0.0,0.0,-2.1527,-2.1417,-2.1393,-2.0968,-2.0759,-2.0734,-2.0232,0.0,-1.9927,-1.9591,-1.942,-1.9433,-1.9184,0.0,0.0,0.0,0.0,0.0,0.0,0.0,0.0,0.0,0.0,0.0,-1.9147,-1.8933,-1.8721,-1.9938,-2.0957,-2.1492,-2.218,-2.2738,-2.3179,-2.3379,-2.3277,-2.2609,-2.2379,-2.1868,-2.0971,-2.0782,-2.0609,-2.0337,-2.0292,-2.0292,-2.0292,-2.0292,-2.0283,-2.0257,-2.0035,-1.9794,-1.9708,-1.9316,-1.9067,-1.9025,-1.8319,-1.7725,-1.7359,-1.7188,-1.682,-1.6252,-1.5567,-1.5061,-1.465,-1.4026,-1.3385,-1.2948,-1.2224,-1.1537,-1.0956,-1.0366,-0.9954,-0.9933,-0.9884,-0.9933,-0.9981,-0.9872,-0.9547,-3.0999,0.0,-3.0675,-3.0163,0.0,-2.9001,-2.8237,-2.7353,-2.8411,-2.8498,-2.7723,-2.6643,-2.6005,-2.5713,-2.4903,-2.4403,-2.4125,-2.4125,-2.4125,-2.4125,-2.4125,-2.4125,-2.4125,-2.4125,-2.4125,-2.4125,-2.4125,-2.4125,-2.407,-2.3783,-2.3195,-2.232,-2.2193,-2.1446,-2.0144,-2.0245,-2.0446,-2.0708,-2.0633,-2.0608,-2.0584,-2.0333,-2.0156,-2.0118,-1.9785,0.0,0.0,0.0,0.0,0.0,0.0,0.0,0.0,0.0,0.0,-1.8881,-1.8785,-1.8697,-1.8636,-1.869,-1.8924,-1.936,-1.9278,-1.9359,-1.9741,-2.0798,-2.1573,-2.195,-2.2443,-2.2926,-2.332,-2.3588,-2.3469,-2.284,-2.2611,-2.2186,-2.1373,-2.1105,-2.088,-2.0564,-2.0518,-2.0473,-2.0337,-2.0121,-2.0026,-2.0001,-1.9701,-1.9461,-1.9427,-1.9127,-1.8836,-1.8639,-1.829,-1.7959,-1.7716,-1.7514,-1.7057,-1.6105,-1.5477,-1.481,-1.4019,-1.3343,-1.2796,-1.2413,-1.1728,-1.1031,-1.0681,-1.0211,-0.9884,-0.9884,-0.9884,-0.9884,-0.9884,-0.9884,-0.9809,-3.0569,-3.054,-2.9915,-2.9216,-2.8466,-2.7584,-2.646,-2.5354,0.0,0.0,0.0,-2.5778,-2.5252,-2.5196,-2.4439,-2.4125,-2.4125,-2.4125,-2.4125,-2.4125,-2.4125,-2.4125,-2.4125,-2.4125,-2.4125,-2.4112,-2.3992,-2.3926,-2.3929,-2.3354,-2.2724,-2.2068,-2.1509,-2.0809,-2.0028,-1.9862,-1.9798,-1.9811,-1.9911,-1.9962,-1.9962,-2.0023,-1.9995,-1.9863,-1.985,-1.9756,-1.965,-1.9502,-1.9434,-1.9446,-1.9763,-1.9904,-1.9832,-2.0196,-2.0123,-1.9584,-1.9768,-1.9732,-1.9285,-1.9413,-1.9476,-1.9314,-1.9144,-1.9507,-2.0612,-2.1095,-2.156,-2.2018,-2.2433,-2.2838,-2.3303,-2.374,-2.3714,-2.2921,-2.2843,-2.2457,-2.1571,-2.1401,-2.1203,-2.0835,-2.069,-2.0583,-2.0316,-1.9941,-1.9657,-1.9571,-1.9316,-1.9076,-1.8956,-1.8759,-1.8502,-1.8136,-1.8025,-1.7991,-1.7959,-1.7757,-1.7049,-1.6041,-1.5379,-1.4636,-1.3548,-1.2626,-1.2213,-1.2099,-1.1216,-1.0657,-1.0501,-1.0179,-0.99,-0.9884,-0.9884,-0.9884,-0.9884,-0.9884,-0.9884,-2.8958,-2.8903,-2.8284,-2.7673,-2.7032,-2.6415,-2.554,-2.4627,-2.472,-2.4686,-2.4569,-2.4386,-2.4288,-2.4275,-2.4164,-2.4125,-2.4125,-2.4125,-2.4125,-2.4125,-2.4125,-2.4125,-2.4125,-2.4125,-2.4125,-2.4044,-2.3574,-2.3341,-2.3276,-2.2766,-2.2137,-2.1483,-2.1223,-2.0705,-1.9913,-1.9798,-1.9798,-1.9811,-2.0314,-2.0566,-2.0578,-2.0867,-2.098,-2.098,-2.0729,-2.0612,-2.0596,-2.0455,-2.0394,-2.0394,-2.0466,-2.0286,-1.9829,-1.9714,-1.9602,-1.9477,-1.8927,-1.8709,-1.9019,-1.8704,-1.8636,-1.9014,-1.9166,-1.9337,-1.9524,-1.961,-1.9974,-2.0661,-2.0894,-2.1155,-2.1873,-2.212,-2.2167,-2.1945,-2.19,-2.1741,-2.1437,-2.1392,-2.1302,-2.1006,-2.0781,-2.0559,-2.0209,-1.9858,-1.9581,-1.9281,-1.8922,-1.8571,-1.8374,-1.8425,-1.8408,-1.8094,-1.7991,-1.7991,-1.7991,-1.7951,-1.7261,-1.6263,-1.526,-1.4177,-1.2929,-1.1899,-1.133,-1.1199,-1.0751,-1.0441,-1.0353,-1.0121,-0.9911,-0.9884,-0.9884,-0.9884,-0.9884,-0.9884,-0.9884,-2.8587,-2.8478,-2.76,-2.7057,-2.6701,-2.5632,-2.4818,-2.429,-2.4171,-2.4125,-2.4125,-2.4125,-2.4125,-2.4125,-2.4125,-2.4125,-2.4125,-2.4125,-2.4125,-2.4125,-2.4125,-2.4125,-2.4125,-2.4125,-2.3926,-2.36,-2.3326,-2.3039,-2.2753,-2.2097,-2.1575,-2.1171,-2.0666,-2.0179,-1.9823,-1.9798,-1.9798,-1.9811,-2.0062,-2.0377,-2.0679,-2.0727,-2.089,-2.1063,-2.0901,-2.077,-2.0696,-2.0239,-1.9995,-1.9995,-1.9936,-1.9666,-1.9245,-1.9587,-1.955,-1.8967,-1.8775,-1.8719,-1.8783,-1.8821,-1.8882,-1.8993,-1.9199,-1.9292,-1.9292,-1.9292,-1.9641,-2.042,-2.0521,-2.0851,-2.1595,-2.1687,-2.1687,-2.1687,-2.1687,-2.1651,-2.1562,-2.1562,-2.1472,-2.1248,-2.1015,-2.0685,-2.0184,-1.9695,-1.929,-1.8905,-1.8528,-1.8228,-1.8017,-1.8136,-1.8245,-1.8034,-1.7991,-1.7991,-1.7983,-1.7443,-1.6645,-1.5475,-1.4307,-1.3173,-1.1981,-1.1136,-1.0887,-1.0778,-1.0509,-1.0365,-1.0327,-1.0089,-0.9916,-0.9884,-0.9884,-0.9884,-0.9884,-0.9884,-0.9884,-2.836,-2.8252,-2.7202,-2.6641,-2.6274,-2.4975,-2.429,-2.4125,-2.4125,-2.4125,-2.4125,-2.4125,-2.4125,-2.4125,-2.4125,-2.4125,-2.4125,-2.4125,-2.4125,-2.4125,-2.4125,-2.4125,-2.4099,-2.3952,-2.3668,-2.321,-2.2962,-2.2582,-2.2097,-2.1458,-2.103,-2.0783,-2.0012,-1.968,-1.9778,-1.9647,-1.9709,-1.9926,-1.974,-2.0029,-2.0774,-2.0735,-2.0834,-2.1049,-2.0935,-2.0742,-2.0464,-1.9945,-1.9633,-1.9614,-1.953,-1.9214,-1.8785,-1.9424,-1.9382,-1.8425,-1.8639,-1.8912,-1.8825,-1.9106,-1.9259,-1.9152,-1.9245,-1.9292,-1.9301,-1.9393,-1.9742,-2.0393,-2.0604,-2.0918,-2.1549,-2.1687,-2.1687,-2.1687,-2.1687,-2.1687,-2.1687,-2.1687,-2.1607,-2.1392,-2.1123,-2.0633,-2.0044,-1.9445,-1.8938,-1.8519,-1.8211,-1.8008,-1.7991,-1.7991,-1.7991,-1.7991,-1.7991,-1.7991,-1.7925,-1.707,-1.5983,-1.4834,-1.3607,-1.2468,-1.1422,-1.0818,-1.0603,-1.0536,-1.0363,-1.0213,-1.0186,-1.0062,-0.99,-0.9884,-0.9884,-0.9884,-0.9884,-0.9884,-0.9884,-2.7603,-2.7498,-2.696,-2.612,-2.5178,-2.4433,-2.4125,-2.4083,-2.4083,-2.4125,-2.4054,-2.4112,-2.4083,-2.4125,-2.4096,-2.4083,-2.4083,-2.4096,-2.4083,-2.4054,-2.4125,-2.4112,-2.4002,-2.3532,-2.3248,-2.3024,-2.2163,-2.1588,-2.1314,-2.0785,-2.0399,-2.0066,-1.9406,-1.9293,-1.9593,-1.9186,-1.9409,-2.0389,-1.9657,-1.9872,-2.1082,-2.1494,-2.1584,-2.1362,-2.1174,-2.0765,-2.0199,-2.0073,-2.0029,-2.004,-1.9976,-1.9584,-1.8814,-1.8934,-1.8661,-1.7822,-1.8315,-1.8854,-1.9446,-1.9364,-1.9391,-1.9543,-1.9392,-1.9292,-1.9311,-1.9619,-2.0003,-2.0475,-2.0842,-2.1227,-2.1667,-2.1687,-2.1687,-2.1687,-2.1687,-2.1687,-2.1687,-2.1687,-2.1607,-2.1437,-2.0899,-2.0297,-1.9651,-1.9048,-1.8519,-1.8194,-1.8059,-1.7991,-1.8,-1.791,-1.787,-1.791,-1.7951,-1.7919,-1.7796,-1.7022,-1.5849,-1.4911,-1.3732,-1.2435,-1.1397,-1.0818,-1.0556,-1.0299,-1.0153,-1.0003,-0.9943,-0.9889,-0.9889,-0.9884,-0.9884,-0.9884,-0.9884,-0.9863,-0.9857,-2.7503,-2.7438,-2.6909,-2.6052,-2.4962,-2.4051,-2.37,-2.3671,-2.3335,-2.3233,-2.3203,-2.322,-2.3514,-2.4067,-2.3819,-2.3671,-2.3671,-2.3378,-2.3233,-2.322,-2.3203,-2.3233,-2.3195,-2.2963,-2.2535,-2.1917,-2.1398,-2.0749,-1.9988,-1.9456,-1.9071,-1.8919,-1.8857,-1.8974,-1.9167,-1.9189,-1.9454,-1.9866,-1.9442,-1.9597,-2.0261,-2.0421,-2.0534,-2.0737,-2.057,-2.0387,-2.0096,-1.9671,-1.9431,-1.9387,-1.8861,-1.8211,-1.7564,-1.7595,-1.7618,-1.7543,-1.8695,-1.943,-1.9601,-1.963,-1.9654,-1.9597,-1.9429,-1.9292,-1.9329,-1.9897,-2.0314,-2.053,-2.0869,-2.1282,-2.1623,-2.1687,-2.1687,-2.1687,-2.1687,-2.1687,-2.1687,-2.1687,-2.1534,-2.1111,-2.0721,-2.0147,-1.9361,-1.8626,-1.8228,-1.8017,-1.7991,-1.7991,-1.7959,-1.7578,-1.7245,-1.7155,-1.6829,-1.6747,-1.6985,-1.6134,-1.504,-1.4026,-1.2681,-1.1372,-1.102,-1.0616,-1.0297,-1.0116,-0.9992,-0.9927,-0.9895,-0.9884,-0.9884,-0.9884,-0.9884,-0.9884,-0.9884,-0.9814,-0.9739,-2.7074,-2.695,-2.647,-2.5672,-2.4702,-2.3786,-2.3306,-2.3138,-2.2756,-2.2634,-2.2634,-2.2634,-2.298,-2.3573,-2.3318,-2.3168,-2.3138,-2.2768,-2.2634,-2.2634,-2.2634,-2.2634,-2.2592,-2.2444,-2.193,-2.1169,-2.0909,-2.0193,-1.9075,-1.8666,-1.837,-1.8352,-1.8589,-1.8809,-1.8949,-1.916,-1.9323,-1.9549,-1.9212,-1.9222,-1.9549,-1.9264,-1.9372,-1.9879,-1.9857,-1.9704,-1.9518,-1.8907,-1.8571,-1.8527,-1.7684,-1.7002,-1.6592,-1.6843,-1.734,-1.8076,-1.9209,-1.9895,-1.9783,-1.9858,-1.9784,-1.9597,-1.9429,-1.9292,-1.9412,-1.9952,-2.0287,-2.0383,-2.0805,-2.1282,-2.1614,-2.1687,-2.1687,-2.1687,-2.1687,-2.1687,-2.1687,-2.1687,-2.1443,-2.0807,-2.0462,-1.9901,-1.8955,-1.8301,-1.8008,-1.8,-1.7991,-1.787,-1.7668,-1.7074,-1.6698,-1.6404,-1.5726,-1.5617,-1.6021,-1.5128,-1.3995,-1.3192,-1.1961,-1.0978,-1.0631,-1.0443,-1.0223,-1.0182,-1.0014,-0.9922,-0.9884,-0.9884,-0.9884,-0.9884,-0.9884,-0.9852,-0.9809,-0.968,-0.9572,-2.5965,-2.5926,-2.5317,-2.4805,-2.4193,-2.3612,-2.3096,-2.2634,-2.2573,-2.2561,-2.2543,-2.2561,-2.2592,-2.2665,-2.2604,-2.2634,-2.2622,-2.2561,-2.2512,-2.2512,-2.2531,-2.2604,-2.2567,-2.2082,-2.1593,-2.1057,-2.0628,-1.9927,-1.8997,-1.8816,-1.8771,-1.8737,-1.8629,-1.882,-1.9065,-1.8765,-1.8902,-1.9533,-1.8965,-1.8816,-1.9114,-1.8512,-1.8445,-1.8969,-1.9023,-1.8757,-1.8166,-1.7717,-1.7501,-1.7468,-1.7044,-1.6551,-1.631,-1.7295,-1.8486,-1.9541,-1.9806,-1.9993,-2.0149,-2.001,-1.9784,-1.9597,-1.9429,-1.9292,-1.932,-1.9742,-1.9916,-1.993,-2.055,-2.1151,-2.1399,-2.157,-2.1642,-2.1607,-2.1642,-2.1642,-2.1597,-2.1365,-2.1291,-2.0491,-1.9825,-1.903,-1.8104,-1.8017,-1.7829,-1.7789,-1.791,-1.7619,-1.687,-1.6665,-1.6198,-1.5588,-1.5131,-1.4992,-1.4955,-1.4266,-1.343,-1.2692,-1.1796,-1.0999,-1.0812,-1.0625,-1.0406,-1.0218,-1.0073,-0.996,-0.9922,-0.9884,-0.9884,-0.9884,-0.9884,-0.9836,-0.9717,-0.9626,-0.948,-2.5896,-2.5847,-2.5249,-2.4697,-2.4112,-2.3321,-2.2642,-2.2137,-2.1827,-2.1702,-2.1702,-2.1702,-2.1702,-2.1714,-2.1702,-2.1889,-2.2094,-2.1846,-2.1702,-2.1702,-2.1702,-2.1702,-2.1678,-2.1482,-2.1016,-2.0427,-2.0152,-1.952,-1.8558,-1.8216,-1.8096,-1.8141,-1.8372,-1.8575,-1.8722,-1.8802,-1.8975,-1.9077,-1.8674,-1.8573,-1.861,-1.8245,-1.8026,-1.7972,-1.7995,-1.7863,-1.7617,-1.7197,-1.6931,-1.6941,-1.6785,-1.6765,-1.7054,-1.8125,-1.9014,-1.9492,-1.9916,-2.013,-2.004,-1.9833,-1.9627,-1.9429,-1.935,-1.9253,-1.9366,-1.9637,-1.9679,-1.9351,-1.9737,-2.007,-1.9898,-2.0793,-2.1454,-2.0952,-2.0808,-2.0538,-2.0031,-1.984,-1.9442,-1.8485,-1.7624,-1.6794,-1.6653,-1.6345,-1.6345,-1.6337,-1.6337,-1.6214,-1.5884,-1.5421,-1.4906,-1.4351,-1.3715,-1.315,-1.2746,-1.3096,-1.2871,-1.2145,-1.1437,-1.1097,-1.085,-1.0775,-1.0594,-1.0331,-1.0148,-0.9997,-0.9954,-0.9884,-0.9884,-0.9884,-0.9884,-0.982,-0.9662,-0.9491,-0.9317,-2.5335,-2.5287,-2.4927,-2.4424,-2.3862,-2.3074,-2.2392,-2.1866,-2.1418,-2.1201,-2.1201,-2.1201,-2.1201,-2.1201,-2.1201,-2.138,-2.1639,-2.1348,-2.1201,-2.1201,-2.1201,-2.1201,-2.1169,-2.1063,-2.0658,-1.9974,-1.9577,-1.8973,-1.8322,-1.8041,-1.7947,-1.7968,-1.8382,-1.8631,-1.8694,-1.8953,-1.8965,-1.8751,-1.8573,-1.8355,-1.8067,-1.787,-1.7607,-1.7227,-1.7063,-1.7063,-1.7148,-1.6748,-1.6592,-1.6658,-1.656,-1.6904,-1.7773,-1.873,-1.9424,-1.9727,-2.0053,-2.0186,-1.9942,-1.9715,-1.939,-1.8926,-1.8856,-1.8816,-1.8554,-1.8693,-1.8538,-1.8287,-1.8597,-1.8723,-1.8628,-1.9734,-2.0484,-1.994,-1.984,-1.9567,-1.8918,-1.8722,-1.8153,-1.7182,-1.6219,-1.5578,-1.5394,-1.5436,-1.5477,-1.5394,-1.5394,-1.5352,-1.4929,-1.4455,-1.3781,-1.3305,-1.2719,-1.2194,-1.1914,-1.2113,-1.2202,-1.157,-1.1406,-1.1097,-1.0931,-1.085,-1.0738,-1.0481,-1.0255,-1.0105,-0.9992,-0.9922,-0.9884,-0.9884,-0.9852,-0.982,-0.9583,-0.933,-0.9114,-2.4225,-2.4298,-2.4225,-2.3963,-2.3444,-2.2983,-2.242,-2.188,-2.1431,-2.1259,-2.1213,-2.1201,-2.1201,-2.1201,-2.1201,-2.1233,-2.1253,-2.1233,-2.1201,-2.1201,-2.1201,-2.1201,-2.1126,-2.0839,-2.0463,-1.9976,-1.8987,-1.8477,-1.8456,-1.8424,-1.8424,-1.8507,-1.8839,-1.9015,-1.9077,-1.9054,-1.8908,-1.8617,-1.8516,-1.8158,-1.7517,-1.7484,-1.7236,-1.6755,-1.6416,-1.6387,-1.6687,-1.6318,-1.6289,-1.657,-1.6416,-1.6943,-1.8437,-1.915,-1.9725,-2.0294,-2.0401,-2.0147,-1.9863,-1.9597,-1.8984,-1.8198,-1.7997,-1.7674,-1.7188,-1.7017,-1.6959,-1.6899,-1.7323,-1.7648,-1.7699,-1.8247,-1.8788,-1.8788,-1.8788,-1.8742,-1.8548,-1.8379,-1.7773,-1.6597,-1.5584,-1.5367,-1.5304,-1.5095,-1.497,-1.5012,-1.5054,-1.4803,-1.4174,-1.388,-1.3419,-1.2655,-1.2195,-1.1866,-1.1537,-1.1317,-1.1252,-1.1129,-1.1148,-1.108,-1.1037,-1.0962,-1.085,-1.0625,-1.0406,-1.0255,-1.0067,-0.9997,-0.9916,-0.9911,-0.9868,-0.9766,-0.947,-0.92,-0.8974,-2.4189,-2.4189,-2.4189,-2.3902,-2.3419,-2.3235,-2.2697,-2.1917,-2.1743,-2.1502,-2.1247,-2.1201,-2.1201,-2.1201,-2.1201,-2.1201,-2.1201,-2.1201,-2.1201,-2.1201,-2.1201,-2.1031,-2.0796,-2.0635,-2.0313,-1.9737,-1.9161,-1.888,-1.887,-1.887,-1.8891,-1.8932,-1.9025,-1.9098,-1.9108,-1.8942,-1.8751,-1.8516,-1.8405,-1.8156,-1.7793,-1.7529,-1.7178,-1.6746,-1.656,-1.6475,-1.631,-1.6163,-1.6163,-1.6318,-1.7002,-1.8047,-1.9277,-1.9932,-2.0245,-2.0333,-2.0147,-1.9618,-1.8877,-1.8607,-1.8078,-1.731,-1.7107,-1.6984,-1.6739,-1.6657,-1.637,-1.5986,-1.6352,-1.6529,-1.6106,-1.6388,-1.7026,-1.7684,-1.7738,-1.7475,-1.6854,-1.6123,-1.5332,-1.4767,-1.4015,-1.3603,-1.3584,-1.3584,-1.3711,-1.3669,-1.3669,-1.3457,-1.3252,-1.3209,-1.2877,-1.2131,-1.195,-1.1751,-1.1413,-1.1226,-1.1172,-1.1117,-1.1117,-1.1117,-1.1074,-1.1037,-1.0925,-1.0775,-1.055,-1.0363,-1.018,-1.0105,-1.0067,-0.9981,-0.9916,-0.9684,-0.9319,-0.9082,-0.8894,-2.4189,-2.4189,-2.4189,-2.4016,-2.3671,-2.3499,-2.2937,-2.2237,-2.1963,-2.164,-2.127,-2.1201,-2.1201,-2.1201,-2.1201,-2.1106,-2.0999,-2.0955,-2.0903,-2.0828,-2.0924,-2.0775,-2.0442,-2.028,-1.9966,-1.9473,-1.9208,-1.9098,-1.9098,-1.9098,-1.9098,-1.9098,-1.9098,-1.9098,-1.9075,-1.8908,-1.8717,-1.8516,-1.8381,-1.8133,-1.7797,-1.7519,-1.7178,-1.6775,-1.6697,-1.656,-1.6328,-1.6496,-1.6584,-1.6809,-1.7793,-1.8936,-1.9853,-2.0293,-2.0362,-1.9854,-1.9529,-1.8966,-1.7971,-1.7626,-1.7139,-1.6412,-1.6206,-1.6,-1.5842,-1.5718,-1.5436,-1.5105,-1.5354,-1.5395,-1.5041,-1.5256,-1.5809,-1.6338,-1.6522,-1.6202,-1.5417,-1.4618,-1.4065,-1.3734,-1.3145,-1.2765,-1.2705,-1.2705,-1.2705,-1.2705,-1.2705,-1.2705,-1.2705,-1.2741,-1.2391,-1.2107,-1.191,-1.1655,-1.1232,-1.1123,-1.1123,-1.1117,-1.1117,-1.1117,-1.1074,-1.1074,-1.0999,-1.085,-1.0663,-1.0513,-1.0368,-1.0331,-1.0288,-1.0158,-1.0013,-0.9717,-0.9422,-0.9127,-0.8894,-2.4189,-2.4189,-2.4189,-2.4189,-2.4097,-2.3671,-2.3189,-2.2685,-2.2214,-2.1732,-2.1362,-2.1236,-2.1201,-2.1201,-2.1201,-2.0999,-2.0667,-2.0635,-2.0442,-2.0269,-2.0345,-2.0345,-2.0074,-1.9791,-1.9473,-1.9164,-1.9098,-1.9098,-1.9098,-1.9098,-1.9098,-1.9098,-1.9098,-1.9098,-1.9065,-1.8865,-1.8684,-1.8516,-1.8337,-1.799,-1.7553,-1.7435,-1.7217,-1.6794,-1.6785,-1.6775,-1.6794,-1.7022,-1.7327,-1.7588,-1.8584,-1.9348,-1.978,-2.0245,-1.9962,-1.8957,-1.8638,-1.7948,-1.7172,-1.6731,-1.6239,-1.5477,-1.5311,-1.5026,-1.4503,-1.4454,-1.4412,-1.4271,-1.4505,-1.4593,-1.4603,-1.4856,-1.5093,-1.5035,-1.5393,-1.5221,-1.4599,-1.4112,-1.3772,-1.342,-1.3009,-1.2705,-1.2705,-1.2705,-1.2705,-1.2705,-1.2705,-1.2705,-1.2705,-1.2638,-1.2427,-1.2192,-1.191,-1.1585,-1.1226,-1.1117,-1.1117,-1.1117,-1.1117,-1.1117,-1.1117,-1.1074,-1.1074,-1.0925,-1.0812,-1.07,-1.0588,-1.055,-1.0475,-1.0357,-1.0131,-0.9832,-0.955,-0.9258,-0.8949,-2.4189,-2.4189,-2.4189,-2.4189,-2.4189,-2.4039,-2.3659,-2.3178,-2.2685,-2.2157,-2.1732,-2.1351,-2.1201,-2.1201,-2.1169,-2.0999,-2.0571,-2.0506,-2.0259,-1.9802,-1.9802,-1.9835,-1.9693,-1.9396,-1.9198,-1.9098,-1.9098,-1.9098,-1.9098,-1.9065,-1.9065,-1.9098,-1.8998,-1.9065,-1.9065,-1.8707,-1.8583,-1.8482,-1.8212,-1.7959,-1.7789,-1.7463,-1.7344,-1.7246,-1.7174,-1.7142,-1.7181,-1.7087,-1.7476,-1.8295,-1.8906,-1.9178,-1.9041,-1.9268,-1.8957,-1.7948,-1.7528,-1.6968,-1.6083,-1.5752,-1.5311,-1.458,-1.4538,-1.437,-1.4173,-1.4088,-1.4088,-1.4135,-1.4342,-1.4509,-1.4563,-1.477,-1.4881,-1.4716,-1.4877,-1.4859,-1.434,-1.398,-1.3653,-1.3242,-1.2881,-1.2747,-1.2705,-1.2705,-1.2705,-1.2705,-1.2705,-1.2705,-1.2705,-1.2632,-1.2457,-1.2137,-1.1866,-1.1576,-1.1317,-1.1184,-1.1117,-1.1117,-1.1117,-1.1117,-1.1117,-1.1117,-1.1074,-1.1037,-1.0962,-1.0887,-1.0775,-1.0738,-1.0625,-1.0588,-1.0399,-1.0132,-0.9734,-0.9377,-0.91,-2.4189,-2.4189,-2.4189,-2.4189,-2.4189,-2.4189,-2.3877,-2.3373,-2.2903,-2.2398,-2.1893,-2.1408,-2.1031,-2.0752,-2.0645,-2.0226,-1.9628,-1.954,-1.9177,-1.8764,-1.863,-1.8898,-1.9198,-1.9175,-1.9098,-1.9098,-1.9098,-1.8931,-1.8808,-1.8774,-1.863,-1.8385,-1.8385,-1.8395,-1.8293,-1.7954,-1.7716,-1.7613,-1.7295,-1.7019,-1.6991,-1.6831,-1.6705,-1.6677,-1.6677,-1.6677,-1.6646,-1.6502,-1.681,-1.7485,-1.8018,-1.831,-1.8374,-1.8378,-1.79,-1.6854,-1.656,-1.5992,-1.511,-1.4866,-1.4615,-1.4208,-1.4088,-1.4088,-1.4088,-1.4088,-1.4088,-1.4115,-1.4255,-1.4322,-1.4362,-1.4502,-1.4496,-1.4389,-1.4402,-1.4298,-1.4004,-1.3664,-1.3391,-1.3101,-1.2881,-1.2705,-1.2705,-1.2705,-1.2705,-1.2705,-1.2705,-1.2705,-1.2693,-1.2602,-1.2439,-1.2101,-1.1787,-1.1504,-1.1298,-1.116,-1.1117,-1.1117,-1.1117,-1.1117,-1.1117,-1.1117,-1.1117,-1.1074,-1.1117,-1.108,-1.0968,-1.0887,-1.0887,-1.0789,-1.0662,-1.0417,-1.0039,-0.9669,-0.9341,-2.397,-2.3886,-2.3886,-2.3886,-2.3765,-2.3838,-2.343,-2.3076,-2.2454,-2.1981,-2.1497,-2.1076,-2.0399,-1.9933,-1.9716,-1.9145,-1.8273,-1.8307,-1.7935,-1.7716,-1.7647,-1.8022,-1.8697,-1.8741,-1.8731,-1.8764,-1.8908,-1.8607,-1.8303,-1.8202,-1.7964,-1.7681,-1.751,-1.7442,-1.751,-1.6994,-1.6673,-1.6638,-1.6271,-1.5991,-1.5983,-1.5939,-1.5913,-1.5913,-1.5922,-1.5791,-1.5694,-1.5586,-1.5764,-1.6003,-1.6592,-1.7231,-1.7681,-1.7559,-1.6968,-1.6034,-1.5587,-1.5103,-1.4328,-1.4208,-1.4166,-1.4088,-1.4088,-1.4088,-1.4088,-1.4088,-1.4088,-1.4088,-1.4088,-1.4128,-1.4135,-1.4128,-1.4148,-1.4099,-1.391,-1.3708,-1.3603,-1.3307,-1.3094,-1.3052,-1.2833,-1.2747,-1.2705,-1.2705,-1.2705,-1.2705,-1.2705,-1.2705,-1.2638,-1.2524,-1.2312,-1.2011,-1.1682,-1.1443,-1.1268,-1.1117,-1.1117,-1.1117,-1.1117,-1.1117,-1.1117,-1.1117,-1.1117,-1.1117,-1.1117,-1.1117,-1.108,-1.1074,-1.1074,-1.1013,-1.0853,-1.0674,-1.0419,-1.0064,-0.9729,-2.2237,-2.1752,-2.1742,-2.1742,-2.1752,-2.179,-2.1728,-2.1561,-2.0808,-2.0508,-2.0142,-1.9466,-1.9067,-1.8877,-1.88,-1.8465,-1.8003,-1.7867,-1.7808,-1.7442,-1.7407,-1.7476,-1.775,-1.775,-1.7784,-1.7818,-1.7784,-1.7716,-1.7623,-1.7579,-1.752,-1.7382,-1.7235,-1.7373,-1.7235,-1.6707,-1.6603,-1.6499,-1.5956,-1.5604,-1.5525,-1.5525,-1.5561,-1.5561,-1.5569,-1.5349,-1.4931,-1.4816,-1.4846,-1.5185,-1.6002,-1.6611,-1.6373,-1.636,-1.5861,-1.5137,-1.465,-1.437,-1.4124,-1.4088,-1.4088,-1.4088,-1.4088,-1.4088,-1.4088,-1.4088,-1.4088,-1.4088,-1.4088,-1.4088,-1.4088,-1.4088,-1.4088,-1.4039,-1.3737,-1.3483,-1.3434,-1.3222,-1.3009,-1.2833,-1.2741,-1.2705,-1.2705,-1.2705,-1.2705,-1.2705,-1.2705,-1.2705,-1.2602,-1.2469,-1.2222,-1.1922,-1.1657,-1.1399,-1.1232,-1.1117,-1.1117,-1.1117,-1.1117,-1.1117,-1.1117,-1.1117,-1.1117,-1.1117,-1.1117,-1.1117,-1.1117,-1.1117,-1.1074,-1.1044,-1.1014,-1.0832,-1.064,-1.0335,-1.0169,-2.142,-2.1094,-2.1084,-2.1084,-2.1084,-2.1084,-2.1084,-2.0923,-2.0195,-1.9813,-1.9621,-1.8885,-1.8321,-1.7993,-1.7857,-1.7594,-1.7182,-1.6985,-1.6855,-1.6621,-1.6621,-1.6621,-1.6656,-1.6726,-1.683,-1.727,-1.7407,-1.727,-1.7097,-1.6994,-1.6855,-1.6656,-1.6656,-1.6438,-1.6324,-1.5939,-1.5542,-1.5294,-1.4939,-1.4653,-1.4653,-1.4661,-1.4653,-1.4689,-1.4653,-1.4438,-1.4122,-1.4262,-1.4381,-1.4703,-1.5334,-1.5755,-1.5445,-1.5325,-1.4963,-1.4524,-1.4243,-1.413,-1.4088,-1.4088,-1.4088,-1.4088,-1.4088,-1.4088,-1.4088,-1.4088,-1.4088,-1.4088,-1.4088,-1.4088,-1.4088,-1.4088,-1.4088,-1.4039,-1.3737,-1.3519,-1.3434,-1.3179,-1.2881,-1.2747,-1.2705,-1.2705,-1.2705,-1.2705,-1.2705,-1.2705,-1.2705,-1.2699,-1.2632,-1.2481,-1.2222,-1.1962,-1.1657,-1.1411,-1.122,-1.1117,-1.1117,-1.1117,-1.1117,-1.1117,-1.1117,-1.1117,-1.1117,-1.1117,-1.1117,-1.1117,-1.1117,-1.1117,-1.1117,-1.1099,-1.1032,-1.0935,-1.0819,-1.0644,-1.0541,-2.071,-2.0633,-2.0633,-2.0633,-2.0643,-2.0556,-2.0478,-2.0438,-1.9797,-1.9187,-1.9216,-1.8488,-1.7646,-1.7217,-1.6975,-1.6533,-1.6202,-1.6,-1.6008,-1.5973,-1.5973,-1.5973,-1.5973,-1.6044,-1.6281,-1.7107,-1.7038,-1.6795,-1.6542,-1.6473,-1.6307,-1.5903,-1.5841,-1.5859,-1.539,-1.4848,-1.4669,-1.4446,-1.4029,-1.3702,-1.3666,-1.3674,-1.3666,-1.3702,-1.3702,-1.3762,-1.3778,-1.3948,-1.4181,-1.4484,-1.4554,-1.4719,-1.4789,-1.4657,-1.4363,-1.4363,-1.4208,-1.413,-1.4088,-1.4088,-1.4088,-1.4088,-1.4088,-1.4088,-1.4088,-1.4088,-1.4088,-1.4088,-1.4088,-1.3997,-1.3913,-1.3779,-1.3695,-1.3519,-1.3343,-1.3258,-1.3088,-1.2699,-1.2357,-1.279,-1.2747,-1.2705,-1.2705,-1.2705,-1.2705,-1.2656,-1.2656,-1.2638,-1.2572,-1.2445,-1.2168,-1.1884,-1.1567,-1.1357,-1.1172,-1.1117,-1.1117,-1.1117,-1.1117,-1.1117,-1.1117,-1.1117,-1.1117,-1.1117,-1.1117,-1.1117,-1.1117,-1.1117,-1.1117,-1.1117,-1.1099,-1.1026,-1.0963,-1.0919,-1.0846,-1.9015,-1.8496,-1.8496,-1.8496,-1.8536,-1.8536,-1.8647,-1.8466,-1.8228,-1.7702,-1.7404,-1.6979,-1.6608,-1.621,-1.6079,-1.5938,-1.5867,-1.5805,-1.5805,-1.5805,-1.5805,-1.5805,-1.5805,-1.5805,-1.5973,-1.6008,-1.6149,-1.6114,-1.6008,-1.5903,-1.5938,-1.5841,-1.5805,-1.5735,-1.5434,-1.4999,-1.4561,-1.431,-1.3819,-1.3528,-1.3492,-1.3528,-1.3543,-1.355,-1.3579,-1.3704,-1.3865,-1.3982,-1.4176,-1.4507,-1.4405,-1.4413,-1.4497,-1.4433,-1.4321,-1.4208,-1.4124,-1.4088,-1.4088,-1.4088,-1.4088,-1.4088,-1.4088,-1.4088,-1.4088,-1.4088,-1.4046,-1.3955,-1.387,-1.3737,-1.3003,-1.2918,-1.2437,-1.1918,-1.166,-1.1488,-1.1182,-1.1101,-1.1499,-1.2357,-1.2528,-1.2485,-1.2223,-1.2095,-1.2052,-1.2095,-1.2229,-1.2268,-1.2288,-1.2177,-1.2035,-1.1757,-1.1479,-1.1298,-1.1117,-1.1117,-1.1117,-1.1117,-1.1117,-1.1117,-1.1117,-1.1117,-1.1117,-1.1117,-1.1117,-1.1117,-1.1117,-1.1117,-1.1117,-1.1117,-1.1117,-1.1117,-1.1074,-1.0999,-1.1037,-1.8322,-1.7991,-1.7991,-1.7991,-1.7991,-1.7991,-1.7991,-1.798,-1.7638,-1.7261,-1.6893,-1.6553,-1.6184,-1.5882,-1.5805,-1.5805,-1.5805,-1.5805,-1.5805,-1.5805,-1.5805,-1.5805,-1.5805,-1.5805,-1.5805,-1.5805,-1.5805,-1.5805,-1.5805,-1.5805,-1.5805,-1.5805,-1.5805,-1.5691,-1.539,-1.4883,-1.4525,-1.4281,-1.3811,-1.3492,-1.3521,-1.3631,-1.374,-1.377,-1.3901,-1.4122,-1.4247,-1.4428,-1.4493,-1.4581,-1.4563,-1.4504,-1.4392,-1.4279,-1.4208,-1.4082,-1.4088,-1.4088,-1.4088,-1.4088,-1.4088,-1.4088,-1.4088,-1.4088,-1.4088,-1.4088,-1.3828,-1.3398,-1.279,-1.2485,-1.2015,-1.1972,-1.1617,-1.1182,-1.0923,-1.0702,-1.0486,-1.0323,-1.0799,-1.1488,-1.1182,-1.0961,-1.109,-1.1047,-1.1182,-1.1445,-1.1709,-1.1818,-1.1824,-1.1739,-1.1606,-1.1468,-1.1174,-1.1169,-1.1043,-1.1117,-1.1117,-1.1117,-1.1117,-1.1117,-1.1117,-1.1117,-1.1117,-1.1117,-1.1117,-1.1117,-1.1117,-1.1117,-1.1117,-1.1117,-1.1117,-1.1117,-1.1117,-1.1117,-1.1117,-1.7991,-1.7991,-1.7991,-1.7991,-1.7991,-1.7991,-1.7991,-1.7971,-1.7732,-1.7338,-1.691,-1.6593,-1.6225,-1.5899,-1.5805,-1.5805,-1.5805,-1.5805,-1.5805,-1.5805,-1.5805,-1.5805,-1.5805,-1.5805,-1.5805,-1.5805,-1.5805,-1.5805,-1.5805,-1.5805,-1.5805,-1.5805,-1.5805,-1.562,-1.5204,-1.4812,-1.4461,-1.4101,-1.3702,-1.3492,-1.3572,-1.3799,-1.4027,-1.4056,-1.4304,-1.4511,-1.4575,-1.4743,-1.471,-1.4671,-1.4628,-1.4475,-1.4146,-1.4075,-1.3913,-1.3659,-1.387,-1.4088,-1.4088,-1.4088,-1.3997,-1.3695,-1.3779,-1.3695,-1.344,-1.3179,-1.3094,-1.2443,-1.1886,-1.1327,-1.1111,-1.0977,-1.0669,-1.0318,-1.0183,-1.0183,-0.9705,-0.9444,-0.9274,-0.9579,-0.9449,-0.9705,-1.0053,-1.0351,-1.0529,-1.0577,-1.088,-1.0846,-1.0884,-1.1006,-1.0967,-1.0996,-1.0939,-1.0958,-1.0962,-1.1117,-1.1117,-1.1117,-1.1117,-1.1117,-1.1117,-1.1117,-1.1117,-1.1117,-1.1117,-1.1117,-1.1117,-1.1117,-1.1117,-1.1117,-1.1117,-1.1117,-1.1117,-1.1117,-1.1117,-1.7991,-1.7991,-1.7991,-1.7991,-1.7991,-1.7991,-1.7991,-1.7983,-1.7923,-1.756,-1.6918,-1.6841,-1.6439,-1.5934,-1.5805,-1.5805,-1.5805,-1.5805,-1.5805,-1.5805,-1.5805,-1.5805,-1.5805,-1.5805,-1.5805,-1.5805,-1.5805,-1.5805,-1.577,-1.577,-1.5805,-1.5805,-1.5735,-1.562,-1.5204,-1.4748,-1.4418,-1.4093,-1.371,-1.3514,-1.3579,-1.3857,-1.4026,-1.4128,-1.4355,-1.4655,-1.4812,-1.4863,-1.4746,-1.4636,-1.4608,-1.4062,-1.33,-1.3695,-1.3003,-1.2656,-1.296,-1.4088,-1.3913,-1.3786,-1.3476,-1.3003,-1.2875,-1.2406,-1.2143,-1.1843,-1.1714,-1.1542,-1.1241,-1.0761,-1.0159,-0.9889,-0.9323,-0.8851,-0.8679,-0.8321,-0.7925,-0.8488,-0.836,-0.8185,-0.8229,-0.8882,-0.9405,-0.9705,-0.9923,-0.9966,-0.9942,-0.9919,-0.9947,-1.0034,-1.0174,-1.0169,-1.0166,-1.0235,-1.0288,-1.0475,-1.0738,-1.085,-1.0931,-1.0968,-1.1117,-1.1117,-1.1117,-1.1117,-1.1117,-1.1117,-1.1117,-1.1117,-1.1117,-1.1117,-1.1117,-1.1117,-1.1117,-1.1117,-1.1117,-1.7991,-1.7991,-1.7991,-1.7991,-1.7991,-1.7991,-1.7991,-1.7991,-1.7983,-1.7572,-1.7021,-1.6918,-1.6499,-1.5917,-1.5805,-1.5805,-1.5805,-1.5805,-1.5805,-1.5805,-1.5805,-1.5805,-1.5805,-1.5805,-1.5805,-1.5805,-1.577,-1.5611,-1.5611,-1.5691,-1.5805,-1.5735,-1.5584,-1.539,-1.5054,-1.4597,-1.431,-1.4082,-1.3903,-1.3807,-1.3901,-1.4223,-1.4516,-1.4531,-1.4783,-1.4995,-1.4989,-1.4751,-1.4545,-1.4265,-1.3844,-1.3075,-1.2485,-1.24,-1.2057,-1.1623,-1.1972,-1.2443,-1.2491,-1.2534,-1.232,-1.2057,-1.1886,-1.1752,-1.1278,-1.0804,-1.0506,-1.0506,-1.0038,-0.9559,-0.9161,-0.8851,-0.8416,-0.794,-0.7724,-0.7499,-0.7231,-0.7231,-0.7404,-0.7228,-0.7183,-0.7925,-0.8492,-0.8532,-0.8619,-0.8619,-0.8787,-0.894,-0.8962,-0.9039,-0.9154,-0.9244,-0.9294,-0.9311,-0.9344,-0.9496,-0.9873,-1.0067,-1.0331,-1.0481,-1.1005,-1.1117,-1.1117,-1.1117,-1.1117,-1.1117,-1.1117,-1.1117,-1.1117,-1.1117,-1.1117,-1.1117,-1.1117,-1.1117,-1.1117,-1.7991,-1.7991,-1.7991,-1.7991,-1.7991,-1.7991,-1.7991,-1.7991,-1.7991,-1.7581,-1.7013,-1.6704,-1.6285,-1.5925,-1.5805,-1.5805,-1.5805,-1.5805,-1.5805,-1.5805,-1.5805,-1.5805,-1.5805,-1.5805,-1.5805,-1.5805,-1.5805,-1.5611,-1.5426,-1.5461,-1.5541,-1.5513,-1.5177,-1.4991,-1.4776,-1.4433,-1.4095,-1.4065,-1.3992,-1.4027,-1.4172,-1.4579,-1.4678,-1.4763,-1.4923,-1.5082,-1.4838,-1.4433,-1.4048,-1.3451,-1.2905,-1.2223,-1.1537,-1.1494,-1.1111,-1.0722,-1.0809,-1.089,-1.0982,-1.1068,-1.1111,-1.0982,-1.0679,-1.0467,-1.0419,-0.9903,-0.9602,-0.9602,-0.9078,-0.86,-0.8248,-0.8157,-0.7896,-0.768,-0.7459,-0.7279,-0.7187,-0.7187,-0.7187,-0.7139,-0.7095,-0.7095,-0.7445,-0.7316,-0.7272,-0.7316,-0.7512,-0.7881,-0.8023,-0.8076,-0.8194,-0.8284,-0.8399,-0.8546,-0.8851,-0.8927,-0.9198,-0.9349,-0.9614,-0.9997,-1.0443,-1.0931,-1.1117,-1.1117,-1.0962,-1.1117,-1.1117,-1.1117,-1.1117,-1.1117,-1.1117,-1.1117,-1.1117,-1.1117,-1.1117,-1.7991,-1.7991,-1.8,-1.7991,-1.7991,-1.7991,-1.7991,-1.7991,-1.7983,-1.7538,-1.6824,-1.6259,-1.5934,-1.5814,-1.5805,-1.5805,-1.5805,-1.5805,-1.5805,-1.5805,-1.5805,-1.5805,-1.5805,-1.5805,-1.5805,-1.5805,-1.5726,-1.5505,-1.5204,-1.4947,-1.4919,-1.4705,-1.4633,-1.4453,-1.4274,-1.4029,-1.3903,-1.3844,-1.3807,-1.4002,-1.424,-1.4532,-1.4517,-1.4158,-1.4227,-1.4188,-1.361,-1.3519,-1.3209,-1.2607,-1.2137,-1.1408,-1.0593,-1.0674,-1.0294,-0.965,-0.9733,-0.9689,-0.9559,-1.0164,-1.0593,-1.0033,-0.9476,-0.9174,-0.9262,-0.8959,-0.8744,-0.8784,-0.8468,-0.8288,-0.8069,-0.7852,-0.7635,-0.7459,-0.7323,-0.7231,-0.7139,-0.7139,-0.7139,-0.7095,-0.7095,-0.7095,-0.7095,-0.7095,-0.7095,-0.7183,-0.705,-0.7375,-0.7134,-0.7147,-0.7231,-0.7369,-0.7522,-0.7863,-0.847,-0.8585,-0.8394,-0.8627,-0.897,-0.9387,-0.9884,-1.0293,-1.055,-1.0625,-1.0432,-1.0775,-1.1005,-1.0812,-1.0738,-1.1005,-1.1117,-1.1117,-1.1117,-1.1117,-1.1117,-1.7188,-1.7221,-1.7221,-1.7505,-1.7991,-1.7991,-1.7991,-1.7948,-1.7783,-1.7269,-1.6587,-1.6045,-1.5805,-1.5805,-1.5805,-1.5805,-1.5805,-1.5805,-1.577,-1.5805,-1.5805,-1.5805,-1.5805,-1.5735,-1.5805,-1.5655,-1.5541,-1.5213,-1.4848,-1.433,-1.3753,-1.3615,-1.3912,-1.4201,-1.4057,-1.3506,-1.3326,-1.3348,-1.3256,-1.3239,-1.3501,-1.3817,-1.386,-1.3671,-1.3668,-1.3682,-1.3392,-1.2966,-1.2491,-1.1929,-1.1241,-1.0419,-0.9685,-0.9816,-0.9388,-0.8744,-0.9043,-0.8915,-0.874,-0.9305,-0.9384,-0.9257,-0.8784,-0.8616,-0.8616,-0.8568,-0.8476,-0.8384,-0.8248,-0.8069,-0.7764,-0.7591,-0.7459,-0.7323,-0.7187,-0.7139,-0.7095,-0.7095,-0.7095,-0.7095,-0.7095,-0.7095,-0.7095,-0.7095,-0.7095,-0.7129,-0.6933,-0.6827,-0.6658,-0.6481,-0.6645,-0.676,-0.6911,-0.6911,-0.7484,-0.7518,-0.7442,-0.7863,-0.8322,-0.8703,-0.9084,-0.9198,-0.942,-0.9604,-0.9755,-0.9798,-0.9911,-1.0137,-1.0363,-1.0588,-1.0887,-1.1117,-1.1117,-1.1043,-1.1117,-1.6689,-1.6689,-1.6689,-1.7057,-1.7595,-1.7757,-1.7838,-1.7762,-1.7607,-1.7085,-1.6373,-1.6021,-1.5655,-1.5505,-1.5426,-1.5213,-1.5034,-1.4999,-1.507,-1.5034,-1.4963,-1.5106,-1.5106,-1.4991,-1.4776,-1.4955,-1.4697,-1.4258,-1.3781,-1.323,-1.2799,-1.2732,-1.2952,-1.3215,-1.3163,-1.2894,-1.2572,-1.2743,-1.2765,-1.2766,-1.3093,-1.3306,-1.3245,-1.316,-1.3088,-1.2747,-1.2406,-1.1935,-1.1456,-1.0857,-1.025,-0.9602,-0.9174,-0.8828,-0.8656,-0.8616,-0.8616,-0.8616,-0.8616,-0.8612,-0.8612,-0.87,-0.8656,-0.8616,-0.8612,-0.8524,-0.834,-0.8248,-0.8113,-0.7852,-0.7507,-0.7415,-0.7323,-0.7143,-0.7143,-0.7095,-0.7095,-0.7095,-0.7095,-0.7095,-0.7095,-0.7095,-0.7095,-0.7095,-0.7095,-0.7045,-0.6909,-0.6787,-0.6685,-0.6498,-0.6383,-0.6412,-0.6451,-0.6412,-0.6374,-0.6686,-0.6961,-0.7099,-0.7561,-0.7902,-0.8208,-0.8322,-0.8627,-0.9041,-0.9079,-0.878,-0.8932,-0.9344,-0.976,-1.0132,-1.04,-1.0588,-1.0743,-1.0706,-1.1043,-1.6648,-1.6689,-1.6656,-1.6697,-1.6771,-1.7237,-1.7383,-1.7357,-1.7299,-1.6894,-1.622,-1.5827,-1.5284,-1.4788,-1.4681,-1.4358,-1.389,-1.3753,-1.3753,-1.3789,-1.3897,-1.3709,-1.3644,-1.3644,-1.3745,-1.3302,-1.323,-1.3047,-1.2565,-1.2308,-1.2027,-1.1845,-1.1933,-1.2026,-1.1825,-1.2018,-1.2247,-1.2481,-1.2685,-1.2806,-1.2982,-1.3033,-1.279,-1.2497,-1.232,-1.1886,-1.137,-1.1025,-1.0554,-0.9864,-0.965,-0.9218,-0.874,-0.87,-0.8616,-0.8616,-0.8616,-0.8616,-0.8616,-0.8616,-0.8616,-0.8616,-0.8616,-0.8568,-0.8524,-0.8384,-0.8204,-0.8069,-0.7808,-0.7591,-0.7415,-0.7279,-0.7187,-0.7095,-0.7095,-0.7095,-0.7095,-0.7095,-0.7095,-0.7095,-0.7095,-0.7095,-0.7095,-0.7095,-0.7095,-0.7007,-0.6854,-0.6736,-0.6675,-0.6536,-0.6381,-0.6381,-0.6392,-0.639,-0.6393,-0.6344,-0.6472,-0.6574,-0.6795,-0.7215,-0.7561,-0.7791,-0.8093,-0.8475,-0.8284,-0.7902,-0.8246,-0.8665,-0.8851,-0.9036,-0.9647,-0.9916,-1.0143,-1.0255,-1.04,-1.5839,-1.5839,-1.5839,-1.5839,-1.5955,-1.6615,-1.6814,-1.6549,-1.6162,-1.5692,-1.5271,-1.5031,-1.4625,-1.4178,-1.3954,-1.3673,-1.3164,-1.3091,-1.3091,-1.3047,-1.3011,-1.3127,-1.3018,-1.2872,-1.2901,-1.2901,-1.2682,-1.2382,-1.2345,-1.1724,-1.1458,-1.1303,-1.1227,-1.1373,-1.1723,-1.1871,-1.1822,-1.1962,-1.1875,-1.1721,-1.1997,-1.2032,-1.1946,-1.1682,-1.1413,-1.102,-1.0549,-1.0332,-0.9864,-0.9345,-0.9262,-0.9047,-0.87,-0.8616,-0.8616,-0.8616,-0.8616,-0.8616,-0.8616,-0.8616,-0.8616,-0.8616,-0.8568,-0.8524,-0.8384,-0.8248,-0.8069,-0.7808,-0.7635,-0.7415,-0.7231,-0.7187,-0.7095,-0.7095,-0.7095,-0.7095,-0.7095,-0.7095,-0.7095,-0.7095,-0.7095,-0.7095,-0.7095,-0.7095,-0.7095,-0.7028,-0.6892,-0.678,-0.6712,-0.658,-0.6463,-0.6468,-0.6498,-0.6542,-0.6539,-0.6454,-0.6422,-0.6527,-0.651,-0.6567,-0.6872,-0.7231,-0.7184,-0.7342,-0.7223,-0.7099,-0.7369,-0.7599,-0.7595,-0.7821,-0.847,-0.9008,-0.9198,-0.9231,-0.9231,-1.5389,-1.5389,-1.5166,-1.5215,-1.5506,-1.6162,-1.6314,-1.5936,-1.5433,-1.4959,-1.466,-1.4605,-1.4086,-1.36,-1.3455,-1.2828,-1.2204,-1.2321,-1.2137,-1.2131,-1.2057,-1.1946,-1.199,-1.2057,-1.1761,-1.1872,-1.1687,-1.1391,-1.1316,-1.0812,-1.0688,-1.0784,-1.0831,-1.1111,-1.1456,-1.1439,-1.1385,-1.1466,-1.1363,-1.1325,-1.1359,-1.1257,-1.1127,-1.0949,-1.0727,-1.0289,-1.012,-0.9864,-0.9563,-0.9213,-0.9043,-0.8915,-0.87,-0.8616,-0.8616,-0.8616,-0.8616,-0.8616,-0.8616,-0.8616,-0.8616,-0.8616,-0.8524,-0.8384,-0.8204,-0.8028,-0.7808,-0.7591,-0.7459,-0.7323,-0.7143,-0.7095,-0.7095,-0.7095,-0.7095,-0.7095,-0.7095,-0.7095,-0.7095,-0.7095,-0.7095,-0.7095,-0.7095,-0.7095,-0.7095,-0.7001,-0.6939,-0.6851,-0.6766,-0.6647,-0.6552,-0.659,-0.662,-0.6647,-0.6647,-0.66,-0.6536,-0.6521,-0.6467,-0.6409,-0.6412,-0.6733,-0.6486,-0.6317,-0.6549,-0.6659,-0.6454,-0.649,-0.6821,-0.7045,-0.7369,-0.7825,-0.8208,-0.836,-0.8437,-1.5318,-1.5269,-1.4636,-1.4706,-1.5289,-1.5565,-1.5671,-1.5481,-1.5119,-1.4707,-1.4425,-1.4238,-1.3535,-1.2776,-1.3062,-1.2278,-1.1031,-1.1217,-1.1031,-1.0775,-1.0807,-1.07,-1.0625,-1.055,-1.0663,-1.04,-1.0255,-1.0438,-1.0035,-1.0253,-1.0341,-1.0491,-1.0892,-1.1078,-1.1169,-1.1186,-1.1188,-1.1227,-1.124,-1.1203,-1.1127,-1.0862,-1.0727,-1.0511,-1.0207,-0.982,-0.9563,-0.9349,-0.9043,-0.8828,-0.8656,-0.8616,-0.8616,-0.8616,-0.8616,-0.8616,-0.8616,-0.8616,-0.8616,-0.8616,-0.8524,-0.8476,-0.8248,-0.8201,-0.8072,-0.7852,-0.7591,-0.7411,-0.7279,-0.7187,-0.7095,-0.7095,-0.7095,-0.7095,-0.7095,-0.7095,-0.7095,-0.7095,-0.7095,-0.7095,-0.7095,-0.7095,-0.7095,-0.7095,-0.7095,-0.7055,-0.6984,-0.6947,-0.6898,-0.6793,-0.6719,-0.6719,-0.6742,-0.6746,-0.6739,-0.6746,-0.6698,-0.6651,-0.6614,-0.6556,-0.6504,-0.6429,-0.6463,-0.6457,-0.6371,-0.6358,-0.6426,-0.6416,-0.6414,-0.6642,-0.6924,-0.6987,-0.7459,-0.7838,-0.8016,-1.4245,-1.4085,-1.362,-1.3416,-1.346,-1.3371,-1.3285,-1.3178,-1.2845,-1.2617,-1.2512,-1.2549,-1.2218,-1.1372,-1.1477,-1.0956,-1.0513,-1.0218,-1.0218,-1.0143,-1.0143,-1.0067,-1.0067,-1.003,-0.9997,-0.996,-0.9922,-0.9889,-1.0008,-1.0136,-1.0509,-1.0826,-1.1015,-1.116,-1.1177,-1.1193,-1.1182,-1.1193,-1.1225,-1.1068,-1.0906,-1.0636,-1.0419,-1.012,-0.9733,-0.9388,-0.9262,-0.8959,-0.874,-0.8656,-0.8616,-0.8616,-0.8616,-0.8616,-0.8616,-0.8616,-0.8616,-0.8616,-0.8568,-0.8432,-0.834,-0.8252,-0.7984,-0.7856,-0.7812,-0.7676,-0.7415,-0.7279,-0.7187,-0.7139,-0.7095,-0.7095,-0.7095,-0.7095,-0.7095,-0.7095,-0.7095,-0.7095,-0.7095,-0.7095,-0.7095,-0.7095,-0.7095,-0.7095,-0.7095,-0.7085,-0.7065,-0.7034,-0.6987,-0.6926,-0.6875,-0.6829,-0.6852,-0.6912,-0.6929,-0.6936,-0.6875,-0.682,-0.6783,-0.6729,-0.6627,-0.6573,-0.6593,-0.6566,-0.6538,-0.6562,-0.659,-0.6549,-0.6481,-0.6549,-0.6787,-0.6687,-0.6734,-0.7192,-0.7367,-1.3959,-1.3536,-1.3006,-1.2434,-1.1836,-1.1821,-1.1692,-1.1379,-1.1552,-1.1706,-1.1706,-1.1744,-1.1372,-1.0962,-1.1074,-1.0812,-0.9992,-1.0255,-1.0255,-0.996,-0.9884,-0.9922,-0.9884,-0.9884,-0.9922,-0.9884,-0.9884,-0.9884,-0.9997,-1.0238,-1.06,-1.081,-1.1085,-1.1203,-1.1262,-1.1284,-1.1295,-1.1203,-1.1079,-1.0862,-1.0641,-1.0289,-0.9951,-0.9694,-0.9262,-0.9087,-0.8999,-0.87,-0.8612,-0.8616,-0.8616,-0.8616,-0.8616,-0.8616,-0.8616,-0.8616,-0.8616,-0.8524,-0.8432,-0.8292,-0.8157,-0.8025,-0.7724,-0.7639,-0.7547,-0.7459,-0.7279,-0.7143,-0.7139,-0.7095,-0.7095,-0.7095,-0.7095,-0.7095,-0.7095,-0.7095,-0.7095,-0.7095,-0.7095,-0.7095,-0.7095,-0.7095,-0.7095,-0.7095,-0.7095,-0.7092,-0.7088,-0.7078,-0.7058,-0.7011,-0.6974,-0.697,-0.7011,-0.7045,-0.7048,-0.7018,-0.6947,-0.69,-0.691,-0.6885,-0.6783,-0.6742,-0.6746,-0.6719,-0.6675,-0.6698,-0.6712,-0.6688,-0.6654,-0.6719,-0.6736,-0.6706,-0.6653,-0.6753,-0.6812,-1.3853,-1.3257,-1.2588,-1.1494,-1.0472,-1.0927,-1.073,-1.0084,-1.1043,-1.1521,-1.1484,-1.1515,-1.1149,-1.07,-1.0925,-1.07,-1.0218,-1.0255,-1.0218,-0.9884,-0.9884,-0.9884,-0.9884,-0.9884,-0.9884,-0.9884,-0.9895,-0.9916,-1.0035,-1.0283,-1.0552,-1.063,-1.095,-1.1176,-1.1284,-1.117,-1.1089,-1.1041,-1.0689,-1.0337,-1.0294,-0.9864,-0.9305,-0.9174,-0.8915,-0.8656,-0.8656,-0.8616,-0.8616,-0.8616,-0.8616,-0.8616,-0.8616,-0.8616,-0.8616,-0.8568,-0.8568,-0.8432,-0.8248,-0.8113,-0.7984,-0.7812,-0.7635,-0.7503,-0.737,-0.7323,-0.7187,-0.7139,-0.7095,-0.7095,-0.7095,-0.7095,-0.7095,-0.7095,-0.7095,-0.7095,-0.7095,-0.7095,-0.7095,-0.7095,-0.7095,-0.7095,-0.7095,-0.7095,-0.7095,-0.7095,-0.7095,-0.7095,-0.7088,-0.7075,-0.7071,-0.7065,-0.7082,-0.7095,-0.7088,-0.7055,-0.7018,-0.6997,-0.7014,-0.698,-0.6909,-0.6885,-0.6846,-0.6875,-0.6861,-0.6807,-0.6797,-0.681,-0.6831,-0.6827,-0.6827,-0.6773,-0.6732,-0.6719,-0.6647,-1.1794,-1.1418,-1.0772,-1.0275,-1.0051,-1.016,-1.0133,-0.9922,-1.018,-1.0406,-1.0331,-1.0368,-1.0331,-1.0293,-1.0368,-1.018,-1.0105,-1.011,-1.0035,-0.9922,-0.9884,-0.9884,-0.9884,-0.9884,-0.9884,-0.9884,-0.9906,-1.0035,-1.0186,-1.0412,-1.0659,-1.0891,-1.1053,-1.1166,-1.1208,-1.0997,-1.0776,-1.0733,-1.0255,-0.9994,-0.9994,-0.9907,-0.9607,-0.9047,-0.8616,-0.8616,-0.8616,-0.8616,-0.8616,-0.8616,-0.8616,-0.8616,-0.8616,-0.8616,-0.8616,-0.8568,-0.8432,-0.8248,-0.8072,-0.7804,-0.7588,-0.7499,-0.7367,-0.7231,-0.7187,-0.7139,-0.7095,-0.7095,-0.7095,-0.7095,-0.7095,-0.7095,-0.7095,-0.7095,-0.7095,-0.7095,-0.7095,-0.7095,-0.7095,-0.7095,-0.7095,-0.7095,-0.7095,-0.7095,-0.7095,-0.7095,-0.7095,-0.7095,-0.7095,-0.7088,-0.7085,-0.7082,-0.7085,-0.7095,-0.7095,-0.7088,-0.7051,-0.7048,-0.7061,-0.7024,-0.6977,-0.6974,-0.6967,-0.7007,-0.7007,-0.6937,-0.6916,-0.6987,-0.7034,-0.6983,-0.6966,-0.6893,-0.692,-0.6963,-0.6851,-1.1169,-1.0743,-1.0143,-0.9884,-0.9884,-0.9884,-0.9884,-0.9884,-0.9884,-0.9884,-0.9884,-0.9884,-0.9884,-0.9884,-0.9884,-0.9884,-0.9884,-0.9884,-0.9922,-0.9922,-0.9884,-0.9884,-0.9884,-0.9884,-0.9884,-0.9895,-1.0056,-1.0191,-1.0236,-1.0519,-1.0746,-1.0883,-1.0985,-1.0909,-1.0923,-1.0598,-1.0337,-1.0294,-0.9777,-0.965,-0.9694,-0.9476,-0.9218,-0.8656,-0.8616,-0.8616,-0.8616,-0.8616,-0.8616,-0.8616,-0.8616,-0.8616,-0.8568,-0.8476,-0.8432,-0.834,-0.8204,-0.8025,-0.776,-0.7363,-0.7013,-0.6966,-0.6697,-0.6428,-0.6384,-0.6384,-0.6741,-0.6786,-0.7051,-0.7095,-0.7095,-0.7095,-0.7095,-0.7095,-0.7095,-0.7095,-0.7095,-0.7095,-0.7095,-0.7095,-0.7095,-0.7095,-0.7095,-0.7095,-0.7095,-0.7095,-0.7095,-0.7095,-0.7095,-0.7095,-0.7095,-0.7095,-0.7095,-0.7095,-0.7095,-0.7095,-0.7085,-0.7092,-0.7095,-0.7071,-0.7038,-0.7068,-0.7092,-0.7085,-0.7082,-0.7071,-0.7078,-0.7095,-0.7095,-0.7038,-0.7048,-0.7065,-0.7095,-0.7095,-0.6987,-1.0931,-1.0475,-0.9949,-0.9733,-0.9765,-0.9733,-0.9728,-0.9728,-0.9809,-0.9765,-0.9695,-0.9733,-0.9846,-0.9884,-0.9884,-0.9884,-0.9884,-0.9884,-0.9884,-0.9884,-0.9884,-0.9884,-0.9884,-0.9884,-0.9846,-0.985,-0.9983,-0.9984,-0.9985,-1.0206,-1.0409,-1.0669,-1.0589,-1.0369,-1.0326,-1.0164,-0.9907,-0.9864,-0.9607,-0.948,-0.9218,-0.8872,-0.8788,-0.87,-0.8616,-0.8616,-0.8616,-0.8616,-0.8616,-0.8616,-0.8616,-0.8568,-0.8476,-0.834,-0.8248,-0.8113,-0.7628,-0.7452,-0.7095,-0.6337,-0.6337,-0.6248,-0.5805,-0.5583,-0.5539,-0.5716,-0.6074,-0.6296,-0.6605,-0.6962,-0.6962,-0.7051,-0.7051,-0.7095,-0.7095,-0.7095,-0.7095,-0.7095,-0.7095,-0.7095,-0.7095,-0.7095,-0.7095,-0.7095,-0.7095,-0.7095,-0.7095,-0.7095,-0.7095,-0.7095,-0.7095,-0.7095,-0.7095,-0.7095,-0.7095,-0.7095,-0.7095,-0.7095,-0.7095,-0.7095,-0.7095,-0.7095,-0.7095,-0.7095,-0.7095,-0.7095,-0.7095,-0.7095,-0.7095,-0.7095,-0.7095,-0.7095,-0.7095,-0.7095,-0.7095,-0.9231,-0.9079,-0.897,-0.8927,-0.897,-0.8932,-0.8927,-0.897,-0.9279,-0.9241,-0.9122,-0.9354,-0.9582,-0.9884,-0.9884,-0.9846,-0.9771,-0.9809,-0.9846,-0.9884,-0.9733,-0.9809,-0.9809,-0.9652,-0.9663,-0.9642,-0.9617,-0.9517,-0.9667,-0.9787,-0.9853,-0.9958,-1.0143,-1.0029,-1.0009,-0.9738,-0.9432,-0.9345,-0.9174,-0.8915,-0.9003,-0.8828,-0.8915,-0.8788,-0.8616,-0.8616,-0.8616,-0.8616,-0.8616,-0.8616,-0.8524,-0.8344,-0.8072,-0.7893,-0.7757,-0.7312,-0.6827,-0.647,-0.5983,-0.5223,-0.5134,-0.5134,-0.4734,-0.4601,-0.4556,-0.4556,-0.4825,-0.4914,-0.5359,-0.6248,-0.6473,-0.6827,-0.6918,-0.7051,-0.7095,-0.7095,-0.7095,-0.7095,-0.7095,-0.7095,-0.7095,-0.7095,-0.7095,-0.7095,-0.7095,-0.7095,-0.7095,-0.7095,-0.7095,-0.7095,-0.7095,-0.7095,-0.7095,-0.7095,-0.7095,-0.7095,-0.7095,-0.7095,-0.7095,-0.7095,-0.7095,-0.7095,-0.7095,-0.7095,-0.7095,-0.7095,-0.7095,-0.7095,-0.7095,-0.7095,-0.7095,-0.7095,-0.7095,-0.7095,-0.7095]},{"header":{"parameterUnit":"m.s-1","parameterCategory":1,"la1":31.0,"la2":29.5877,"lo1":-88.7671,"lo2":-86.6584,"dy":0.0162,"dx":0.0185,"nx":115,"ny":88,"refTime":"2024-08-19T12:00:00:Z","depth":0,"parameterNumber":3,"parameterNumberName":"V-component_of_WINDS"},"data":[0.0,0.0,0.0,0.0,0.0,0.0,0.0,0.0,0.0,0.0,0.0,0.0,0.0,0.0,0.0,0.0,0.0,0.0,0.0,0.0,0.0,0.0,0.0,0.0,0.0,0.0,0.0,0.0,0.0,0.0,0.0,0.0,0.0,0.0,0.0,0.0,0.0,0.0,0.0,0.0,0.0,0.0,0.0,0.0,0.0,0.0,0.0,0.0,0.0,0.0,0.0,0.0,0.0,0.0,0.0,0.0,0.0,0.0,0.0,0.0,0.0,0.0,0.0,0.0,0.0,0.0,0.0,0.0,0.0,0.0,0.0,0.0,0.0,0.0,0.0,0.0,0.0,0.0,0.0,0.0,0.0,0.0,0.0,0.0,0.0,0.0,0.0,0.0,0.0,0.0,0.0,0.0,0.0,0.0,0.0,0.0,0.0,0.0,0.0,0.0,0.0,0.0,0.0,0.0,0.0,0.0,0.0,0.0,0.0,0.0,0.0,0.0,0.0,0.0,0.0,0.0,0.0,0.0,0.0,0.0,0.0,0.0,0.0,0.0,0.0,0.0,0.0,0.0,0.0,0.0,0.0,0.0,0.0,0.0,0.0,0.0,0.0,0.0,0.0,0.0,0.0,0.0,0.0,0.0,0.0,0.0,0.0,0.0,0.0,0.0,0.0,0.0,0.0,0.0,0.0,0.0,0.0,0.0,0.0,0.0,0.0,0.0,0.0,0.0,0.0,0.0,0.0,0.0,0.0,0.0,0.0,0.0,0.0,0.0,0.0,0.0,0.0,0.0,0.0,0.0,0.0,0.0,0.0,0.0,0.0,0.0,0.0,0.0,0.0,0.0,0.0,0.0,0.0,0.0,0.0,0.0,0.0,0.0,0.0,0.0,0.0,0.0,0.0,0.0,0.0,0.0,0.0,0.0,0.0,0.0,0.0,0.0,0.0,0.0,0.0,0.0,0.0,0.0,0.0,0.0,0.0,0.0,0.0,0.0,0.0,0.0,0.0,0.0,0.0,0.0,0.0,0.0,0.0,0.0,0.0,0.0,0.0,0.0,0.0,0.0,0.0,0.0,0.0,0.0,0.0,0.0,0.0,0.0,0.0,0.0,0.0,0.0,0.0,0.0,0.0,0.0,0.0,0.0,0.0,0.0,0.0,0.0,0.0,0.0,0.0,0.0,0.0,0.0,0.0,0.0,0.0,0.0,0.0,0.0,0.0,0.0,0.0,0.0,0.0,0.0,0.0,0.0,0.0,0.0,0.0,0.0,0.0,0.0,0.0,0.0,0.0,0.0,0.0,0.0,0.0,0.0,0.0,0.0,0.0,0.0,0.0,0.0,0.0,0.0,0.0,0.0,0.0,0.0,0.0,0.0,0.0,0.0,0.0,0.0,0.0,0.0,0.0,0.0,0.0,0.0,0.0,0.0,0.0,0.0,0.0,0.0,0.0,0.0,0.0,0.0,0.0,0.0,0.0,0.0,0.0,0.0,0.0,0.0,0.0,0.0,0.0,0.0,0.0,0.0,0.0,0.0,0.0,0.0,0.0,0.0,0.0,0.0,0.0,0.0,0.0,0.0,0.0,0.0,0.0,0.0,0.0,0.0,0.0,0.0,0.0,0.0,0.0,0.0,0.0,0.0,0.0,0.0,0.0,0.0,0.0,0.0,0.0,0.0,0.0,0.0,0.0,0.0,0.0,0.0,0.0,0.0,0.0,0.0,0.0,0.0,0.0,0.0,0.0,0.0,0.0,0.0,0.0,0.0,0.0,0.0,0.0,0.0,0.0,0.0,0.0,0.0,0.0,0.0,0.0,0.0,0.0,0.0,0.0,0.0,0.0,0.0,0.0,0.0,0.0,0.0,0.0,0.0,0.0,0.0,0.0,0.0,0.0,0.0,0.0,0.0,0.0,0.0,0.0,0.0,0.0,0.0,0.0,0.0,0.0,0.0,0.0,0.0,0.0,0.0,0.0,0.0,0.0,0.0,0.0,0.0,0.0,0.0,0.0,0.0,0.0,0.0,0.0,0.0,0.0,0.0,0.0,0.0,0.0,0.0,0.0,0.0,0.0,0.0,0.0,0.0,0.0,0.0,0.0,0.0,0.0,0.0,0.0,0.0,0.0,0.0,0.0,0.0,0.0,0.0,0.0,0.0,0.0,0.0,0.0,0.0,0.0,0.0,0.0,0.0,0.0,0.0,0.0,0.0,0.0,0.0,0.0,0.0,0.0,0.0,0.0,0.0,0.0,0.0,0.0,0.0,0.0,0.0,0.0,0.0,0.0,0.0,0.0,0.0,0.0,0.0,0.0,0.0,0.0,0.0,0.0,0.0,0.0,0.0,0.0,0.0,0.0,0.0,0.0,0.0,0.0,0.0,0.0,0.0,0.0,0.0,0.0,0.0,0.0,0.0,0.0,0.0,0.0,0.0,0.0,0.0,0.0,0.0,0.0,0.0,0.0,0.0,0.0,0.0,0.0,0.0,0.0,0.0,0.0,0.0,0.0,0.0,0.0,0.0,0.0,0.0,0.0,0.0,0.0,0.0,0.0,0.0,0.0,0.0,0.0,0.0,0.0,0.0,0.0,0.0,0.0,0.0,0.0,0.0,0.0,0.0,0.0,0.0,0.0,0.0,0.0,0.0,0.0,0.0,0.0,0.0,0.0,0.0,0.0,0.0,0.0,0.0,0.0,0.0,0.0,0.0,0.0,0.0,0.0,0.0,0.0,0.0,0.0,0.0,0.0,0.0,0.0,0.0,0.0,0.0,0.0,0.0,0.0,0.0,0.0,0.0,0.0,0.0,0.0,0.0,0.0,0.0,0.0,0.0,0.0,0.0,0.0,0.0,0.0,0.0,0.0,0.0,0.0,0.0,0.0,0.0,0.0,0.0,0.0,0.0,0.0,0.0,0.0,0.0,0.0,0.0,0.0,0.0,0.0,0.0,0.0,0.0,0.0,0.0,0.0,0.0,0.0,0.0,0.0,0.0,0.0,0.0,0.0,0.0,0.0,0.0,0.0,0.0,0.0,0.0,0.0,0.0,0.0,0.0,0.0,0.0,0.0,0.0,0.0,0.0,0.0,0.0,0.0,0.0,0.0,0.0,0.0,0.0,0.0,0.0,0.0,0.0,0.0,0.0,0.0,0.0,0.0,0.0,0.0,0.0,0.0,0.0,0.0,0.0,0.0,0.0,0.0,0.0,0.0,0.0,0.0,0.0,0.0,0.0,0.0,0.0,0.0,0.0,0.0,0.0,0.0,0.0,0.0,0.0,0.0,0.0,0.0,0.0,0.0,0.0,0.0,0.0,0.0,0.0,0.0,0.0,0.0,0.0,0.0,0.0,0.0,0.0,0.0,0.0,0.0,0.0,0.0,0.0,0.0,0.0,0.0,0.0,0.0,0.0,0.0,0.0,0.0,0.0,0.0,0.0,0.0,0.0,0.0,0.0,0.0,0.0,0.0,0.0,0.0,0.0,0.0,0.0,0.0,0.0,0.0,0.0,0.0,0.0,0.0,0.0,0.0,0.0,0.0,0.0,0.0,0.0,0.0,0.0,0.0,0.0,0.0,0.0,0.0,0.0,0.0,0.0,0.0,0.0,0.0,0.0,0.0,0.0,0.0,0.0,0.0,0.0,0.0,0.0,0.0,0.0,0.0,0.0,0.0,0.0,0.0,0.0,0.0,0.0,0.0,0.0,0.0,0.0,0.0,0.0,0.0,0.0,0.0,0.0,0.0,0.0,0.0,0.0,0.0,0.0,0.0,0.0,0.0,0.0,0.0,0.0,0.0,0.0,0.0,0.0,0.0,0.0,0.0,0.0,0.0,0.0,0.0,0.0,0.0,0.0,0.0,0.0,0.0,0.0,0.0,0.0,0.0,0.0,0.0,0.0,0.0,0.0,0.0,0.0,0.0,0.0,0.0,0.0,0.0,0.0,0.0,0.0,0.0,0.0,0.0,0.0,0.0,0.0,0.0,0.0,0.0,0.0,0.0,0.0,0.0,0.0,0.0,0.0,0.0,0.0,0.0,0.0,0.0,0.0,0.0,0.0,0.0,0.0,0.0,0.0,0.0,0.0,0.0,0.0,0.0,0.0,0.0,0.0,0.0,0.0,0.0,0.0,0.0,0.0,0.0,0.0,0.0,0.0,0.0,0.0,0.0,0.0,0.0,0.0,0.0,0.0,0.0,0.0,0.0,0.0,0.0,0.0,0.0,0.0,0.0,0.0,0.0,0.0,0.0,0.0,0.0,0.0,0.0,0.0,0.0,0.0,0.0,0.0,2.2693,0.0,0.0,0.0,0.0,0.0,0.0,0.0,0.0,0.0,0.0,0.0,0.0,0.0,0.0,0.0,0.0,0.0,0.0,0.0,0.0,0.0,0.0,0.0,0.0,0.0,0.0,0.0,0.0,0.0,0.0,0.0,0.0,0.0,0.0,0.0,0.0,0.0,0.0,0.0,0.0,0.0,0.0,0.0,0.0,0.0,0.0,0.0,0.0,0.0,0.0,0.0,0.0,0.0,0.0,0.0,0.0,0.0,0.0,0.0,0.0,0.0,0.0,0.0,0.0,0.0,0.0,0.0,0.0,0.0,0.0,0.0,0.0,0.0,0.0,0.0,0.0,0.0,0.0,0.0,0.0,0.0,0.0,0.0,0.0,0.0,0.0,0.0,0.0,0.0,0.0,0.0,0.0,0.0,0.0,0.0,0.0,0.0,0.0,0.0,0.0,0.0,0.0,0.0,0.0,0.0,0.0,0.0,0.0,0.0,0.0,2.344,2.3116,2.3274,2.3233,2.2897,0.0,0.0,0.0,0.0,0.0,0.0,0.0,0.0,0.0,0.0,0.0,0.0,0.0,0.0,0.0,0.0,0.0,0.0,0.0,0.0,0.0,0.0,0.0,0.0,0.0,0.0,0.0,0.0,0.0,0.0,0.0,0.0,0.0,0.0,0.0,0.0,0.0,0.0,0.0,0.0,0.0,0.0,0.0,0.0,0.0,0.0,0.0,0.0,0.0,0.0,0.0,0.0,0.0,0.0,0.0,0.0,0.0,0.0,0.0,0.0,0.0,0.0,0.0,0.0,0.0,0.0,0.0,0.0,0.0,0.0,0.0,0.0,0.0,0.0,0.0,0.0,0.0,0.0,0.0,0.0,0.0,0.0,0.0,0.0,0.0,0.0,0.0,0.0,0.0,0.0,0.0,0.0,0.0,0.0,0.0,0.0,0.0,0.0,0.0,0.0,0.0,0.0,0.0,0.0,0.0,0.0,0.0,0.0,0.0,0.0,0.0,0.0,2.386,2.3666,2.32,0.0,0.0,0.0,0.0,0.0,0.0,0.0,0.0,0.0,0.0,0.0,0.0,0.0,0.0,0.0,0.0,0.0,0.0,0.0,0.0,0.0,0.0,0.0,0.0,0.0,0.0,0.0,0.0,0.0,0.0,0.0,0.0,0.0,0.0,0.0,0.0,0.0,0.0,0.0,0.0,0.0,0.0,0.0,0.0,0.0,0.0,0.0,0.0,0.0,0.0,0.0,0.0,0.0,0.0,0.0,0.0,0.0,0.0,0.0,0.0,0.0,0.0,0.0,0.0,0.0,0.0,0.0,0.0,0.0,0.0,0.0,0.0,0.0,0.0,0.0,0.0,0.0,0.0,0.0,0.0,0.0,0.0,0.0,0.0,0.0,0.0,0.0,0.0,0.0,0.0,0.0,0.0,0.0,0.0,0.0,0.0,0.0,0.0,0.0,0.0,0.0,0.0,0.0,0.0,0.0,0.0,0.0,0.0,0.0,0.0,2.3731,2.424,2.5526,0.0,2.3634,0.0,0.0,0.0,0.0,0.0,0.0,0.0,0.0,0.0,0.0,0.0,0.0,0.0,0.0,0.0,0.0,0.0,0.0,0.0,0.0,0.0,0.0,0.0,0.0,0.0,0.0,0.0,0.0,0.0,0.0,0.0,0.0,0.0,0.0,0.0,0.0,0.0,0.0,0.0,0.0,0.0,0.0,0.0,0.0,0.0,0.0,0.0,0.0,0.0,0.0,0.0,0.0,0.0,0.0,0.0,0.0,0.0,0.0,0.0,0.0,0.0,0.0,0.0,0.0,0.0,0.0,0.0,0.0,0.0,0.0,0.0,0.0,0.0,0.0,0.0,0.0,0.0,0.0,0.0,0.0,0.0,0.0,0.0,0.0,0.0,0.0,0.0,0.0,0.0,0.0,0.0,0.0,0.0,0.0,0.0,0.0,0.0,0.0,0.0,0.0,0.0,0.0,0.0,0.0,0.0,0.0,0.0,0.0,0.0,0.0,2.4283,2.4936,2.4981,2.4223,0.0,0.0,0.0,0.0,0.0,0.0,0.0,0.0,0.0,0.0,0.0,0.0,0.0,0.0,0.0,0.0,0.0,0.0,0.0,0.0,0.0,0.0,0.0,0.0,0.0,0.0,0.0,0.0,0.0,0.0,0.0,0.0,0.0,0.0,0.0,0.0,0.0,0.0,0.0,0.0,0.0,0.0,0.0,0.0,0.0,0.0,0.0,0.0,0.0,0.0,0.0,0.0,0.0,0.0,0.0,0.0,0.0,0.0,0.0,0.0,0.0,0.0,0.0,0.0,0.0,0.0,0.0,0.0,0.0,0.0,0.0,0.0,0.0,0.0,0.0,0.0,0.0,0.0,0.0,0.0,0.0,0.0,0.0,0.0,0.0,0.0,0.0,0.0,0.0,0.0,0.0,0.0,0.0,0.0,0.0,0.0,0.0,0.0,0.0,0.0,0.0,0.0,0.0,0.0,0.0,0.0,0.0,0.0,0.0,0.0,2.3834,2.4726,2.5552,2.4973,2.3695,2.1832,0.0,0.0,0.0,0.0,0.0,0.0,0.0,0.0,0.0,0.0,0.0,0.0,0.0,0.0,0.0,0.0,0.0,0.0,0.0,0.0,0.0,0.0,0.0,0.0,0.0,0.0,0.0,0.0,0.0,0.0,0.0,0.0,0.0,0.0,0.0,0.0,0.0,0.0,0.0,0.0,0.0,0.0,0.0,0.0,0.0,0.0,0.0,0.0,0.0,0.0,0.0,0.0,0.0,0.0,0.0,0.0,0.0,0.0,0.0,0.0,0.0,0.0,0.0,0.0,0.0,0.0,0.0,0.0,0.0,0.0,0.0,0.0,0.0,0.0,0.0,0.0,0.0,0.0,0.0,0.0,0.0,0.0,0.0,0.0,0.0,0.0,0.0,0.0,0.0,0.0,0.0,0.0,0.0,0.0,0.0,0.0,0.0,0.0,0.0,0.0,0.0,0.0,0.0,0.0,0.0,0.0,0.0,0.0,2.6564,2.5165,2.4945,2.6217,2.6286,2.4771,0.0,0.0,0.0,0.0,0.0,0.0,0.0,0.0,0.0,0.0,0.0,0.0,0.0,0.0,0.0,0.0,0.0,0.0,0.0,0.0,0.0,0.0,0.0,0.0,0.0,0.0,0.0,0.0,0.0,0.0,0.0,0.0,0.0,0.0,0.0,0.0,0.0,0.0,0.0,0.0,0.0,0.0,0.0,0.0,0.0,0.0,0.0,0.0,0.0,0.0,0.0,0.0,0.0,0.0,0.0,0.0,0.0,0.0,0.0,0.0,0.0,0.0,0.0,0.0,0.0,0.0,0.0,0.0,0.0,0.0,0.0,0.0,0.0,0.0,0.0,0.0,0.0,0.0,0.0,0.0,0.0,0.0,0.0,0.0,0.0,0.0,0.0,0.0,0.0,0.0,0.0,0.0,0.0,0.0,0.0,0.0,0.0,0.0,0.0,0.0,0.0,0.0,0.0,0.0,0.0,0.0,0.0,0.0,0.0,2.1897,2.3345,2.5205,2.7305,2.5021,2.3341,0.0,0.0,0.0,0.0,0.0,0.0,0.0,0.0,0.0,0.0,0.0,0.0,0.0,0.0,0.0,0.0,0.0,0.0,0.0,0.0,0.0,0.0,0.0,0.0,0.0,0.0,0.0,0.0,0.0,0.0,0.0,0.0,0.0,0.0,0.0,0.0,0.0,0.0,0.0,0.0,0.0,0.0,0.0,0.0,0.0,0.0,0.0,0.0,0.0,0.0,0.0,0.0,0.0,0.0,0.0,0.0,0.0,0.0,0.0,0.0,0.0,0.0,0.0,0.0,0.0,0.0,0.0,0.0,0.0,0.0,0.0,0.0,0.0,0.0,0.0,0.0,0.0,0.0,0.0,0.0,0.0,0.0,0.0,0.0,0.0,0.0,0.0,0.0,0.0,0.0,0.0,0.0,0.0,0.0,0.0,0.0,0.0,0.0,0.0,0.0,0.0,0.0,0.0,0.0,0.0,0.0,0.0,0.0,0.0,2.0344,0.0,2.5342,0.0,2.3761,2.2169,0.0,0.0,0.0,0.0,0.0,0.0,0.0,0.0,0.0,0.0,0.0,0.0,0.0,0.0,0.0,0.0,0.0,0.0,0.0,0.0,0.0,0.0,0.0,0.0,0.0,0.0,0.0,0.0,0.0,0.0,0.0,0.0,0.0,0.0,0.0,0.0,0.0,0.0,0.0,0.0,0.0,0.0,0.0,0.0,0.0,0.0,0.0,0.0,0.0,0.0,0.0,0.0,0.0,0.0,0.0,0.0,0.0,0.0,0.0,0.0,0.0,0.0,0.0,0.0,0.0,0.0,0.0,0.0,0.0,0.0,0.0,0.0,0.0,0.0,0.0,0.0,0.0,0.0,0.0,0.0,0.0,0.0,0.0,0.0,0.0,0.0,0.0,0.0,0.0,0.0,0.0,0.0,0.0,0.0,0.0,0.0,0.0,0.0,0.0,0.0,0.0,0.0,0.0,0.0,0.0,0.0,0.0,0.0,1.9917,2.2915,2.4926,2.5136,2.3512,2.2725,2.1425,0.0,0.0,0.0,0.0,0.0,0.0,0.0,0.0,0.0,0.0,0.0,0.0,0.0,0.0,0.0,0.0,0.0,0.0,0.0,0.0,0.0,0.0,0.0,0.0,0.0,0.0,0.0,0.0,0.0,0.0,0.0,0.0,0.0,0.0,0.0,0.0,0.0,0.0,0.0,0.0,0.0,0.0,0.0,0.0,0.0,0.0,0.0,0.0,0.0,0.0,0.0,0.0,0.0,0.0,0.0,0.0,0.0,0.0,0.0,0.0,0.0,0.0,0.0,0.0,0.0,0.0,0.0,0.0,0.0,0.0,0.0,0.0,0.0,0.0,0.0,0.0,0.0,0.0,0.0,0.0,0.0,0.0,0.0,0.0,0.0,0.0,0.0,0.0,0.0,0.0,0.0,0.0,0.0,0.0,0.0,0.0,0.0,0.0,0.0,0.0,0.0,0.0,0.0,0.0,0.0,0.0,0.0,0.0,0.0,2.0907,2.2109,2.2898,2.3124,2.1413,2.0426,0.0,0.0,0.0,0.0,0.0,0.0,0.0,0.0,0.0,0.0,0.0,0.0,0.0,0.0,0.0,0.0,0.0,0.0,0.0,0.0,0.0,0.0,0.0,0.0,0.0,0.0,0.0,0.0,0.0,0.0,0.0,0.0,0.0,0.0,0.0,0.0,0.0,0.0,0.0,0.0,0.0,0.0,0.0,0.0,0.0,0.0,0.0,0.0,0.0,0.0,0.0,0.0,0.0,0.0,0.0,0.0,0.0,0.0,0.0,0.0,0.0,0.0,0.0,0.0,0.0,0.0,0.0,0.0,0.0,0.0,0.0,0.0,0.0,0.0,0.0,0.0,0.0,0.0,0.0,0.0,0.0,0.0,0.0,0.0,0.0,0.0,0.0,0.0,0.0,0.0,0.0,0.0,0.0,0.0,0.0,0.0,0.0,0.0,0.0,0.0,0.0,0.0,0.0,0.0,0.0,0.0,0.0,0.0,0.0,2.0631,2.1892,2.2731,2.3057,2.099,1.9946,2.0007,0.0,0.0,0.0,0.0,0.0,0.0,0.0,0.0,0.0,0.0,0.0,0.0,0.0,0.0,0.0,0.0,0.0,0.0,0.0,0.0,0.0,0.0,0.0,0.0,0.0,0.0,0.0,0.0,0.0,0.0,0.0,0.0,0.0,0.0,0.0,0.0,0.0,0.0,0.0,0.0,0.0,0.0,0.0,0.0,0.0,0.0,0.0,0.0,0.0,0.0,0.0,0.0,0.0,0.0,0.0,0.0,0.0,0.0,0.0,0.0,0.0,0.0,0.0,0.0,0.0,0.0,0.0,0.0,0.0,0.0,0.0,0.0,0.0,0.0,0.0,0.0,0.0,0.0,0.0,0.0,0.0,0.0,0.0,0.0,0.0,0.0,0.0,0.0,0.0,0.0,0.0,0.0,0.0,0.0,0.0,0.0,0.0,0.0,0.0,0.0,0.0,0.0,0.0,0.0,0.0,0.0,0.0,0.0,2.1694,2.3767,2.4243,2.3065,2.137,2.0017,0.0,0.0,0.0,0.0,0.0,0.0,0.0,0.0,0.0,0.0,0.0,0.0,0.0,0.0,0.0,0.0,0.0,0.0,0.0,0.0,0.0,0.0,0.0,0.0,0.0,0.0,0.0,0.0,0.0,0.0,0.0,0.0,0.0,0.0,0.0,0.0,0.0,0.0,0.0,0.0,0.0,0.0,0.0,0.0,0.0,0.0,0.0,0.0,0.0,0.0,0.0,0.0,0.0,0.0,0.0,0.0,0.0,0.0,0.0,0.0,0.0,0.0,0.0,0.0,0.0,0.0,0.0,0.0,0.0,0.0,0.0,0.0,0.0,0.0,0.0,0.0,0.0,0.0,0.0,0.0,0.0,0.0,0.0,0.0,0.0,0.0,0.0,0.0,0.0,0.0,0.0,0.0,0.0,0.0,0.0,0.0,0.0,0.0,0.0,0.0,0.0,0.0,0.0,0.0,0.0,0.0,0.0,0.0,0.0,2.157,2.3421,2.4116,2.3577,2.1994,2.0728,0.0,0.0,0.0,0.0,0.0,0.0,0.0,0.0,0.0,0.0,0.0,0.0,0.0,0.0,0.0,0.0,0.0,0.0,0.0,0.0,0.0,0.0,0.0,0.0,0.0,0.0,0.0,0.0,0.0,0.0,0.0,0.0,0.0,0.0,0.0,0.0,0.0,0.0,0.0,0.0,0.0,0.0,0.0,0.0,0.0,0.0,0.0,0.0,0.0,0.0,0.0,0.0,0.0,0.0,0.0,0.0,0.0,0.0,0.0,0.0,0.0,0.0,0.0,0.0,0.0,0.0,0.0,0.0,0.0,0.0,0.0,0.0,0.0,0.0,0.0,0.0,0.0,0.0,0.0,0.0,0.0,0.0,0.0,0.0,0.0,0.0,0.0,0.0,0.0,0.0,0.0,0.0,0.0,0.0,0.0,0.0,0.0,0.0,0.0,0.0,0.0,0.0,0.0,0.0,0.0,0.0,0.0,0.0,2.1091,2.1424,2.3151,2.3753,2.3145,2.2169,2.0873,0.0,0.0,0.0,0.0,0.0,0.0,0.0,0.0,0.0,0.0,0.0,0.0,0.0,0.0,0.0,0.0,0.0,0.0,0.0,0.0,0.0,0.0,0.0,0.0,0.0,0.0,0.0,0.0,0.0,0.0,0.0,0.0,0.0,0.0,0.0,0.0,0.0,0.0,0.0,0.0,0.0,0.0,0.0,0.0,0.0,0.0,0.0,0.0,0.0,0.0,0.0,0.0,0.0,0.0,0.0,0.0,0.0,0.0,0.0,0.0,0.0,0.0,0.0,0.0,0.0,0.0,0.0,0.0,0.0,0.0,0.0,0.0,0.0,0.0,0.0,0.0,0.0,0.0,0.0,0.0,0.0,0.0,0.0,0.0,0.0,0.0,0.0,0.0,0.0,0.0,0.0,0.0,0.0,0.0,0.0,0.0,0.0,0.0,0.0,0.0,0.0,0.0,0.0,0.0,0.0,0.0,0.0,0.0,2.1313,2.1163,2.2743,2.3069,2.2027,2.191,2.0739,0.0,0.0,0.0,0.0,0.0,0.0,0.0,0.0,0.0,0.0,0.0,0.0,0.0,0.0,0.0,0.0,0.0,0.0,0.0,0.0,0.0,0.0,0.0,0.0,0.0,0.0,0.0,0.0,0.0,0.0,0.0,0.0,0.0,0.0,0.0,0.0,0.0,0.0,0.0,0.0,0.0,0.0,0.0,0.0,0.0,0.0,0.0,0.0,0.0,0.0,0.0,0.0,0.0,0.0,0.0,0.0,0.0,0.0,0.0,0.0,0.0,0.0,0.0,0.0,0.0,0.0,0.0,0.0,0.0,0.0,0.0,0.0,0.0,0.0,0.0,0.0,0.0,0.0,0.0,0.0,0.0,0.0,0.0,0.0,0.0,0.0,0.0,0.0,0.0,0.0,0.0,0.0,0.0,0.0,0.0,0.0,0.0,0.0,0.0,0.0,0.0,0.0,0.0,0.0,0.0,0.0,0.0,0.0,2.0475,2.0069,2.1502,2.1734,2.0575,2.0912,2.0539,0.0,0.0,0.0,0.0,0.0,0.0,0.0,0.0,0.0,0.0,0.0,0.0,0.0,0.0,0.0,0.0,0.0,0.0,0.0,0.0,0.0,0.0,0.0,0.0,0.0,0.0,0.0,0.0,0.0,0.0,0.0,0.0,0.0,0.0,0.0,0.0,0.0,0.0,0.0,0.0,0.0,0.0,0.0,0.0,0.0,0.0,0.0,0.0,2.8619,0.0,0.0,0.0,0.0,0.0,0.0,0.0,0.0,0.0,0.0,0.0,0.0,0.0,0.0,0.0,0.0,0.0,0.0,0.0,0.0,0.0,0.0,0.0,0.0,0.0,0.0,0.0,0.0,0.0,0.0,0.0,0.0,0.0,0.0,0.0,0.0,0.0,0.0,0.0,0.0,0.0,0.0,0.0,0.0,0.0,0.0,0.0,0.0,0.0,0.0,0.0,0.0,0.0,0.0,0.0,0.0,0.0,0.0,0.0,1.9785,1.9235,2.0203,2.0256,1.9329,1.9254,1.9034,0.0,0.0,0.0,0.0,0.0,0.0,0.0,0.0,0.0,0.0,0.0,0.0,0.0,0.0,0.0,0.0,0.0,0.0,0.0,0.0,0.0,0.0,0.0,0.0,0.0,0.0,0.0,0.0,0.0,0.0,0.0,0.0,0.0,0.0,0.0,0.0,0.0,0.0,0.0,0.0,0.0,0.0,0.0,0.0,0.0,0.0,0.0,0.0,0.0,0.0,0.0,0.0,0.0,0.0,0.0,0.0,0.0,0.0,0.0,0.0,0.0,0.0,0.0,0.0,0.0,0.0,0.0,0.0,0.0,0.0,0.0,0.0,0.0,0.0,0.0,0.0,0.0,0.0,0.0,0.0,0.0,0.0,0.0,0.0,0.0,0.0,0.0,0.0,0.0,0.0,0.0,0.0,0.0,0.0,0.0,0.0,0.0,0.0,0.0,0.0,0.0,0.0,0.0,0.0,0.0,0.0,0.0,1.817,1.9003,1.8537,1.8933,1.887,1.83,1.7696,1.7365,1.7368,0.0,0.0,0.0,0.0,0.0,0.0,0.0,0.0,0.0,0.0,0.0,0.0,0.0,0.0,0.0,0.0,0.0,0.0,0.0,0.0,0.0,0.0,0.0,0.0,0.0,0.0,0.0,0.0,0.0,0.0,0.0,0.0,0.0,0.0,0.0,0.0,0.0,0.0,2.5126,2.7326,0.0,0.0,0.0,0.0,0.0,0.0,0.0,0.0,3.0847,0.0,0.0,0.0,0.0,0.0,0.0,0.0,0.0,0.0,0.0,0.0,0.0,0.0,0.0,0.0,0.0,0.0,0.0,0.0,0.0,0.0,0.0,0.0,0.0,0.0,0.0,0.0,0.0,0.0,0.0,0.0,0.0,0.0,0.0,0.0,0.0,0.0,0.0,0.0,0.0,0.0,0.0,0.0,0.0,0.0,0.0,0.0,0.0,0.0,0.0,0.0,0.0,0.0,0.0,0.0,0.0,1.7686,1.7621,1.7724,1.8013,1.7982,1.7926,1.7833,1.7698,1.7244,1.638,0.0,0.0,0.0,0.0,0.0,0.0,0.0,0.0,0.0,0.0,0.0,0.0,0.0,0.0,0.0,0.0,0.0,0.0,0.0,0.0,0.0,0.0,0.0,0.0,0.0,0.0,0.0,0.0,0.0,0.0,0.0,0.0,0.0,0.0,0.0,0.0,0.0,0.0,0.0,2.9041,3.0463,0.0,0.0,0.0,0.0,0.0,0.0,0.0,0.0,3.11,0.0,0.0,0.0,0.0,0.0,0.0,0.0,0.0,0.0,0.0,0.0,0.0,0.0,0.0,0.0,0.0,0.0,0.0,0.0,0.0,0.0,0.0,0.0,0.0,0.0,0.0,0.0,0.0,0.0,0.0,0.0,0.0,0.0,0.0,0.0,0.0,0.0,0.0,0.0,0.0,0.0,0.0,0.0,0.0,0.0,0.0,0.0,0.0,0.0,0.0,0.0,0.0,0.0,0.0,0.0,1.6332,1.6869,1.7196,1.7429,1.7374,1.7337,1.7327,1.6655,1.5998,0.0,0.0,0.0,0.0,0.0,0.0,0.0,0.0,0.0,0.0,0.0,0.0,0.0,0.0,0.0,0.0,0.0,0.0,0.0,0.0,0.0,0.0,0.0,0.0,0.0,0.0,0.0,0.0,0.0,0.0,0.0,0.0,0.0,0.0,0.0,0.0,0.0,0.0,0.0,0.0,2.9665,3.1291,3.2182,0.0,0.0,0.0,0.0,0.0,0.0,3.0743,3.0757,0.0,0.0,0.0,0.0,0.0,0.0,0.0,0.0,0.0,0.0,0.0,0.0,0.0,0.0,0.0,0.0,0.0,0.0,0.0,0.0,0.0,0.0,0.0,0.0,0.0,0.0,0.0,0.0,0.0,0.0,0.0,0.0,0.0,0.0,0.0,0.0,0.0,0.0,0.0,0.0,0.0,0.0,0.0,0.0,0.0,0.0,0.0,0.0,0.0,0.0,0.0,0.0,0.0,0.0,0.0,1.5014,1.624,1.6896,1.6872,1.6882,1.6882,1.6862,1.5939,1.5175,0.0,0.0,0.0,0.0,0.0,0.0,0.0,0.0,0.0,0.0,0.0,0.0,0.0,0.0,0.0,0.0,0.0,0.0,0.0,0.0,0.0,0.0,0.0,0.0,0.0,0.0,0.0,0.0,0.0,0.0,0.0,0.0,0.0,0.0,0.0,0.0,0.0,0.0,0.0,0.0,0.0,3.2234,3.2768,3.2755,0.0,0.0,0.0,0.0,3.1517,3.115,0.0,0.0,0.0,0.0,0.0,0.0,0.0,0.0,0.0,0.0,0.0,0.0,0.0,0.0,0.0,0.0,0.0,0.0,0.0,0.0,0.0,0.0,0.0,0.0,0.0,0.0,0.0,0.0,0.0,0.0,0.0,0.0,0.0,0.0,0.0,0.0,0.0,0.0,0.0,0.0,0.0,0.0,0.0,0.0,0.0,0.0,0.0,0.0,0.0,0.0,0.0,0.0,0.0,0.0,0.0,0.0,1.5512,1.6214,1.655,1.6483,1.6456,1.6456,1.6467,1.6645,1.6106,0.0,0.0,0.0,0.0,0.0,0.0,0.0,0.0,0.0,0.0,0.0,0.0,0.0,0.0,0.0,0.0,0.0,0.0,0.0,0.0,0.0,0.0,0.0,0.0,0.0,0.0,0.0,0.0,0.0,0.0,0.0,0.0,0.0,0.0,0.0,0.0,0.0,0.0,0.0,0.0,0.0,3.4029,3.3498,3.3393,3.3352,0.0,0.0,3.2963,3.2383,3.2798,0.0,0.0,0.0,0.0,0.0,0.0,0.0,0.0,0.0,0.0,0.0,0.0,0.0,0.0,0.0,0.0,0.0,0.0,0.0,0.0,0.0,0.0,0.0,0.0,0.0,0.0,0.0,0.0,0.0,0.0,0.0,0.0,0.0,0.0,0.0,0.0,0.0,0.0,0.0,0.0,0.0,0.0,0.0,0.0,0.0,0.0,0.0,0.0,0.0,0.0,0.0,0.0,0.0,0.0,0.0,1.4982,1.516,1.6007,1.642,1.6392,1.6402,1.6402,1.6392,1.5804,1.5076,0.0,0.0,0.0,0.0,0.0,0.0,0.0,0.0,0.0,0.0,0.0,0.0,0.0,0.0,0.0,0.0,0.0,0.0,0.0,0.0,0.0,0.0,0.0,0.0,0.0,0.0,0.0,0.0,0.0,0.0,0.0,0.0,0.0,0.0,0.0,0.0,0.0,0.0,0.0,0.0,0.0,0.0,3.4709,3.4443,0.0,0.0,0.0,3.2897,3.3063,0.0,0.0,0.0,0.0,0.0,0.0,0.0,0.0,0.0,0.0,0.0,0.0,0.0,0.0,0.0,0.0,0.0,0.0,0.0,0.0,0.0,0.0,0.0,0.0,0.0,0.0,0.0,0.0,0.0,0.0,0.0,0.0,0.0,0.0,0.0,0.0,0.0,0.0,0.0,0.0,0.0,0.0,0.0,0.0,0.0,0.0,0.0,0.0,0.0,0.0,0.0,0.0,0.0,0.0,0.0,0.0,0.0,1.4822,1.6131,1.6676,1.6402,1.6402,1.6402,1.6381,1.5256,0.0,0.0,0.0,0.0,0.0,0.0,0.0,0.0,0.0,0.0,0.0,0.0,0.0,0.0,0.0,0.0,0.0,0.0,0.0,0.0,0.0,0.0,0.0,0.0,0.0,0.0,0.0,1.8306,0.0,0.0,0.0,0.0,0.0,0.0,0.0,0.0,0.0,0.0,0.0,0.0,0.0,0.0,3.4428,3.5641,3.5486,3.5462,0.0,0.0,3.3335,3.3771,3.2801,3.1792,0.0,0.0,0.0,0.0,0.0,0.0,0.0,0.0,0.0,0.0,0.0,0.0,0.0,0.0,0.0,0.0,0.0,0.0,0.0,0.0,0.0,0.0,0.0,0.0,0.0,0.0,0.0,0.0,0.0,0.0,0.0,0.0,0.0,0.0,0.0,0.0,0.0,0.0,0.0,0.0,0.0,0.0,0.0,0.0,0.0,0.0,0.0,0.0,0.0,0.0,0.0,0.0,0.0,0.0,0.0,1.4914,1.6891,1.7457,1.6431,1.6402,1.6402,1.6402,1.5894,1.507,0.0,0.0,0.0,0.0,0.0,0.0,0.0,0.0,0.0,0.0,0.0,0.0,0.0,0.0,0.0,0.0,0.0,0.0,0.0,0.0,0.0,0.0,0.0,0.0,0.0,0.0,0.0,0.0,0.0,0.0,0.0,0.0,0.0,0.0,0.0,0.0,0.0,0.0,0.0,0.0,0.0,3.5659,3.5786,3.6399,3.685,0.0,0.0,3.5331,3.464,3.4443,3.3592,3.1374,0.0,0.0,0.0,0.0,0.0,0.0,0.0,0.0,0.0,0.0,0.0,0.0,0.0,0.0,0.0,0.0,0.0,0.0,0.0,0.0,0.0,0.0,0.0,0.0,0.0,0.0,0.0,0.0,0.0,0.0,0.0,0.0,0.0,0.0,0.0,0.0,0.0,0.0,0.0,0.0,0.0,0.0,0.0,0.0,0.0,0.0,0.0,0.0,0.0,0.0,0.0,0.0,0.0,1.5243,1.4823,1.6262,1.6835,1.6402,1.6402,1.6402,1.6402,1.5967,1.5279,0.0,0.0,0.0,0.0,0.0,0.0,0.0,0.0,0.0,0.0,0.0,0.0,0.0,0.0,0.0,0.0,0.0,0.0,0.0,0.0,0.0,0.0,0.0,0.0,0.0,0.0,0.0,0.0,2.0764,2.1426,2.2322,0.0,0.0,0.0,0.0,0.0,0.0,0.0,0.0,0.0,0.0,3.5967,3.6472,3.6381,0.0,0.0,3.6218,3.515,3.5297,3.4081,3.2814,3.1872,3.0672,0.0,0.0,0.0,0.0,0.0,0.0,0.0,0.0,0.0,0.0,0.0,0.0,0.0,0.0,0.0,0.0,0.0,0.0,0.0,0.0,0.0,0.0,0.0,0.0,0.0,0.0,0.0,0.0,0.0,0.0,0.0,0.0,0.0,0.0,0.0,0.0,0.0,0.0,0.0,0.0,0.0,0.0,0.0,0.0,0.0,0.0,0.0,0.0,0.0,0.0,0.0,0.0,1.5313,1.5326,1.655,1.7078,1.692,1.692,1.6892,1.6909,1.6503,1.6012,0.0,0.0,0.0,0.0,0.0,0.0,0.0,0.0,0.0,0.0,0.0,0.0,0.0,0.0,0.0,0.0,0.0,0.0,0.0,0.0,0.0,0.0,0.0,0.0,0.0,0.0,0.0,0.0,2.1796,2.2449,2.3071,0.0,0.0,0.0,0.0,0.0,0.0,0.0,0.0,0.0,0.0,3.6363,3.6922,3.6508,3.6562,3.7683,3.6001,3.4878,3.5677,3.4157,3.2741,3.227,0.0,0.0,0.0,0.0,0.0,0.0,0.0,0.0,0.0,0.0,0.0,0.0,0.0,0.0,0.0,0.0,0.0,0.0,0.0,0.0,0.0,0.0,0.0,0.0,0.0,0.0,0.0,0.0,0.0,0.0,1.2764,0.0,0.0,0.0,0.0,0.0,0.0,0.0,0.0,0.0,0.0,0.0,0.0,0.0,0.0,0.0,0.0,0.0,0.0,0.0,0.0,0.0,0.0,1.6421,1.6489,1.8005,1.8602,1.8077,1.8066,1.8038,1.8027,1.7746,1.7389,1.7034,0.0,0.0,0.0,0.0,0.0,0.0,0.0,0.0,0.0,0.0,0.0,0.0,0.0,0.0,0.0,0.0,0.0,0.0,0.0,0.0,0.0,0.0,0.0,0.0,0.0,0.0,2.1429,2.2089,2.2856,0.0,0.0,0.0,0.0,0.0,0.0,0.0,0.0,0.0,0.0,3.6435,3.6977,3.6995,3.6995,3.6977,3.7067,3.5693,3.4899,3.5695,3.508,3.4027,0.0,0.0,0.0,0.0,0.0,0.0,0.0,0.0,0.0,0.0,0.0,0.0,0.0,0.0,0.0,0.0,0.0,0.0,0.0,0.0,0.0,0.0,0.0,0.0,0.0,0.0,0.0,1.7628,1.5921,0.0,0.0,0.0,0.0,0.0,0.0,0.0,0.0,0.0,0.0,0.0,1.8413,1.8921,0.0,0.0,0.0,0.0,0.0,0.0,0.0,0.0,0.0,0.0,0.0,0.0,1.6132,1.6537,1.7737,1.8282,1.8093,1.819,1.8244,1.8232,1.8204,1.8009,1.7642,0.0,0.0,0.0,0.0,0.0,0.0,0.0,0.0,0.0,0.0,0.0,0.0,0.0,0.0,0.0,0.0,0.0,0.0,0.0,0.0,0.0,0.0,0.0,0.0,0.0,2.1746,0.0,0.0,0.0,0.0,0.0,0.0,0.0,0.0,0.0,0.0,0.0,3.4463,3.5467,3.6761,3.746,3.7051,3.6995,3.7176,0.0,0.0,0.0,0.0,0.0,0.0,0.0,0.0,0.0,0.0,0.0,0.0,0.0,0.0,3.3506,3.173,3.0914,3.0593,3.0913,0.0,0.0,0.0,0.0,0.0,0.0,0.0,0.0,0.0,0.0,0.0,0.0,0.0,0.0,1.911,0.0,1.7616,0.0,0.0,0.0,0.0,0.0,0.0,0.0,0.0,1.9734,2.0173,2.0052,2.06,2.0657,0.0,1.9835,1.8869,0.0,0.0,0.0,0.0,0.0,0.0,0.0,0.0,1.6838,1.7362,1.8235,1.8712,1.8765,1.8845,1.8912,1.8953,1.9109,1.8991,1.8587,1.8338,1.8007,0.0,0.0,0.0,0.0,0.0,0.0,0.0,0.0,0.0,0.0,0.0,0.0,0.0,0.0,0.0,0.0,0.0,0.0,0.0,0.0,0.0,0.0,0.0,2.2728,0.0,0.0,0.0,0.0,0.0,0.0,0.0,0.0,0.0,3.3076,3.4514,3.5793,3.6521,3.7291,3.7648,3.723,0.0,0.0,0.0,0.0,0.0,0.0,0.0,3.553,3.575,3.5421,3.5331,3.6091,3.6218,3.5965,3.5152,0.0,0.0,3.3691,3.3004,3.2808,3.3371,3.3816,3.4329,3.5051,3.5315,3.538,0.0,0.0,0.0,0.0,0.0,0.0,0.0,0.0,2.0482,2.0097,0.0,1.8566,0.0,0.0,0.0,0.0,0.0,1.9925,0.0,0.0,2.1285,2.1484,2.0917,2.1347,2.15,2.1384,2.1976,2.1707,2.0603,1.8003,0.0,0.0,0.0,0.0,0.0,0.0,1.848,1.897,1.9509,1.9837,1.9965,1.999,2.0067,2.0182,2.0372,2.0277,1.9841,1.9802,1.9303,1.8192,1.8139,0.0,0.0,0.0,0.0,0.0,0.0,0.0,0.0,0.0,0.0,0.0,0.0,0.0,0.0,0.0,0.0,0.0,0.0,0.0,0.0,2.304,0.0,0.0,0.0,0.0,0.0,0.0,0.0,0.0,0.0,0.0,3.4075,3.5261,3.6787,3.8377,0.0,0.0,0.0,0.0,3.6731,3.6767,3.6251,3.6132,3.6924,3.6997,3.6725,3.6021,0.0,0.0,3.7158,3.7013,3.6741,3.6001,3.6124,3.6444,3.6476,3.6056,3.628,3.7681,3.7475,3.7393,3.7563,3.768,3.774,2.2895,0.0,0.0,0.0,0.0,2.2065,2.2221,2.2638,2.2409,2.1723,2.0706,2.055,0.0,0.0,0.0,0.0,0.0,0.0,2.1733,2.1531,2.2344,2.258,2.233,2.2513,2.2631,2.2572,2.2393,2.2146,2.1794,2.0652,1.9271,1.7739,0.0,0.0,0.0,0.0,1.848,1.8995,1.9535,1.9862,1.999,2.008,2.0283,2.0549,2.0599,2.0584,2.0438,2.0438,2.0098,1.9342,1.9332,0.0,0.0,0.0,0.0,0.0,0.0,0.0,0.0,0.0,0.0,0.0,0.0,0.0,0.0,0.0,0.0,0.0,0.0,0.0,2.2819,2.3488,2.4262,0.0,0.0,0.0,0.0,0.0,0.0,0.0,0.0,0.0,3.6749,3.7242,3.7549,0.0,0.0,3.7801,3.6845,3.7077,3.7345,3.7327,3.7202,0.0,3.7573,3.7157,3.6938,3.7433,3.7919,3.8136,3.7901,3.7375,3.6922,3.6687,3.6523,3.6579,3.7193,3.7032,3.6937,3.7354,3.772,3.806,3.8295,3.8956,3.9506,2.4278,2.3388,2.3023,2.3035,2.3312,2.3171,2.3396,2.3806,2.364,2.3232,2.263,2.2426,2.1771,2.0811,2.0481,0.0,0.0,0.0,2.2464,2.2335,2.2795,2.3107,2.3263,2.3168,2.3245,2.3471,2.2905,2.2606,2.2636,2.2083,2.1154,1.9849,0.0,0.0,1.8355,1.8668,1.8995,1.9309,1.9673,1.9952,2.008,2.0296,2.0498,2.0674,2.0699,2.0699,2.0699,2.0873,2.0799,2.0454,2.0633,2.0182,0.0,0.0,0.0,0.0,0.0,0.0,0.0,0.0,0.0,0.0,0.0,1.8952,1.9029,0.0,0.0,0.0,2.2754,2.3762,2.4511,2.527,0.0,0.0,0.0,0.0,0.0,0.0,0.0,3.6275,3.6886,3.7654,3.8883,3.9059,3.8907,3.8551,3.838,3.8104,3.7618,0.0,3.7484,3.7484,3.7613,3.7757,3.7881,3.7555,3.7513,3.8085,3.8209,3.8209,3.8191,3.7538,3.7013,3.6935,3.6688,3.656,3.7096,3.7125,3.7373,3.7955,3.8481,3.8759,3.8656,3.9175,3.9658,2.5312,2.5216,2.4278,2.3926,2.3962,2.4386,2.4326,2.3962,2.4386,2.4554,2.4482,2.4071,2.3802,2.3629,2.2858,0.0,2.2067,2.2735,2.3012,2.2878,2.2987,2.3365,2.3859,2.3471,2.3573,2.416,2.3543,2.3258,2.325,2.2757,2.2467,2.234,2.134,2.0518,1.9899,1.9823,1.9798,1.9798,1.9926,2.0067,2.0207,2.0574,2.0762,2.0762,2.0799,2.081,2.0823,2.1229,2.1458,2.1492,2.1985,2.1695,2.0441,0.0,0.0,0.0,0.0,0.0,0.0,0.0,0.0,0.0,0.0,0.0,0.0,0.0,0.0,0.0,2.4982,0.0,2.7194,2.781,0.0,0.0,0.0,3.1761,3.418,3.5856,3.7202,3.8196,0.0,0.0,4.0485,4.059,4.059,4.0573,3.9252,3.855,3.9199,3.8166,3.7347,3.7419,3.7612,3.7811,3.7811,3.795,3.8104,3.8174,3.8209,3.8209,3.8191,3.7647,3.714,3.7189,3.6795,3.6523,3.6537,3.6926,3.758,3.8969,3.927,3.9136,3.8566,3.8612,3.8619,2.5312,2.5288,2.5035,2.4939,2.4951,2.5071,2.5047,2.4963,2.5071,2.4972,2.4701,2.4614,2.4448,2.4169,2.3686,2.3665,2.4028,2.434,2.449,2.4467,2.4467,2.4582,2.4696,2.461,2.4624,2.4753,2.4639,2.4567,2.4553,2.442,2.3899,2.2991,2.2337,2.1492,2.049,2.0024,1.9837,1.9952,1.999,2.0144,2.0436,2.0959,2.1229,2.1215,2.1589,2.1766,2.1766,2.1992,2.2095,2.2095,2.2648,2.2648,2.1907,2.1111,0.0,0.0,0.0,0.0,0.0,0.0,0.0,0.0,0.0,2.2175,2.1236,0.0,2.4441,0.0,2.6672,2.7889,2.8546,2.8767,0.0,0.0,3.3079,3.4416,3.7206,3.8202,3.8979,3.9814,4.0098,4.0481,4.1253,4.1341,4.1341,4.1323,4.0516,3.98,3.9392,3.8538,3.791,3.7875,3.7515,3.7278,3.7447,3.7757,3.8021,3.8175,3.8192,3.8209,3.8209,3.8064,3.7967,3.807,3.7691,3.7424,3.7522,3.7374,3.723,3.7598,3.7692,3.7648,3.7491,3.7612,3.7728,2.5312,2.5312,2.5312,2.5511,2.5871,2.5476,2.5312,2.5312,2.5312,2.5354,2.5406,2.5257,2.5115,2.4947,2.4446,2.4383,2.4712,2.4909,2.5007,2.5007,2.5007,2.5133,2.5398,2.5133,2.5133,2.5384,2.5133,2.5007,2.5007,2.5007,2.4517,2.3567,2.3018,2.2313,2.1459,2.0668,2.0421,2.0758,2.0807,2.0968,2.1202,2.1541,2.1732,2.1708,2.1978,2.2105,2.2105,2.2452,2.2649,2.2686,2.329,2.3359,2.274,2.2022,2.12,0.0,0.0,0.0,0.0,0.0,0.0,0.0,0.0,0.0,0.0,0.0,2.6257,2.7283,2.897,3.0227,3.0898,3.1514,3.275,3.4848,3.5614,3.6891,3.9029,3.9831,4.0433,4.0937,4.099,4.113,4.1552,4.1604,4.1604,4.1604,4.1253,4.0709,3.9901,3.8866,3.8093,3.8076,3.7558,3.7201,3.7392,3.7685,3.7934,3.8056,3.8141,3.8209,3.8209,3.8274,3.8368,3.8439,3.8103,3.7673,3.7439,3.6956,3.6479,3.6077,3.5983,3.6134,3.649,3.6686,3.6777,2.5523,2.5511,2.5511,2.5904,2.6502,2.5716,2.5449,2.5495,2.5507,2.5783,2.6206,2.5845,2.5739,2.5783,2.5137,2.4895,2.498,2.5147,2.5245,2.5245,2.5217,2.5495,2.5975,2.5481,2.5508,2.5975,2.5481,2.5245,2.5245,2.5245,2.4847,2.4095,2.3603,2.3065,2.249,2.1553,2.1259,2.1734,2.1842,2.1988,2.2105,2.2151,2.2198,2.2212,2.2267,2.23,2.2314,2.2912,2.3238,2.326,2.3876,2.3917,2.3264,2.272,2.2166,0.0,2.1623,0.0,0.0,0.0,0.0,0.0,0.0,0.0,0.0,2.7354,2.849,2.9741,3.1644,3.3045,3.372,3.4897,3.6066,3.7135,3.7936,3.8896,4.0099,4.0916,4.1448,4.1582,4.1604,4.1604,4.1604,4.1604,4.1604,4.1587,4.1429,4.1078,4.0502,3.9234,3.8322,3.8251,3.769,3.7297,3.7485,3.7685,3.7828,3.7899,3.8072,3.8207,3.8257,3.8417,3.8572,3.8542,3.8136,3.7577,3.6863,3.625,3.5503,3.4846,3.4744,3.494,3.5551,3.5803,3.5693,2.6688,2.6688,2.6701,2.6502,2.6182,2.6029,2.6222,2.6694,2.6674,2.6529,2.6245,2.5918,2.6038,2.6434,2.5925,2.592,2.6406,2.6447,2.6474,2.6459,2.6433,2.6527,2.6621,2.6527,2.6527,2.6621,2.6527,2.6474,2.6459,2.6474,2.5845,2.4676,2.4269,2.3767,2.3159,0.0,0.0,0.0,2.2002,2.2081,2.2105,2.2535,2.2754,2.2777,2.3224,0.0,2.3486,2.3818,2.3982,2.3997,2.4172,0.0,0.0,0.0,0.0,0.0,0.0,0.0,0.0,0.0,0.0,0.0,2.9135,2.8878,2.869,3.0997,3.2895,3.3736,3.4733,3.5605,3.6296,3.6609,3.7251,3.8478,3.886,3.9552,4.0827,4.123,4.1448,4.1582,4.1604,4.1604,4.1604,4.1604,4.1587,4.1534,4.1078,4.0695,4.052,3.9603,3.9094,3.9006,3.7873,3.7161,3.7333,3.7391,3.7558,3.7828,3.8052,3.8234,3.8415,3.8667,3.8873,3.898,3.7902,3.7013,3.6986,3.5856,3.4857,3.4639,3.4612,3.4639,3.4808,3.4859,3.4869,2.7007,0.0,2.6665,2.6627,0.0,2.6575,2.6737,2.7116,2.6552,2.6401,2.6597,2.6527,2.6637,2.6919,2.653,2.6515,2.6794,2.6794,2.6794,2.6794,2.6794,2.6794,2.6794,2.6794,2.6794,2.6794,2.6794,2.6794,2.6791,2.6471,2.5818,2.4898,2.4433,2.3923,2.343,2.3238,2.3009,2.2748,2.2815,2.2838,2.286,2.3084,2.329,2.3348,2.3631,0.0,0.0,0.0,0.0,0.0,0.0,0.0,0.0,0.0,0.0,2.517,2.5679,2.6272,2.6864,2.7774,2.9071,3.0832,3.2005,3.2299,3.1515,3.3204,3.4608,3.5385,3.6091,3.6779,3.7501,3.7932,3.8487,3.9361,3.9561,4.0024,4.0949,4.1198,4.1312,4.1471,4.1493,4.1515,4.1582,4.1253,4.106,4.1007,4.0393,3.9901,3.9831,3.9217,3.862,3.8216,3.7604,3.7027,3.7143,3.7239,3.7429,3.7827,3.8068,3.8332,3.8649,3.8888,3.9092,3.9072,3.7915,3.6943,3.6944,3.5758,3.4612,3.4612,3.4612,3.4612,3.4612,3.4612,3.4634,2.7464,2.7378,2.6818,2.6889,2.743,2.7048,2.6985,2.707,0.0,0.0,0.0,2.7046,2.7139,2.7138,2.6905,2.6794,2.6794,2.6794,2.6794,2.6794,2.6794,2.6794,2.6794,2.6794,2.6794,2.6779,2.6704,2.6631,2.6576,2.5937,2.5348,2.4834,2.4364,2.3938,2.3554,2.3566,2.3595,2.361,2.3729,2.3789,2.3789,2.3916,2.4041,2.415,2.4187,2.4288,2.4374,2.4518,2.4597,2.4612,2.5182,2.5419,2.5327,2.6083,2.6704,2.7078,2.7907,2.8576,2.9067,2.9894,3.0943,3.2303,3.4184,3.5011,3.4303,3.4764,3.5442,3.6374,3.6968,3.7636,3.8496,3.9122,3.9662,4.0103,4.017,4.041,4.1,4.1111,4.1169,4.1335,4.1386,4.1396,4.131,4.0884,4.0414,4.0239,3.9603,3.9003,3.8866,3.8462,3.7935,3.7288,3.706,3.6989,3.7027,3.7124,3.7411,3.7791,3.8065,3.8378,3.8796,3.9003,3.9032,3.8965,3.7866,3.7012,3.6772,3.5645,3.4669,3.4612,3.4612,3.4612,3.4612,3.4612,3.4612,2.9212,2.9156,2.8532,2.8038,2.7628,2.7056,2.6679,2.6467,2.6567,2.6705,2.6813,2.6847,2.6857,2.6842,2.6837,2.6794,2.6794,2.6794,2.6794,2.6794,2.6794,2.6794,2.6794,2.6794,2.6794,2.6762,2.6239,2.5923,2.585,2.5284,2.4694,2.4282,2.42,2.3977,2.3626,2.3595,2.3595,2.361,2.4156,2.4455,2.447,2.5145,2.5508,2.5508,2.5712,2.5856,2.5893,2.6005,2.6103,2.6103,2.6195,2.5964,2.5379,2.6401,2.7041,2.7179,2.8461,2.958,3.0216,3.1439,3.2856,3.448,3.5576,3.6082,3.5959,3.6024,3.6693,3.8053,3.8283,3.8963,4.0285,4.0528,4.0614,4.0734,4.0758,4.0888,4.107,4.1093,4.114,4.1226,4.134,4.1124,4.0644,4.049,4.0147,3.9533,3.8796,3.8076,3.7672,3.7777,3.7742,3.72,3.6989,3.6989,3.6989,3.7009,3.7228,3.7739,3.8008,3.83,3.878,3.8618,3.8403,3.8421,3.7188,3.6261,3.6104,3.5296,3.4706,3.4612,3.4612,3.4612,3.4612,3.4612,3.4612,2.9602,2.949,2.8519,2.7957,2.765,2.6834,2.6556,2.6566,2.6727,2.6794,2.6794,2.6794,2.6794,2.6794,2.6794,2.6794,2.6794,2.6794,2.6794,2.6794,2.6794,2.6794,2.6794,2.6794,2.6631,2.6268,2.5963,2.5643,2.527,2.4704,2.4332,2.4141,2.3985,2.3784,2.3625,2.3595,2.3595,2.361,2.3909,2.4231,2.459,2.5033,2.5455,2.5894,2.61,2.6229,2.6312,2.6616,2.6776,2.6776,2.7377,2.738,2.6672,2.7844,2.8512,2.8387,2.9399,3.0471,3.1415,3.293,3.4151,3.4981,3.5824,3.6284,3.6284,3.6284,3.6939,3.8405,3.8594,3.9215,4.0722,4.0894,4.0894,4.0894,4.0894,4.0935,4.0982,4.0982,4.1029,4.1146,4.1244,4.1039,4.0372,4.0048,3.955,3.876,3.7988,3.7374,3.7042,3.7288,3.7409,3.7077,3.6989,3.6989,3.6972,3.6776,3.6844,3.7245,3.727,3.7458,3.7856,3.7747,3.7657,3.7587,3.6648,3.5998,3.5867,3.5184,3.4725,3.4612,3.4612,3.4612,3.4612,3.4612,3.4612,2.982,2.9707,2.8603,2.7951,2.7626,2.6783,2.6566,2.6794,2.6794,2.6794,2.6794,2.6794,2.6794,2.6794,2.6794,2.6794,2.6794,2.6794,2.6794,2.6794,2.6794,2.6794,2.6765,2.666,2.6286,2.5778,2.5502,2.5135,2.4704,2.4148,2.3927,2.4013,2.3849,2.382,2.3993,2.41,2.4176,2.4225,2.4377,2.4569,2.4867,2.5153,2.5728,2.6581,2.6795,2.697,2.7157,2.7516,2.7716,2.7753,2.8549,2.8621,2.785,2.9139,2.9704,2.9343,3.0268,3.1474,3.2771,3.4116,3.5014,3.5273,3.591,3.6284,3.6301,3.6473,3.7129,3.8353,3.875,3.9445,4.0636,4.0894,4.0894,4.0894,4.0894,4.0894,4.0894,4.0894,4.0959,4.1093,4.1013,4.0715,4.0093,3.9431,3.8722,3.797,3.7338,3.7025,3.6989,3.6989,3.6989,3.6989,3.6989,3.6989,3.6956,3.6606,3.654,3.6832,3.6637,3.673,3.6926,3.6965,3.6824,3.6742,3.6141,3.5615,3.5522,3.509,3.4669,3.4612,3.4612,3.4612,3.4612,3.4612,3.4612,3.0522,3.0406,2.9681,2.8756,2.7658,2.7016,2.6794,2.6806,2.6806,2.6794,2.6832,2.6779,2.6806,2.6794,2.682,2.6806,2.6806,2.682,2.6806,2.6832,2.6794,2.6779,2.6774,2.625,2.5876,2.5683,2.4723,2.4294,2.4197,2.3596,2.3363,2.3599,2.4019,2.4583,2.5191,2.5576,2.5873,2.6156,2.6686,2.6551,2.5803,2.6425,2.7379,2.8607,2.8746,2.9044,2.9321,2.955,2.9556,2.9572,2.9615,2.9102,2.809,2.9436,2.9864,2.873,3.0784,3.2822,3.4283,3.4755,3.5253,3.5994,3.6186,3.6284,3.6318,3.6995,3.7719,3.8508,3.9198,3.9922,4.075,4.0894,4.0894,4.0894,4.0894,4.0894,4.0894,4.0894,4.0959,4.107,4.0579,3.9943,3.9307,3.8625,3.797,3.7303,3.713,3.6989,3.7007,3.7029,3.7048,3.7029,3.7009,3.7046,3.6997,3.6607,3.6449,3.6675,3.6486,3.637,3.6423,3.6232,3.5923,3.5916,3.5409,3.4883,3.4819,3.4631,3.4631,3.4612,3.4612,3.4612,3.4612,3.4537,3.4518,3.0612,3.0539,2.9885,2.887,2.7723,2.7305,2.7144,2.717,2.7382,2.7444,2.7469,2.7429,2.7229,2.6846,2.7041,2.717,2.717,2.7372,2.7444,2.7429,2.7469,2.7444,2.7399,2.7185,2.6678,2.5947,2.5388,2.4837,2.4301,2.4079,2.4137,2.438,2.4968,2.5467,2.5785,2.6351,2.6714,2.6848,2.7132,2.7285,2.7381,2.7724,2.8392,2.9207,2.9445,2.9595,2.9793,3.0075,3.0208,3.0213,3.0038,2.95,2.8522,2.9211,2.954,2.9561,3.2056,3.391,3.4644,3.5232,3.5733,3.6187,3.6255,3.6284,3.6353,3.7422,3.8306,3.8612,3.925,4.0026,4.0774,4.0894,4.0894,4.0894,4.0894,4.0894,4.0894,4.0894,4.0821,4.0447,4.0231,3.9647,3.8622,3.7875,3.7374,3.7042,3.6989,3.6989,3.7027,3.7166,3.73,3.732,3.7468,3.7505,3.7269,3.6452,3.6199,3.6185,3.5685,3.5262,3.5354,3.5273,3.5042,3.5135,3.4846,3.462,3.465,3.4612,3.4612,3.4612,3.4612,3.4612,3.4612,3.4226,3.3963,3.094,3.0867,3.0249,2.9338,2.8292,2.7973,2.7714,2.7575,2.779,2.7889,2.7889,2.7889,2.763,2.7178,2.7423,2.7549,2.7575,2.7805,2.7889,2.7889,2.7889,2.7889,2.7898,2.7716,2.7202,2.6436,2.6169,2.5615,2.4802,2.4941,2.5111,2.5318,2.6061,2.6552,2.6812,2.7427,2.779,2.7918,2.8151,2.8498,2.8914,2.9174,2.9478,2.9821,2.993,3.0054,3.0199,3.0332,3.0379,3.0382,3.0022,2.9448,2.8738,2.9247,3.011,3.1309,3.3271,3.4634,3.4967,3.5642,3.6062,3.6187,3.6255,3.6284,3.6508,3.7525,3.8254,3.8336,3.9129,4.0026,4.0756,4.0894,4.0894,4.0894,4.0894,4.0894,4.0894,4.0894,4.0648,4.0077,3.9837,3.9269,3.8017,3.7316,3.7025,3.7007,3.6989,3.7048,3.7145,3.7357,3.7505,3.7614,3.7733,3.7588,3.729,3.6522,3.5988,3.552,3.4984,3.4425,3.437,3.4427,3.4514,3.4791,3.4636,3.4602,3.4612,3.4612,3.4612,3.4612,3.4612,3.45,3.4207,3.3757,3.3381,3.1851,3.1732,3.1195,3.0428,2.9743,2.9158,2.8521,2.7889,2.7938,2.7923,2.7963,2.7923,2.7898,2.7864,2.7913,2.7889,2.7874,2.7923,2.7987,2.7987,2.7947,2.7913,2.7868,2.733,2.7147,2.7195,2.6762,2.6265,2.579,2.5898,2.5955,2.6027,2.7106,2.7968,2.8533,2.8964,2.9457,2.9722,3.0203,3.048,3.0294,3.0734,3.0774,3.0431,3.0444,3.0608,3.0917,3.0456,3.0085,3.0104,2.9447,2.8739,2.8179,2.9956,3.2019,3.3846,3.4392,3.4893,3.5613,3.5915,3.6062,3.6187,3.6255,3.6284,3.6335,3.7129,3.7655,3.7581,3.8955,4.0095,4.0781,4.089,4.0918,4.0959,4.0918,4.0918,4.0942,4.1041,4.0683,4.0108,3.9438,3.859,3.7325,3.7042,3.7068,3.7087,3.7029,3.7147,3.745,3.7541,3.7703,3.7748,3.7449,3.6874,3.6783,3.6217,3.5681,3.5349,3.4875,3.4233,3.4293,3.4351,3.4439,3.4495,3.4558,3.4591,3.4602,3.4612,3.4612,3.4612,3.4612,3.4443,3.3888,3.3569,3.3062,3.1908,3.1847,3.125,3.0566,2.9909,2.9516,2.8981,2.8334,2.8574,2.8669,2.8669,2.8669,2.8669,2.8685,2.8669,2.8527,2.8343,2.8535,2.8669,2.8669,2.8669,2.8669,2.8638,2.8444,2.8208,2.7987,2.78,2.7556,2.732,2.7456,2.7535,2.7669,2.8358,2.8947,2.9247,2.9799,3.022,3.0456,3.0773,3.0834,3.0744,3.1052,3.0909,3.0283,3.0247,3.0325,3.0514,2.9786,2.9399,2.9416,2.9145,2.9111,2.9463,3.1393,3.2933,3.3761,3.4757,3.5489,3.5876,3.6058,3.6148,3.6255,3.6297,3.6305,3.6422,3.7029,3.7603,3.808,3.9264,4.0364,4.0797,4.0918,4.0995,4.1232,4.1283,4.1418,4.1644,4.1713,4.134,4.0213,3.9124,3.8168,3.7846,3.7703,3.7703,3.7685,3.7685,3.7739,3.7879,3.8048,3.8085,3.7755,3.7554,3.7135,3.5993,3.5618,3.5243,3.5148,3.481,3.4407,3.4281,3.4305,3.4381,3.4461,3.4536,3.458,3.4572,3.4612,3.4612,3.4612,3.4612,3.4245,3.3558,3.31,3.2357,3.2355,3.2293,3.1905,3.1332,3.068,3.0276,2.9715,2.9084,2.9077,2.9114,2.9114,2.9114,2.9114,2.9114,2.9114,2.8959,2.8716,2.8982,2.9114,2.9114,2.9114,2.9114,2.9137,2.919,2.9096,2.886,2.8753,2.8665,2.8553,2.8662,2.8721,2.8754,2.9417,2.9744,2.9843,3.0257,3.0572,3.0749,3.0834,3.0851,3.0749,3.0796,3.0497,2.9837,2.948,2.948,2.9702,2.9008,2.8738,2.8925,2.8756,2.9279,3.0784,3.2442,3.3643,3.4167,3.5174,3.5861,3.5975,3.6122,3.6276,3.6454,3.6512,3.6533,3.671,3.7187,3.7591,3.8126,3.932,4.0382,4.0641,4.1028,4.1423,4.1687,4.1713,4.1842,4.2118,4.1928,4.1133,3.9873,3.8797,3.8195,3.8101,3.8085,3.8068,3.8101,3.8101,3.8118,3.8265,3.8405,3.8382,3.7702,3.747,3.6843,3.5866,3.518,3.4818,3.4704,3.4717,3.4407,3.4276,3.4281,3.4316,3.4416,3.4484,3.4528,3.4561,3.4602,3.4612,3.4612,3.45,3.4245,3.3419,3.2536,3.1785,3.3266,3.3214,3.3266,3.2756,3.2047,3.1417,3.0788,3.0046,2.943,2.9193,2.913,2.9114,2.9114,2.9114,2.9114,2.9091,2.9052,2.9091,2.9114,2.9114,2.9114,2.9114,2.9144,2.935,2.9566,2.9686,2.9518,2.9426,2.9393,2.9413,2.9413,2.9546,3.0075,3.0357,3.0456,3.0493,3.063,3.0831,3.0892,3.0673,3.0188,3.0207,2.9854,2.9094,2.8433,2.8383,2.8976,2.8264,2.8213,2.8773,2.8433,2.9347,3.1935,3.3169,3.4078,3.5238,3.5694,3.5883,3.6019,3.6187,3.6468,3.6801,3.69,3.7055,3.7283,3.7448,3.7538,3.7844,3.9023,3.999,4.0224,4.1348,4.2198,4.2198,4.2198,4.2218,4.2154,4.1524,4.0511,3.9337,3.8572,3.8154,3.8117,3.82,3.8249,3.8232,3.8216,3.8314,3.8551,3.8658,3.8427,3.7822,3.7254,3.6519,3.564,3.4829,3.4501,3.4253,3.4309,3.4228,3.4221,3.4245,3.4281,3.4351,3.4439,3.4484,3.4539,3.458,3.4583,3.4564,3.4414,3.4057,3.3025,3.2086,3.1297,3.3293,3.3293,3.3293,3.2898,3.2307,3.2054,3.1311,3.0236,2.9927,2.9595,2.9177,2.9114,2.9114,2.9114,2.9114,2.9114,2.9114,2.9114,2.9114,2.9114,2.9114,2.9213,2.9357,2.947,2.9694,3.0032,3.0149,3.0141,3.0125,3.0125,3.0158,3.0224,3.0373,3.0489,3.0506,3.0609,3.0749,3.0892,3.0935,3.09,3.0818,3.0362,2.9753,2.9077,2.8756,2.8535,2.8179,2.7925,2.7925,2.8264,2.9448,3.1258,3.3389,3.4523,3.5154,3.5666,3.5883,3.6131,3.6457,3.6618,3.686,3.7227,3.7321,3.7377,3.7487,3.7523,3.765,3.8005,3.9355,4.0402,4.0887,4.214,4.2813,4.2693,4.2692,4.2716,4.265,4.1866,4.0871,3.9894,3.917,3.8818,3.8763,3.8763,3.8718,3.8733,3.8733,3.8807,3.8898,3.8913,3.8345,3.7336,3.6779,3.6166,3.5126,3.455,3.4383,3.4216,3.4216,3.4216,3.4209,3.4221,3.4257,3.4305,3.4374,3.4431,3.4506,3.4528,3.4539,3.4524,3.4441,3.3634,3.2499,3.1673,3.1016,3.3293,3.3293,3.3293,3.3056,3.2655,3.2418,3.1643,3.0607,3.0299,2.9785,2.9209,2.9114,2.9114,2.9114,2.9114,2.9183,2.9236,2.9243,2.9305,2.9335,2.9266,2.9396,2.9605,2.9716,2.9951,3.0274,3.0443,3.0489,3.0489,3.0489,3.0489,3.0489,3.0489,3.0489,3.0526,3.063,3.077,3.0892,3.0972,3.0937,3.0748,3.0345,2.9753,2.9128,2.8993,2.8756,2.8281,2.85,2.8652,2.9041,3.0818,3.2797,3.4387,3.5148,3.5717,3.6002,3.6156,3.6433,3.6847,3.7057,3.7284,3.7632,3.7721,3.7808,3.7896,3.7948,3.8085,3.8469,3.9483,4.0367,4.0771,4.1774,4.2424,4.2285,4.2486,4.2484,4.2214,4.1422,4.056,3.9745,3.9285,3.9143,3.9101,3.9101,3.9101,3.9101,3.9101,3.9101,3.9101,3.9069,3.8135,3.7262,3.6792,3.5869,3.4569,3.4234,3.4234,3.4216,3.4216,3.4216,3.4209,3.4209,3.4233,3.4281,3.434,3.4386,3.445,3.4461,3.4454,3.4431,3.4352,3.3339,3.2327,3.17,3.1016,3.3293,3.3293,3.3293,3.3293,3.3166,3.2655,3.1991,3.1223,3.0575,2.9911,2.9335,2.9161,2.9114,2.9114,2.9114,2.9236,2.9448,2.947,2.9605,2.97,2.9671,2.9671,2.9832,3.0044,3.0274,3.0447,3.0489,3.0489,3.0489,3.0489,3.0489,3.0489,3.0489,3.0489,3.051,3.0634,3.079,3.0892,3.0975,3.0771,3.0326,3.0123,2.982,2.9162,2.9145,2.9128,2.9162,2.9707,3.0163,3.0463,3.2188,3.3596,3.452,3.5243,3.592,3.6416,3.658,3.6902,3.7248,3.7469,3.7685,3.8068,3.8135,3.8269,3.8533,3.853,3.8546,3.8682,3.9449,3.9958,4.012,4.0818,4.1189,4.1168,4.1724,4.1537,4.0246,4.013,3.9856,3.9254,3.9021,3.9101,3.9101,3.9101,3.9101,3.9101,3.9101,3.9101,3.9101,3.8897,3.8247,3.7522,3.6792,3.5789,3.455,3.4216,3.4216,3.4216,3.4216,3.4216,3.4216,3.4209,3.4209,3.4257,3.4293,3.4328,3.4363,3.4374,3.4397,3.4413,3.393,3.3061,3.2371,3.1764,3.1081,3.3293,3.3293,3.3293,3.3293,3.3293,3.3087,3.2639,3.1975,3.1223,3.0496,2.9911,2.9319,2.9114,2.9114,2.9137,2.9236,2.9515,2.956,2.9754,3.006,3.006,3.0038,3.0108,3.03,3.0426,3.0489,3.0489,3.0489,3.0489,3.051,3.051,3.0489,3.0551,3.051,3.051,3.0753,3.0851,3.0912,3.1072,3.1106,3.0888,3.04,3.004,2.9871,2.9822,2.9841,2.9909,3.0747,3.1447,3.1769,3.2747,3.3896,3.4977,3.5765,3.6416,3.6902,3.706,3.7341,3.7773,3.7912,3.8135,3.8483,3.8499,3.8562,3.8676,3.8707,3.8707,3.8836,3.9405,3.9863,4.001,4.0579,4.0747,4.0432,4.0873,4.0963,4.0215,4.0031,3.9793,3.9149,3.9064,3.9087,3.9101,3.9101,3.9101,3.9101,3.9101,3.9101,3.9101,3.8878,3.8339,3.7355,3.6519,3.5627,3.4829,3.442,3.4216,3.4216,3.4216,3.4216,3.4216,3.4216,3.4209,3.4221,3.4245,3.4269,3.4305,3.4316,3.4351,3.4363,3.4012,3.3399,3.2601,3.1912,3.122,3.3293,3.3293,3.3293,3.3293,3.3293,3.3293,3.294,3.2244,3.1523,3.0828,3.0133,2.9398,2.9213,2.9364,2.9416,2.9705,3.0081,3.0161,3.0393,3.0695,3.0777,3.0613,3.0426,3.0464,3.0489,3.0489,3.0489,3.0593,3.0692,3.0712,3.0777,3.0902,3.0902,3.0918,3.0978,3.1176,3.1312,3.137,3.1524,3.1674,3.1623,3.1243,3.1089,3.1038,3.1038,3.1038,3.1143,3.1616,3.2205,3.2798,3.3532,3.4527,3.5772,3.6362,3.6904,3.7414,3.7524,3.779,3.8236,3.8352,3.8449,3.8643,3.8707,3.8707,3.8707,3.8707,3.8707,3.8781,3.9166,3.935,3.946,3.9845,3.9827,3.9533,3.984,3.996,3.9547,3.9542,3.9449,3.9155,3.9064,3.9101,3.9101,3.9101,3.9101,3.9101,3.9101,3.9101,3.9064,3.8785,3.8284,3.7243,3.6278,3.5404,3.4773,3.4346,3.4216,3.4216,3.4216,3.4216,3.4216,3.4216,3.4216,3.4209,3.4216,3.4228,3.4264,3.4269,3.4269,3.4218,3.4074,3.3679,3.2836,3.2254,3.1536,3.345,3.3487,3.3487,3.3487,3.3549,3.3497,3.3307,3.2577,3.1845,3.1174,3.0559,2.9685,2.9611,2.9903,3.0,3.0344,3.0945,3.0925,3.1142,3.1312,3.1351,3.1137,3.0736,3.0733,3.0716,3.0695,3.063,3.0814,3.0995,3.1055,3.1193,3.1332,3.1428,3.1466,3.1428,3.171,3.1858,3.1876,3.2021,3.2162,3.2144,3.2057,3.2004,3.2004,3.2022,3.2108,3.2177,3.2403,3.2773,3.3741,3.4303,3.5231,3.6554,3.6916,3.7341,3.7773,3.7981,3.8218,3.8578,3.8643,3.8658,3.8707,3.8707,3.8707,3.8707,3.8707,3.8707,3.8707,3.8707,3.8817,3.8836,3.8817,3.8872,3.8869,3.8875,3.8844,3.8818,3.8921,3.8993,3.9007,3.9059,3.9087,3.9101,3.9101,3.9101,3.9101,3.9101,3.9101,3.8897,3.8544,3.7894,3.6965,3.6086,3.5219,3.468,3.4216,3.4216,3.4216,3.4216,3.4216,3.4216,3.4216,3.4216,3.4216,3.4216,3.4216,3.4228,3.4209,3.4209,3.4147,3.4034,3.3599,3.3045,3.2664,3.2072,3.4488,3.4726,3.471,3.471,3.4726,3.4703,3.4603,3.4339,3.3059,3.2347,3.2001,3.0927,3.0439,3.058,3.0605,3.0808,3.1103,3.1181,3.1237,3.1466,3.1485,3.1447,3.1293,3.1293,3.1274,3.1254,3.1274,3.1312,3.1387,3.1389,3.1445,3.1521,3.1579,3.1504,3.1579,3.184,3.1894,3.1948,3.2179,3.2351,3.2368,3.2368,3.2351,3.2351,3.2368,3.2452,3.2668,3.2699,3.3541,3.4715,3.5012,3.542,3.656,3.7292,3.7825,3.8183,3.8415,3.8562,3.8673,3.8707,3.8707,3.8707,3.8707,3.8707,3.8707,3.8707,3.8707,3.8707,3.8707,3.8707,3.8707,3.8707,3.8707,3.8704,3.8792,3.8881,3.8877,3.895,3.9021,3.9059,3.9069,3.9101,3.9101,3.9101,3.9101,3.9101,3.9101,3.9101,3.8785,3.8377,3.7615,3.6829,3.6012,3.5213,3.4569,3.4216,3.4216,3.4216,3.4216,3.4216,3.4216,3.4216,3.4216,3.4216,3.4216,3.4216,3.4216,3.4216,3.4209,3.4116,3.4023,3.3713,3.3364,3.303,3.2877,3.4955,3.5107,3.509,3.509,3.509,3.509,3.509,3.4822,3.3528,3.2892,3.2574,3.1353,3.0871,3.1086,3.1164,3.1336,3.1564,3.1693,3.1784,3.1929,3.1929,3.1929,3.1911,3.1874,3.1819,3.156,3.1485,3.156,3.1654,3.171,3.1784,3.1911,3.1911,3.2002,3.2038,3.2231,3.2403,3.252,3.2685,3.2814,3.2814,3.2832,3.2814,3.2798,3.2814,3.291,3.3068,3.3497,3.44,3.5387,3.5799,3.6235,3.7173,3.7813,3.8231,3.8462,3.8609,3.8692,3.8707,3.8707,3.8707,3.8707,3.8707,3.8707,3.8707,3.8707,3.8707,3.8707,3.8707,3.8707,3.8707,3.8707,3.8707,3.8704,3.8792,3.8848,3.8877,3.8964,3.9064,3.9087,3.9101,3.9101,3.9101,3.9101,3.9101,3.9101,3.9101,3.9082,3.8878,3.8414,3.7615,3.6816,3.6012,3.525,3.4531,3.4216,3.4216,3.4216,3.4216,3.4216,3.4216,3.4216,3.4216,3.4216,3.4216,3.4216,3.4216,3.4216,3.4216,3.416,3.4079,3.3905,3.3799,3.3629,3.3559,3.5335,3.538,3.538,3.538,3.5397,3.5425,3.547,3.5222,3.3946,3.3486,3.2951,3.1702,3.1509,3.1545,3.1675,3.193,3.2144,3.2267,3.2284,3.2301,3.2301,3.2301,3.2301,3.2267,3.2126,3.1671,3.1709,3.1838,3.1948,3.1984,3.209,3.2336,3.2388,3.2336,3.254,3.277,3.285,3.2928,3.315,3.3286,3.3301,3.3319,3.3301,3.3286,3.3286,3.343,3.3677,3.4199,3.4989,3.5962,3.6712,3.7487,3.8152,3.8433,3.8544,3.8544,3.8643,3.8692,3.8707,3.8707,3.8707,3.8707,3.8707,3.8707,3.8707,3.8707,3.8707,3.8707,3.8707,3.8719,3.875,3.8777,3.8807,3.8848,3.8888,3.8917,3.8974,3.9082,3.9192,3.9073,3.9087,3.9101,3.9101,3.9101,3.9101,3.9096,3.9096,3.904,3.8836,3.8302,3.7448,3.6575,3.5733,3.5083,3.4383,3.4216,3.4216,3.4216,3.4216,3.4216,3.4216,3.4216,3.4216,3.4216,3.4216,3.4216,3.4216,3.4216,3.4216,3.4216,3.416,3.4061,3.4122,3.4239,3.4139,3.643,3.6696,3.6696,3.6696,3.6676,3.6676,3.6597,3.6536,3.5583,3.4931,3.425,3.3414,3.2595,3.2336,3.2249,3.2319,3.2354,3.2406,3.2406,3.2406,3.2406,3.2406,3.2406,3.2406,3.2301,3.2284,3.2214,3.2231,3.2284,3.2336,3.2319,3.2388,3.2406,3.244,3.2541,3.2722,3.2898,3.3008,3.3259,3.3378,3.3393,3.3484,3.352,3.3538,3.361,3.3918,3.4317,3.4606,3.5307,3.671,3.7044,3.7669,3.8264,3.8476,3.8559,3.8643,3.8673,3.8707,3.8707,3.8707,3.8707,3.8707,3.8707,3.8707,3.8707,3.8707,3.8723,3.8735,3.8765,3.8792,3.9003,3.9031,3.9146,3.9287,3.9364,3.9414,3.9482,3.9525,3.9452,3.9192,3.9137,3.9151,3.9213,3.9253,3.9266,3.9253,3.9232,3.9056,3.8824,3.804,3.7039,3.6185,3.533,3.4773,3.4216,3.4216,3.4216,3.4216,3.4216,3.4216,3.4216,3.4216,3.4216,3.4216,3.4216,3.4216,3.4216,3.4216,3.4216,3.4216,3.4216,3.4216,3.4209,3.4233,3.4221,3.6849,3.6989,3.6989,3.6989,3.6989,3.6989,3.6989,3.6865,3.6162,3.539,3.4635,3.3845,3.309,3.2564,3.2406,3.2406,3.2406,3.2406,3.2406,3.2406,3.2406,3.2406,3.2406,3.2406,3.2406,3.2406,3.2406,3.2406,3.2406,3.2406,3.2406,3.2406,3.2406,3.244,3.254,3.2753,3.2914,3.3042,3.3241,3.3393,3.3465,3.3737,3.4009,3.4081,3.4407,3.4844,3.5152,3.5711,3.6211,3.7017,3.7569,3.8031,3.8366,3.8575,3.8643,3.8689,3.8707,3.8707,3.8707,3.8707,3.8707,3.8707,3.8707,3.8707,3.8707,3.8707,3.878,3.891,3.9073,3.9151,3.9298,3.9311,3.9377,3.9482,3.9555,3.9595,3.9652,3.9736,3.9609,3.9414,3.9482,3.9524,3.9488,3.95,3.9482,3.9427,3.937,3.9113,3.8825,3.7952,3.6951,3.5826,3.5039,3.463,3.424,3.4216,3.4216,3.4216,3.4216,3.4216,3.4216,3.4216,3.4216,3.4216,3.4216,3.4216,3.4216,3.4216,3.4216,3.4216,3.4216,3.4216,3.4216,3.4216,3.4216,3.6989,3.6989,3.6989,3.6989,3.6989,3.6989,3.6989,3.6847,3.6355,3.5548,3.467,3.4021,3.3266,3.2599,3.2406,3.2406,3.2406,3.2406,3.2406,3.2406,3.2406,3.2406,3.2406,3.2406,3.2406,3.2406,3.2406,3.2406,3.2406,3.2406,3.2406,3.2406,3.2406,3.2474,3.2606,3.2786,3.2963,3.3119,3.3286,3.3393,3.3592,3.4154,3.4609,3.4682,3.5403,3.5804,3.6073,3.649,3.6987,3.7485,3.7984,3.846,3.8603,3.867,3.875,3.884,3.8765,3.8707,3.8707,3.8707,3.8719,3.8807,3.8777,3.8807,3.8896,3.8964,3.8993,3.9165,3.9337,3.9502,3.9563,3.958,3.9644,3.9717,3.9731,3.9731,3.9851,3.9913,3.9973,3.9901,3.9932,3.9851,3.9765,3.9668,3.9641,3.9648,3.9566,3.911,3.8754,3.807,3.7023,3.5688,3.4826,3.4492,3.4245,3.4216,3.4216,3.4216,3.4216,3.4216,3.4216,3.4216,3.4216,3.4216,3.4216,3.4216,3.4216,3.4216,3.4216,3.4216,3.4216,3.4216,3.4216,3.4216,3.4216,3.6989,3.6989,3.6989,3.6989,3.6989,3.6989,3.6989,3.6972,3.6849,3.6004,3.4688,3.453,3.3705,3.2669,3.2406,3.2406,3.2406,3.2406,3.2406,3.2406,3.2406,3.2406,3.2406,3.2406,3.2406,3.2406,3.2406,3.2406,3.2423,3.2423,3.2406,3.2406,3.244,3.2474,3.2606,3.2836,3.2961,3.3101,3.3304,3.3447,3.361,3.4298,3.4715,3.4969,3.553,3.6272,3.6777,3.7136,3.7435,3.8127,3.8305,3.8634,3.8902,3.8807,3.9003,3.9096,3.9017,3.8707,3.875,3.8795,3.8862,3.9003,3.9045,3.9197,3.9259,3.935,3.9389,3.9439,3.9526,3.964,3.9818,3.9846,3.9982,4.0129,4.0187,4.0223,4.0302,4.0148,4.0194,4.023,4.0221,4.0062,3.9943,3.9851,3.9797,3.9786,3.9692,3.9234,3.8461,3.761,3.6844,3.5465,3.4877,3.4551,3.4454,3.4397,3.4316,3.4281,3.4276,3.4264,3.4216,3.4216,3.4216,3.4216,3.4216,3.4216,3.4216,3.4216,3.4216,3.4216,3.4216,3.4216,3.4216,3.4216,3.4216,3.6989,3.6989,3.6989,3.6989,3.6989,3.6989,3.6989,3.6989,3.6972,3.6129,3.4898,3.4688,3.3828,3.2634,3.2406,3.2406,3.2406,3.2406,3.2406,3.2406,3.2406,3.2406,3.2406,3.2406,3.2406,3.2406,3.2423,3.2456,3.2456,3.244,3.2406,3.244,3.2491,3.254,3.2654,3.2882,3.3008,3.3276,3.3668,3.4066,3.4407,3.5204,3.5928,3.5965,3.6705,3.723,3.757,3.781,3.8015,3.8538,3.8691,3.8937,3.9151,3.9178,3.9285,3.9395,3.9311,3.9165,3.917,3.9156,3.9224,3.9285,3.9337,3.9357,3.9495,3.9628,3.9728,3.9728,3.9889,4.0007,4.008,4.0129,4.0243,4.0379,4.0441,4.0463,4.0492,4.0492,4.0441,4.0473,4.0481,4.0302,4.0167,4.0138,4.012,4.012,3.9843,3.9309,3.8061,3.6595,3.5882,3.5112,3.4836,3.4751,3.4722,3.468,3.4575,3.4539,3.4461,3.4416,3.4252,3.4216,3.4216,3.4216,3.4216,3.4216,3.4216,3.4216,3.4216,3.4216,3.4216,3.4216,3.4216,3.4216,3.4216,3.6989,3.6989,3.6989,3.6989,3.6989,3.6989,3.6989,3.6989,3.6989,3.6146,3.4881,3.4249,3.3389,3.2651,3.2406,3.2406,3.2406,3.2406,3.2406,3.2406,3.2406,3.2406,3.2406,3.2406,3.2406,3.2406,3.2406,3.2456,3.2523,3.2506,3.249,3.2525,3.264,3.2705,3.2802,3.2997,3.3206,3.3643,3.4202,3.4609,3.5077,3.6198,3.6789,3.7239,3.7764,3.8289,3.8405,3.8476,3.8597,3.8789,3.8994,3.9213,3.9421,3.9433,3.9563,3.967,3.9647,3.9604,3.9599,3.9575,3.9563,3.9599,3.9682,3.9758,3.9751,3.9903,3.9996,3.9996,4.0118,4.0244,4.0317,4.0316,4.0388,4.0449,4.0491,4.0503,4.05,4.05,4.05,4.0489,4.0496,4.0496,4.0414,4.0457,4.0465,4.0457,4.0044,3.9395,3.795,3.624,3.5492,3.501,3.4982,3.4926,3.4851,3.4831,3.4781,3.474,3.4668,3.458,3.4427,3.4276,3.4216,3.4216,3.4245,3.4216,3.4216,3.4216,3.4216,3.4216,3.4216,3.4216,3.4216,3.4216,3.4216,3.6989,3.6989,3.7007,3.6989,3.6989,3.6989,3.6989,3.6989,3.6972,3.6059,3.4495,3.3336,3.2669,3.2423,3.2406,3.2406,3.2406,3.2406,3.2406,3.2406,3.2406,3.2406,3.2406,3.2406,3.2406,3.2406,3.2422,3.2507,3.2606,3.2703,3.2737,3.2834,3.2866,3.2945,3.3024,3.315,3.3668,3.4157,3.4718,3.5208,3.5807,3.6658,3.721,3.7494,3.8052,3.8588,3.8837,3.8848,3.8913,3.9091,3.924,3.9458,3.9705,3.9663,3.9804,4.0005,3.9965,3.9975,4.0007,3.9837,3.9705,3.987,4.0046,4.0137,4.0117,4.0205,4.0273,4.0244,4.0272,4.0289,4.0334,4.0396,4.0458,4.0491,4.0495,4.0492,4.0489,4.0489,4.0489,4.0496,4.0496,4.0496,4.0496,4.0496,4.0496,4.0481,3.9731,3.9076,3.8028,3.6554,3.5741,3.5234,3.5201,3.5107,3.4945,3.4917,3.4963,3.4927,3.484,3.473,3.4612,3.4473,3.4374,3.4351,3.439,3.4305,3.4252,3.4293,3.4316,3.4252,3.4216,3.4216,3.4216,3.4216,3.4216,3.7391,3.7354,3.7354,3.7222,3.6989,3.6989,3.6989,3.6902,3.6461,3.5407,3.3915,3.2897,3.2406,3.2406,3.2406,3.2406,3.2406,3.2406,3.2423,3.2406,3.2406,3.2406,3.2406,3.244,3.2406,3.2457,3.249,3.2623,3.277,3.2957,3.3202,3.328,3.3178,3.3055,3.3117,3.3429,3.4047,3.4772,3.5454,3.6127,3.6967,3.7704,3.8208,3.8339,3.8464,3.877,3.8892,3.9036,3.917,3.9324,3.9526,3.9751,3.9956,3.9924,4.0067,4.0273,4.0166,4.0215,4.0253,4.0106,4.0048,4.0098,4.0244,4.032,4.032,4.031,4.031,4.0309,4.0317,4.0334,4.0413,4.0466,4.0491,4.0495,4.05,4.0489,4.0496,4.0496,4.0496,4.0496,4.0496,4.0496,4.0496,4.0496,4.0496,4.0431,3.9573,3.8719,3.7757,3.6757,3.5854,3.5395,3.5346,3.5346,3.5209,3.5182,3.5198,3.5107,3.5001,3.4908,3.4811,3.4781,3.4701,3.463,3.4588,3.4596,3.4564,3.4498,3.4431,3.4363,3.4269,3.4216,3.4216,3.424,3.4216,3.7595,3.7595,3.7595,3.7429,3.7201,3.7124,3.7085,3.6927,3.6199,3.4932,3.3476,3.2757,3.2457,3.2507,3.2523,3.2623,3.2706,3.2722,3.269,3.2706,3.2739,3.2673,3.2673,3.2705,3.2802,3.2721,3.2816,3.2988,3.3169,3.3372,3.356,3.3606,3.3522,3.3441,3.3524,3.3921,3.4541,3.5372,3.6297,3.7207,3.8024,3.8508,3.888,3.8909,3.8974,3.9087,3.9197,3.9343,3.9464,3.9654,3.9815,3.9996,4.0137,4.0234,4.0291,4.032,4.032,4.032,4.032,4.0301,4.0301,4.0282,4.0291,4.032,4.0301,4.032,4.0318,4.0317,4.0325,4.0396,4.0502,4.0499,4.0495,4.0508,4.0508,4.0496,4.0496,4.0496,4.0496,4.0496,4.0496,4.0496,4.0496,4.0496,4.0496,4.0208,3.9181,3.8488,3.7911,3.6853,3.5743,3.546,3.5453,3.546,3.5467,3.5429,3.5396,3.5289,3.5193,3.5098,3.5028,3.5001,3.4927,3.4802,3.4792,3.4889,3.485,3.4722,3.4607,3.448,3.442,3.4363,3.4335,3.4347,3.424,3.7613,3.7595,3.7631,3.7613,3.7558,3.739,3.7279,3.7011,3.6066,3.483,3.3442,3.2721,3.259,3.2732,3.2781,3.2923,3.3124,3.3202,3.3202,3.3187,3.3142,3.3199,3.3247,3.3247,3.3184,3.3343,3.3372,3.3443,3.3607,3.3702,3.3845,3.4157,3.4292,3.4197,3.4102,3.4779,3.5568,3.6375,3.7234,3.7998,3.866,3.8952,3.9073,3.9188,3.9224,3.9337,3.9489,3.9587,3.9735,3.9933,4.0005,4.0127,4.0253,4.0282,4.032,4.032,4.032,4.032,4.032,4.032,4.032,4.032,4.032,4.031,4.032,4.0309,4.0326,4.0334,4.0405,4.0466,4.0499,4.0503,4.05,4.0496,4.0496,4.0496,4.0496,4.0496,4.0496,4.0496,4.0496,4.0496,4.0496,4.0496,4.0496,3.9996,3.8873,3.82,3.7853,3.7065,3.5962,3.5962,3.6019,3.6238,3.6257,3.575,3.5568,3.547,3.5369,3.5266,3.5193,3.5143,3.5054,3.4964,3.501,3.5098,3.5019,3.4917,3.4851,3.4783,3.4639,3.4583,3.4517,3.4484,3.442,3.8003,3.8003,3.8003,3.8003,3.7933,3.7649,3.7218,3.6523,3.5261,3.4038,3.3221,3.2793,3.2848,3.3001,3.3075,3.3214,3.3419,3.3447,3.3447,3.3443,3.3458,3.3433,3.3476,3.3532,3.35,3.35,3.3584,3.3675,3.3688,3.393,3.4494,3.4915,3.5473,3.5529,3.5291,3.5736,3.6656,3.737,3.7951,3.8489,3.9242,3.9354,3.938,3.9439,3.9477,3.9568,3.9717,3.9773,3.9933,4.0077,4.0117,4.0186,4.0282,4.032,4.032,4.032,4.032,4.032,4.032,4.032,4.032,4.032,4.031,4.032,4.0309,4.0317,4.0334,4.0405,4.0458,4.0499,4.0492,4.05,4.0496,4.0496,4.0496,4.0496,4.0496,4.0496,4.0496,4.0496,4.0496,4.0496,4.0496,4.0496,4.0496,4.0112,3.9084,3.845,3.8065,3.7315,3.6423,3.668,3.6853,3.7103,3.7084,3.6603,3.6192,3.6094,3.578,3.5432,3.5354,3.5342,3.5312,3.5299,3.5304,3.5289,3.5234,3.5185,3.5166,3.5096,3.4945,3.4831,3.4781,3.4752,3.4752,3.8209,3.8209,3.8256,3.8257,3.814,3.7846,3.7077,3.5899,3.4562,3.3598,3.3025,3.29,3.3083,3.3243,3.3302,3.3528,3.376,3.3738,3.3805,3.3787,3.3813,3.3852,3.3858,3.3813,3.3917,3.3878,3.3943,3.4043,3.4068,3.4293,3.4822,3.5691,3.686,3.6919,3.6752,3.7125,3.753,3.8097,3.8515,3.9014,3.9452,3.9583,3.9619,3.9649,3.9689,3.9785,3.9848,3.9933,4.0026,4.0108,4.0166,4.0215,4.0282,4.032,4.032,4.032,4.032,4.032,4.032,4.032,4.032,4.032,4.032,4.0309,4.0326,4.0362,4.0405,4.0466,4.0491,4.0495,4.0508,4.0496,4.0496,4.0496,4.0496,4.0496,4.0496,4.0496,4.0496,4.0496,4.0496,4.0496,4.0496,4.0496,4.0496,3.9958,3.9354,3.8854,3.8373,3.77,3.7161,3.7373,3.7546,3.77,3.77,3.743,3.7065,3.675,3.6442,3.6115,3.5678,3.5679,3.5645,3.5596,3.5554,3.5494,3.5472,3.5446,3.5503,3.5419,3.5234,3.5115,3.5028,3.4992,3.4973,3.8153,3.8152,3.8378,3.831,3.808,3.7694,3.6696,3.5182,3.436,3.3623,3.2979,3.3039,3.3291,3.3611,3.348,3.3733,3.4203,3.4142,3.4203,3.4305,3.4274,3.4328,3.4351,3.4374,3.434,3.442,3.4484,3.4409,3.4569,3.5034,3.5477,3.6287,3.7676,3.8008,3.8165,3.8221,3.8383,3.8677,3.9039,3.9395,3.9619,3.9672,3.9689,3.9747,3.9826,3.9943,4.0026,4.0096,4.0166,4.0234,4.0291,4.032,4.032,4.032,4.032,4.032,4.032,4.032,4.032,4.032,4.032,4.031,4.0317,4.0307,4.0353,4.0396,4.0466,4.0479,4.0503,4.05,4.0496,4.0496,4.0496,4.0496,4.0496,4.0496,4.0496,4.0496,4.0496,4.0496,4.0496,4.0496,4.0496,4.0496,4.0496,4.0265,3.9861,3.965,3.9123,3.8527,3.8104,3.8104,3.8238,3.8257,3.8219,3.8257,3.7988,3.7719,3.7507,3.718,3.6654,3.6231,3.6423,3.6385,3.5904,3.5827,3.6212,3.6154,3.5916,3.5835,3.604,3.553,3.5474,3.5172,3.5072,3.7231,3.6811,3.7547,3.7496,3.6857,3.6245,3.5652,3.5129,3.4357,3.3858,3.3689,3.3675,3.3797,3.4111,3.4055,3.4227,3.4386,3.4495,3.4495,3.4517,3.4517,3.4539,3.4539,3.455,3.458,3.4591,3.4602,3.4631,3.4902,3.5495,3.6648,3.7756,3.8413,3.892,3.9138,3.9195,3.9157,3.9195,3.947,3.9575,3.9661,3.9693,3.9751,3.9848,3.9965,4.0067,4.0117,4.0205,4.0253,4.0291,4.032,4.032,4.032,4.032,4.032,4.032,4.032,4.032,4.031,4.0319,4.0318,4.0336,4.037,4.0415,4.0424,4.043,4.0499,4.0503,4.05,4.0489,4.0496,4.0496,4.0496,4.0496,4.0496,4.0496,4.0496,4.0496,4.0496,4.0496,4.0496,4.0496,4.0496,4.0496,4.0496,4.0439,4.0323,4.015,3.9881,3.9277,3.8988,3.8977,3.9111,3.92,3.9296,3.9335,3.8988,3.8681,3.8469,3.8161,3.7584,3.7276,3.7392,3.7238,3.6846,3.6981,3.7373,3.7142,3.6757,3.7142,3.7298,3.6522,3.5897,3.5748,3.5613,3.6483,3.6204,3.6854,3.6763,3.6159,3.5588,3.5199,3.4891,3.4277,3.3998,3.3998,3.3985,3.4111,3.4245,3.4209,3.4293,3.4561,3.4484,3.4484,3.4591,3.4612,3.4602,3.4612,3.4612,3.4602,3.4612,3.4612,3.4612,3.5007,3.5852,3.6967,3.7699,3.8657,3.9232,3.9439,3.9514,3.9552,3.9557,3.9613,3.9672,3.9712,3.9785,3.9911,3.9994,4.0117,4.0157,4.0176,4.0282,4.0301,4.032,4.032,4.032,4.032,4.032,4.032,4.032,4.032,4.032,4.0319,4.0308,4.0316,4.0342,4.0441,4.0477,4.0474,4.0491,4.0503,4.0508,4.0489,4.0496,4.0496,4.0496,4.0496,4.0496,4.0496,4.0496,4.0496,4.0496,4.0496,4.0496,4.0496,4.0496,4.0496,4.0496,4.0496,4.0477,4.0458,4.04,4.0285,4.0015,3.9804,3.9785,4.0015,4.0208,4.0227,4.0054,3.965,3.9381,3.9438,3.9046,3.8469,3.8238,3.8257,3.8104,3.7853,3.7988,3.8065,3.793,3.7738,3.8104,3.82,3.755,3.7024,3.6887,3.6757,3.5854,3.5933,3.6173,3.6044,3.5784,3.5464,3.5096,3.4595,3.424,3.4061,3.4074,3.4043,3.4185,3.4328,3.4257,3.4328,3.4495,3.4484,3.4495,3.4612,3.4612,3.4612,3.4612,3.4612,3.4612,3.4612,3.465,3.4725,3.4996,3.5859,3.6798,3.7223,3.8188,3.8976,3.9514,3.9607,3.965,3.9644,3.972,3.9792,3.9804,3.9933,4.0106,4.0137,4.0215,4.0291,4.0291,4.032,4.032,4.032,4.032,4.032,4.032,4.032,4.032,4.031,4.031,4.0319,4.0317,4.0325,4.037,4.0424,4.0458,4.0482,4.0507,4.0495,4.05,4.0489,4.0496,4.0496,4.0496,4.0496,4.0496,4.0496,4.0496,4.0496,4.0496,4.0496,4.0496,4.0496,4.0496,4.0496,4.0496,4.0496,4.0496,4.0496,4.0496,4.0496,4.0458,4.0381,4.0362,4.0323,4.0419,4.0496,4.0458,4.0265,4.0054,3.9938,4.0035,3.9842,3.9181,3.9046,3.9073,3.8988,3.8911,3.8604,3.8546,3.8623,3.8738,3.8719,3.8719,3.8411,3.818,3.8104,3.77,3.5247,3.4754,3.496,3.4967,3.491,3.4858,3.4764,3.4602,3.4506,3.4439,3.4461,3.445,3.4461,3.4473,3.445,3.4506,3.4528,3.4547,3.4569,3.4602,3.4612,3.4612,3.4612,3.4612,3.4612,3.4612,3.4688,3.4996,3.5522,3.631,3.7174,3.7981,3.8707,3.9263,3.9576,3.9656,3.9696,3.9708,3.9834,3.99,3.99,3.9922,4.0015,4.0186,4.032,4.032,4.032,4.032,4.032,4.032,4.032,4.032,4.032,4.032,4.032,4.031,4.0319,4.0317,4.0353,4.0386,4.0447,4.0463,4.0487,4.0492,4.05,4.0489,4.0496,4.0496,4.0496,4.0496,4.0496,4.0496,4.0496,4.0496,4.0496,4.0496,4.0496,4.0496,4.0496,4.0496,4.0496,4.0496,4.0496,4.0496,4.0496,4.0496,4.0496,4.0496,4.0496,4.0458,4.0439,4.0419,4.0439,4.0496,4.0496,4.0458,4.0246,4.0227,4.0304,4.0092,3.9823,3.9804,3.9765,3.9996,3.9996,3.9592,3.9477,3.9881,3.9892,3.9604,3.9508,3.9342,3.9496,3.9488,3.8854,3.463,3.4335,3.4517,3.4612,3.4612,3.4612,3.4612,3.4612,3.4612,3.4612,3.4612,3.4612,3.4612,3.4612,3.4612,3.4612,3.4612,3.4612,3.4602,3.4602,3.4612,3.4612,3.4612,3.4612,3.4612,3.465,3.5071,3.554,3.5995,3.6686,3.7474,3.8268,3.8949,3.9336,3.9555,3.9724,3.9792,3.9804,3.9954,4.0005,3.9994,4.0046,4.0127,4.0291,4.032,4.032,4.032,4.032,4.032,4.032,4.032,4.032,4.031,4.031,4.0319,4.0318,4.0326,4.0342,4.0394,4.0468,4.055,4.0539,4.0564,4.0588,4.0595,4.0595,4.0557,4.0549,4.0504,4.0496,4.0496,4.0496,4.0496,4.0496,4.0496,4.0496,4.0496,4.0496,4.0496,4.0496,4.0496,4.0496,4.0496,4.0496,4.0496,4.0496,4.0496,4.0496,4.0496,4.0496,4.0496,4.0496,4.0496,4.0496,4.0496,4.0496,4.0439,4.0477,4.0496,4.0362,4.0169,4.0342,4.0477,4.0439,4.0419,4.0362,4.04,4.0496,4.0496,4.0169,4.0227,4.0323,4.0496,4.0496,3.9881,3.4276,3.4397,3.4553,3.4655,3.4626,3.4655,3.4636,3.4636,3.4634,3.4626,3.4666,3.4655,3.4623,3.4612,3.4612,3.4612,3.4612,3.4612,3.4612,3.4612,3.4612,3.4612,3.4612,3.4612,3.4623,3.4927,3.5396,3.57,3.6004,3.6957,3.7853,3.8308,3.8674,3.9037,3.9573,3.9837,3.9922,3.9933,4.0015,4.0065,4.0127,4.0225,4.0263,4.0282,4.032,4.032,4.032,4.032,4.032,4.032,4.032,4.031,4.031,4.0318,4.0317,4.0325,4.0419,4.0452,4.0496,4.0582,4.0582,4.0596,4.0662,4.0693,4.0699,4.0674,4.0642,4.0609,4.0559,4.0519,4.0519,4.0504,4.0504,4.0496,4.0496,4.0496,4.0496,4.0496,4.0496,4.0496,4.0496,4.0496,4.0496,4.0496,4.0496,4.0496,4.0496,4.0496,4.0496,4.0496,4.0496,4.0496,4.0496,4.0496,4.0496,4.0496,4.0496,4.0496,4.0496,4.0496,4.0496,4.0496,4.0496,4.0496,4.0496,4.0496,4.0496,4.0496,4.0496,4.0496,4.0496,4.0496,4.0496,4.0496,4.0496,3.4752,3.4792,3.484,3.4831,3.484,3.485,3.4831,3.484,3.478,3.479,3.4801,3.4759,3.4697,3.4612,3.4612,3.4623,3.4645,3.4634,3.4623,3.4612,3.4655,3.4634,3.4634,3.4658,3.4695,3.5066,3.5579,3.5989,3.6556,3.7675,3.8445,3.868,3.9399,3.967,3.9775,3.9984,4.0057,4.0077,4.0137,4.0215,4.0195,4.0234,4.0215,4.0263,4.032,4.032,4.032,4.032,4.032,4.032,4.032,4.0337,4.0353,4.0368,4.0375,4.0438,4.0523,4.0561,4.0636,4.0701,4.0713,4.0713,4.0761,4.0776,4.0781,4.0781,4.077,4.0759,4.0703,4.0596,4.0581,4.0523,4.0527,4.0504,4.0496,4.0496,4.0496,4.0496,4.0496,4.0496,4.0496,4.0496,4.0496,4.0496,4.0496,4.0496,4.0496,4.0496,4.0496,4.0496,4.0496,4.0496,4.0496,4.0496,4.0496,4.0496,4.0496,4.0496,4.0496,4.0496,4.0496,4.0496,4.0496,4.0496,4.0496,4.0496,4.0496,4.0496,4.0496,4.0496,4.0496,4.0496,4.0496,4.0496,4.0496]}]]